[[{"header":{"parameterUnit":"m.s-1","parameterCategory":1,"la1":30.6,"la2":29.2853,"lo1":-89.7004,"lo2":-87.6739,"dy":0.0162,"dx":0.0183,"nx":112,"ny":82,"refTime":"2026-04-21T12:00:00:Z","depth":0,"parameterNumber":2,"parameterNumberName":"U-component_of_WINDS"},"data":[0.0,0.0,0.0,0.0,0.0,0.0,0.0,0.0,0.0,0.0,0.0,0.0,0.0,0.0,0.0,0.0,0.0,0.0,0.0,0.0,0.0,0.0,0.0,0.0,0.0,0.0,0.0,0.0,0.0,0.0,0.0,0.0,0.0,0.0,0.0,0.0,0.0,0.0,0.0,0.0,0.0,0.0,0.0,0.0,0.0,0.0,0.0,0.0,0.0,0.0,0.0,0.0,0.0,0.0,0.0,0.0,0.0,0.0,0.0,0.0,0.0,0.0,0.0,0.0,0.0,0.0,0.0,0.0,0.0,0.0,0.0,0.0,0.0,0.0,0.0,0.0,0.0,0.0,0.0,0.0,0.0,0.0,0.0,0.0,0.0,0.0,0.0,0.0,0.0,0.0,-2.2716,-2.537,-2.7503,-2.8172,-2.6776,-2.5051,-2.2904,-2.0242,0.0,0.0,0.0,0.0,0.0,0.0,0.0,0.0,0.0,0.0,0.0,0.0,0.0,0.0,0.0,0.0,0.0,0.0,0.0,0.0,0.0,0.0,0.0,0.0,0.0,0.0,0.0,0.0,0.0,0.0,0.0,0.0,0.0,0.0,0.0,0.0,0.0,0.0,0.0,0.0,0.0,0.0,0.0,0.0,0.0,0.0,0.0,0.0,0.0,0.0,0.0,0.0,0.0,0.0,0.0,0.0,0.0,0.0,0.0,0.0,0.0,0.0,0.0,0.0,0.0,0.0,0.0,0.0,0.0,0.0,0.0,0.0,0.0,0.0,0.0,0.0,0.0,0.0,0.0,0.0,0.0,0.0,0.0,0.0,0.0,0.0,0.0,0.0,0.0,0.0,0.0,0.0,0.0,0.0,0.0,0.0,0.0,0.0,0.0,0.0,0.0,0.0,0.0,0.0,-2.2978,-2.7642,-2.8583,-2.8354,-2.7041,-2.5583,-2.3374,-2.0114,0.0,0.0,0.0,0.0,0.0,0.0,0.0,0.0,0.0,0.0,0.0,0.0,0.0,0.0,0.0,0.0,0.0,0.0,0.0,0.0,0.0,0.0,0.0,0.0,0.0,0.0,0.0,0.0,0.0,0.0,0.0,0.0,0.0,0.0,0.0,0.0,0.0,0.0,0.0,0.0,0.0,0.0,0.0,0.0,0.0,0.0,0.0,0.0,0.0,0.0,0.0,0.0,0.0,0.0,0.0,0.0,0.0,0.0,0.0,0.0,0.0,0.0,0.0,0.0,0.0,0.0,0.0,0.0,0.0,0.0,0.0,0.0,0.0,0.0,0.0,0.0,0.0,0.0,0.0,0.0,0.0,0.0,0.0,0.0,0.0,0.0,0.0,0.0,0.0,0.0,0.0,0.0,0.0,0.0,0.0,0.0,0.0,0.0,0.0,0.0,0.0,0.0,0.0,-2.2681,-2.472,-2.802,-2.8693,-2.8501,-2.7477,-2.5513,-2.3258,-2.0604,-1.773,0.0,0.0,0.0,0.0,0.0,0.0,0.0,0.0,0.0,0.0,0.0,0.0,0.0,0.0,0.0,0.0,0.0,0.0,0.0,0.0,0.0,0.0,0.0,0.0,0.0,0.0,0.0,0.0,0.0,0.0,0.0,0.0,0.0,0.0,0.0,0.0,0.0,0.0,0.0,0.0,0.0,0.0,0.0,0.0,0.0,0.0,0.0,0.0,0.0,0.0,0.0,0.0,0.0,0.0,0.0,0.0,0.0,0.0,0.0,0.0,0.0,0.0,0.0,0.0,0.0,0.0,0.0,0.0,0.0,0.0,0.0,0.0,0.0,0.0,0.0,0.0,0.0,0.0,0.0,0.0,0.0,0.0,0.0,0.0,0.0,0.0,0.0,0.0,0.0,0.0,0.0,0.0,0.0,0.0,0.0,0.0,0.0,0.0,0.0,0.0,0.0,0.0,-2.5278,-2.6672,-2.8334,-2.8783,-2.8677,-2.801,-2.5313,-2.2859,-2.1037,-1.7723,0.0,0.0,0.0,0.0,0.0,0.0,0.0,0.0,0.0,0.0,0.0,0.0,0.0,0.0,0.0,0.0,0.0,0.0,0.0,0.0,0.0,0.0,0.0,0.0,0.0,0.0,0.0,0.0,0.0,0.0,0.0,0.0,0.0,0.0,0.0,0.0,0.0,0.0,0.0,0.0,0.0,0.0,0.0,0.0,0.0,0.0,0.0,0.0,0.0,0.0,0.0,0.0,0.0,0.0,0.0,0.0,0.0,0.0,0.0,0.0,0.0,0.0,0.0,0.0,0.0,0.0,0.0,0.0,0.0,0.0,0.0,0.0,0.0,0.0,0.0,0.0,0.0,0.0,0.0,0.0,0.0,0.0,0.0,0.0,0.0,0.0,0.0,0.0,0.0,0.0,0.0,0.0,0.0,0.0,0.0,0.0,0.0,0.0,0.0,0.0,0.0,0.0,-2.5733,-2.8436,-2.9554,-2.9337,-2.8956,-2.8679,-2.5143,-2.2373,-2.1008,-1.7303,0.0,0.0,0.0,0.0,0.0,0.0,0.0,0.0,0.0,0.0,0.0,0.0,0.0,0.0,0.0,0.0,0.0,0.0,0.0,0.0,0.0,0.0,0.0,0.0,0.0,0.0,0.0,0.0,0.0,0.0,0.0,0.0,0.0,0.0,0.0,0.0,0.0,0.0,0.0,0.0,0.0,0.0,0.0,0.0,0.0,0.0,0.0,0.0,0.0,0.0,0.0,0.0,0.0,0.0,0.0,0.0,0.0,0.0,0.0,0.0,0.0,0.0,0.0,0.0,0.0,0.0,0.0,0.0,0.0,0.0,0.0,0.0,0.0,0.0,0.0,0.0,0.0,0.0,0.0,0.0,0.0,0.0,0.0,0.0,0.0,0.0,0.0,0.0,0.0,0.0,0.0,0.0,0.0,0.0,0.0,0.0,0.0,0.0,0.0,0.0,0.0,0.0,-2.4763,-2.7289,0.0,-2.9208,-2.884,-2.8157,-2.5636,-2.301,-2.0439,0.0,0.0,0.0,0.0,0.0,0.0,0.0,0.0,0.0,0.0,0.0,0.0,0.0,0.0,0.0,0.0,0.0,0.0,0.0,0.0,0.0,0.0,0.0,0.0,0.0,0.0,0.0,0.0,0.0,0.0,0.0,0.0,0.0,0.0,0.0,0.0,0.0,0.0,0.0,0.0,0.0,0.0,0.0,0.0,0.0,0.0,0.0,0.0,0.0,0.0,0.0,0.0,0.0,0.0,0.0,0.0,0.0,0.0,0.0,0.0,0.0,0.0,0.0,0.0,0.0,0.0,0.0,0.0,0.0,0.0,0.0,0.0,0.0,0.0,0.0,0.0,0.0,0.0,0.0,0.0,0.0,0.0,0.0,0.0,0.0,0.0,0.0,0.0,0.0,0.0,0.0,0.0,0.0,0.0,0.0,0.0,0.0,0.0,0.0,0.0,0.0,0.0,-2.1504,-2.4461,-2.6981,0.0,-2.9098,-2.8695,-2.7781,-2.5375,-2.2685,-1.9816,0.0,0.0,0.0,0.0,0.0,0.0,0.0,0.0,0.0,0.0,0.0,0.0,0.0,0.0,0.0,0.0,0.0,0.0,0.0,0.0,0.0,0.0,0.0,0.0,0.0,0.0,0.0,0.0,0.0,0.0,0.0,0.0,0.0,0.0,0.0,0.0,0.0,0.0,0.0,0.0,0.0,0.0,0.0,0.0,0.0,0.0,0.0,0.0,0.0,0.0,0.0,0.0,0.0,0.0,0.0,0.0,0.0,0.0,0.0,0.0,0.0,0.0,0.0,0.0,0.0,0.0,0.0,0.0,0.0,0.0,0.0,0.0,0.0,0.0,0.0,0.0,0.0,0.0,0.0,0.0,0.0,0.0,0.0,0.0,0.0,0.0,0.0,0.0,0.0,0.0,0.0,0.0,0.0,0.0,0.0,0.0,0.0,0.0,0.0,0.0,0.0,0.0,-2.1365,-2.5159,-2.7991,-2.8978,-2.9098,-2.8695,-2.7781,-2.421,-2.1191,0.0,0.0,0.0,0.0,0.0,0.0,0.0,0.0,0.0,0.0,0.0,0.0,0.0,0.0,0.0,0.0,0.0,0.0,0.0,0.0,0.0,0.0,0.0,0.0,0.0,0.0,0.0,0.0,0.0,0.0,0.0,0.0,0.0,0.0,0.0,0.0,0.0,0.0,0.0,0.0,0.0,0.0,0.0,0.0,0.0,0.0,0.0,0.0,0.0,0.0,0.0,0.0,0.0,0.0,0.0,0.0,0.0,0.0,0.0,0.0,0.0,0.0,0.0,0.0,0.0,0.0,0.0,0.0,0.0,0.0,0.0,0.0,0.0,0.0,0.0,0.0,0.0,0.0,0.0,0.0,0.0,0.0,0.0,0.0,0.0,0.0,0.0,0.0,0.0,0.0,0.0,0.0,0.0,0.0,0.0,0.0,0.0,0.0,0.0,0.0,0.0,0.0,0.0,-2.1365,-2.5159,-2.8017,-2.9117,-2.9153,-2.8779,-2.7971,-2.5097,-2.2323,-1.9943,0.0,0.0,0.0,0.0,0.0,0.0,0.0,0.0,0.0,0.0,0.0,0.0,0.0,0.0,0.0,0.0,0.0,0.0,0.0,0.0,0.0,0.0,0.0,0.0,0.0,0.0,0.0,0.0,0.0,0.0,0.0,0.0,0.0,0.0,0.0,0.0,0.0,0.0,0.0,0.0,0.0,0.0,0.0,0.0,0.0,0.0,0.0,0.0,0.0,0.0,0.0,0.0,0.0,0.0,0.0,0.0,0.0,0.0,0.0,0.0,0.0,0.0,0.0,0.0,0.0,0.0,0.0,0.0,0.0,0.0,0.0,0.0,0.0,0.0,0.0,0.0,0.0,0.0,0.0,0.0,0.0,0.0,0.0,0.0,0.0,0.0,0.0,0.0,0.0,0.0,0.0,0.0,0.0,0.0,0.0,0.0,0.0,0.0,0.0,0.0,0.0,0.0,-2.1774,-2.5309,-2.8136,-2.9555,-2.9358,-2.8807,-2.8081,-2.5471,-2.2817,-2.0262,0.0,0.0,0.0,0.0,0.0,0.0,0.0,0.0,0.0,0.0,0.0,0.0,0.0,0.0,0.0,0.0,0.0,0.0,0.0,0.0,0.0,0.0,0.0,0.0,0.0,0.0,0.0,0.0,0.0,0.0,0.0,0.0,0.0,0.0,0.0,0.0,0.0,0.0,0.0,0.0,0.0,0.0,0.0,0.0,0.0,0.0,0.0,0.0,0.0,0.0,0.0,0.0,0.0,0.0,0.0,0.0,0.0,0.0,0.0,0.0,0.0,0.0,0.0,0.0,0.0,0.0,0.0,0.0,0.0,0.0,0.0,0.0,0.0,0.0,0.0,0.0,0.0,0.0,0.0,0.0,0.0,0.0,0.0,0.0,0.0,0.0,0.0,0.0,0.0,0.0,0.0,0.0,0.0,0.0,0.0,0.0,0.0,0.0,0.0,0.0,0.0,0.0,-2.2433,-2.5668,-2.8371,-3.0117,-2.9592,-2.8834,-2.814,-2.5525,-2.2868,-2.0436,0.0,0.0,0.0,0.0,0.0,0.0,0.0,0.0,0.0,0.0,0.0,0.0,0.0,0.0,0.0,0.0,0.0,0.0,0.0,0.0,0.0,0.0,0.0,0.0,0.0,0.0,0.0,0.0,0.0,0.0,0.0,0.0,0.0,0.0,0.0,0.0,0.0,0.0,0.0,0.0,0.0,0.0,0.0,0.0,0.0,0.0,0.0,0.0,0.0,0.0,0.0,0.0,0.0,0.0,0.0,0.0,0.0,0.0,0.0,0.0,-2.4993,0.0,0.0,0.0,0.0,0.0,0.0,0.0,0.0,0.0,0.0,0.0,0.0,0.0,0.0,0.0,0.0,0.0,0.0,0.0,0.0,0.0,0.0,0.0,0.0,0.0,0.0,0.0,0.0,0.0,0.0,0.0,0.0,0.0,0.0,0.0,0.0,0.0,0.0,0.0,0.0,0.0,-2.3071,-2.6303,-2.8936,-3.0317,-2.9759,-2.9205,-2.8893,-2.5912,-2.3366,-2.1685,-1.8695,0.0,0.0,0.0,0.0,0.0,0.0,0.0,0.0,0.0,0.0,0.0,0.0,0.0,0.0,0.0,0.0,0.0,0.0,0.0,0.0,0.0,0.0,0.0,0.0,0.0,0.0,0.0,0.0,0.0,0.0,0.0,0.0,0.0,0.0,0.0,0.0,0.0,0.0,0.0,0.0,0.0,0.0,0.0,0.0,0.0,0.0,0.0,0.0,0.0,0.0,0.0,0.0,0.0,0.0,0.0,0.0,0.0,0.0,0.0,0.0,-2.7171,0.0,0.0,0.0,0.0,0.0,0.0,0.0,0.0,0.0,0.0,0.0,0.0,0.0,0.0,0.0,0.0,0.0,0.0,0.0,0.0,0.0,0.0,0.0,0.0,0.0,0.0,0.0,0.0,0.0,0.0,0.0,0.0,0.0,0.0,0.0,0.0,0.0,0.0,0.0,0.0,-2.4178,-2.6931,-2.9205,-3.0793,-3.0022,-2.9374,-2.9265,-2.6633,-2.4434,-2.3081,-2.0506,0.0,0.0,0.0,0.0,0.0,0.0,0.0,0.0,0.0,0.0,0.0,0.0,0.0,0.0,0.0,0.0,0.0,0.0,0.0,0.0,0.0,0.0,0.0,0.0,0.0,0.0,0.0,0.0,0.0,0.0,0.0,0.0,0.0,0.0,0.0,0.0,0.0,0.0,0.0,0.0,0.0,0.0,0.0,0.0,0.0,0.0,0.0,0.0,0.0,0.0,0.0,0.0,0.0,-3.5549,-3.6207,-3.6537,-3.6537,-3.6537,-3.6357,-3.3066,-3.1809,-3.1839,0.0,0.0,0.0,0.0,0.0,0.0,0.0,0.0,0.0,0.0,0.0,0.0,0.0,0.0,0.0,0.0,0.0,0.0,0.0,0.0,0.0,0.0,0.0,0.0,0.0,-2.6961,-2.6333,0.0,0.0,0.0,0.0,0.0,0.0,0.0,0.0,0.0,0.0,0.0,0.0,-2.5375,-2.753,-2.9475,-3.1301,-3.0259,-2.9429,-2.9401,-2.7329,-2.5536,-2.4364,-2.2323,-2.0329,0.0,0.0,0.0,0.0,0.0,0.0,0.0,0.0,0.0,0.0,0.0,0.0,0.0,0.0,0.0,0.0,0.0,0.0,0.0,0.0,0.0,0.0,0.0,0.0,0.0,0.0,0.0,0.0,0.0,0.0,0.0,0.0,-2.4896,-2.5076,0.0,0.0,0.0,0.0,0.0,0.0,0.0,0.0,0.0,0.0,0.0,0.0,0.0,0.0,-3.5699,-3.8153,-3.911,-3.8661,-4.0988,-4.1624,-4.0606,-4.0606,-4.0606,-4.0576,-4.0068,0.0,-3.4054,-3.3095,0.0,0.0,0.0,0.0,0.0,0.0,0.0,0.0,0.0,0.0,0.0,0.0,0.0,0.0,0.0,0.0,0.0,0.0,0.0,0.0,0.0,0.0,-3.0345,-2.9953,-3.0372,-3.0374,0.0,-2.5279,-2.2254,-2.1126,0.0,0.0,0.0,0.0,0.0,0.0,0.0,0.0,-2.6123,-2.8218,-2.9983,-3.1361,-3.0345,-2.951,-2.9401,-2.7406,-2.581,-2.5003,-2.3023,-2.1249,-1.9894,-1.7998,0.0,0.0,0.0,0.0,0.0,0.0,0.0,0.0,0.0,0.0,0.0,0.0,0.0,0.0,0.0,0.0,0.0,0.0,0.0,0.0,0.0,0.0,0.0,0.0,0.0,0.0,0.0,0.0,0.0,-2.5255,-2.7141,-2.6752,-2.7679,-2.7799,0.0,0.0,0.0,0.0,0.0,0.0,0.0,0.0,0.0,-3.6746,-3.7823,-3.899,-4.0337,-4.2581,-4.3599,-4.326,-4.4426,-4.4706,-4.4137,-4.3748,-4.3569,-4.3569,-4.318,-4.1683,-3.932,-3.7554,-3.528,-3.2766,0.0,0.0,0.0,0.0,0.0,-3.0522,-3.1629,0.0,0.0,0.0,0.0,0.0,0.0,0.0,0.0,0.0,0.0,0.0,0.0,0.0,0.0,-3.2078,-3.2407,-3.2467,-3.1898,-2.9894,-2.735,0.0,-2.343,-2.2353,-2.0318,0.0,0.0,0.0,0.0,-2.5136,-2.744,-2.9116,-3.0462,-3.1391,-3.0372,-2.9594,-2.951,-2.7839,-2.6449,-2.5752,-2.4387,-2.2997,-2.1721,-1.9836,-1.823,0.0,0.0,0.0,0.0,0.0,0.0,0.0,0.0,0.0,0.0,0.0,0.0,0.0,0.0,0.0,0.0,0.0,0.0,0.0,0.0,0.0,0.0,0.0,0.0,0.0,0.0,0.0,0.0,-2.7684,-2.9355,-2.8667,-3.0462,-3.0941,0.0,0.0,0.0,0.0,0.0,0.0,-3.6181,-3.6896,-3.8392,-4.0846,-4.1863,-4.294,-4.4037,-4.5711,-4.6561,-4.6561,-4.6561,-4.6501,-4.6249,-4.5783,-4.5454,-4.5274,-4.4975,-4.4436,-4.3618,-4.1175,-3.8721,-3.6417,-3.54,-3.4203,-3.3065,-3.3543,-3.3873,-3.4233,-3.5729,-3.6237,-3.6028,-3.4711,0.0,-3.2706,-2.9564,0.0,0.0,0.0,0.0,-3.0522,-3.2288,0.0,-3.3005,-3.4023,-3.4262,-3.4173,-3.3814,-3.3365,-3.1809,0.0,-2.6722,-2.5854,-2.337,0.0,0.0,0.0,0.0,-2.6782,-2.8607,-2.9834,-3.0761,-3.1421,-3.0492,-2.9771,-2.9621,-2.8281,-2.7178,-2.6503,-2.5408,-2.4302,-2.32,-2.1489,-2.0001,-1.8724,0.0,0.0,0.0,0.0,0.0,0.0,0.0,0.0,0.0,0.0,0.0,0.0,0.0,0.0,0.0,0.0,0.0,0.0,0.0,0.0,0.0,0.0,0.0,0.0,0.0,0.0,0.0,0.0,0.0,-3.1391,-3.3633,0.0,0.0,0.0,0.0,-3.4204,-3.6596,-3.8931,-4.0973,-4.1692,-4.298,-4.4945,-4.5065,-4.5454,-4.613,-4.689,-4.7249,-4.7249,-4.7249,-4.692,-4.6279,-4.6249,-4.5903,-4.5334,-4.5963,-4.5843,-4.5035,-4.3069,-4.1025,-3.9194,-3.914,-3.8302,-3.7135,-3.7135,-3.7554,-3.8123,-3.8212,-3.8242,-3.8332,-3.8901,-3.7375,-3.519,-3.4384,-3.3215,0.0,0.0,-3.3664,-3.4533,-3.5878,-3.6237,-3.6267,-3.6327,-3.6327,-3.5998,-3.4743,-3.4444,-3.3605,0.0,-2.9774,-2.8753,-2.6692,0.0,-2.6387,-2.6393,-2.7046,-2.8004,-2.9382,-3.0103,-3.0761,-3.1421,-3.0853,-3.0223,-2.9651,-2.8723,-2.7883,-2.7207,-2.5666,-2.4505,-2.3862,-2.2585,-2.1307,-2.003,-1.8056,0.0,0.0,0.0,0.0,0.0,0.0,0.0,0.0,0.0,0.0,0.0,0.0,0.0,0.0,0.0,0.0,0.0,0.0,0.0,0.0,0.0,0.0,0.0,0.0,0.0,0.0,0.0,0.0,-3.5277,-3.7674,0.0,-3.6742,-3.7434,-3.8212,-3.8906,-4.0576,-4.2252,-4.3808,-4.4556,-4.5633,-4.716,-4.7638,-4.8177,-4.879,-4.9448,-4.9823,-4.9823,-4.8985,-4.8446,-4.8177,-4.7339,-4.683,-4.6591,-4.6411,-4.613,-4.5903,-4.5214,-4.3718,-4.1884,-4.1884,-4.1384,-4.0643,-4.0643,-4.0793,-4.0913,-4.0457,-4.0307,-4.0217,-3.9619,-3.8212,-3.6626,-3.5968,-3.5429,-3.513,-3.537,-3.5878,-3.6477,-3.6956,-3.7075,-3.7075,-3.7075,-3.7075,-3.6836,-3.5968,-3.5791,-3.5252,-3.3455,-3.2198,-3.0971,-2.9385,-2.9116,-2.8816,-2.8008,-2.8786,-2.9624,-3.0103,-3.0761,-3.1241,-3.1481,-3.0883,-3.0253,-2.9651,-2.8806,-2.7813,-2.6621,-2.556,-2.4655,-2.3943,-2.2265,-2.1336,-2.1307,-1.9043,-1.7417,0.0,0.0,0.0,0.0,0.0,0.0,0.0,0.0,0.0,0.0,0.0,0.0,0.0,0.0,0.0,0.0,0.0,0.0,0.0,0.0,0.0,0.0,0.0,0.0,0.0,0.0,-3.8212,-3.8392,-4.0965,-4.2013,-4.0247,-4.1085,-4.1983,-4.2641,-4.3928,-4.5244,-4.6561,-4.707,-4.7818,-4.8895,-4.9164,-4.9464,-4.9912,-5.0331,-5.0571,-5.0541,-4.9673,-4.9299,-4.9269,-4.8356,-4.7848,-4.7608,-4.7189,-4.686,-4.6651,-4.6369,-4.5502,-4.4276,-4.4037,-4.3718,-4.3369,-4.3129,-4.3189,-4.3309,-4.2611,-4.2073,-4.1602,-4.0696,-3.9649,-3.8631,-3.8003,-3.7793,-3.7764,-3.7524,-3.7764,-3.8093,-3.8093,-3.8093,-3.8033,-3.7793,-3.7734,-3.7554,-3.6926,-3.6626,-3.6237,-3.5372,-3.4083,-3.2826,-3.1689,-3.133,-3.0881,-3.0043,-3.0462,-3.0851,-3.0851,-3.1212,-3.1511,-3.1511,-3.1092,-3.0492,-2.9681,-2.9015,-2.8024,-2.6621,-2.556,-2.4742,-2.4239,-2.2533,-2.1837,-2.2272,-1.9843,-1.8241,-1.7534,0.0,0.0,0.0,0.0,0.0,0.0,0.0,0.0,0.0,0.0,0.0,0.0,0.0,0.0,0.0,0.0,0.0,0.0,0.0,0.0,0.0,0.0,0.0,-3.5669,-3.902,-4.1265,-4.0696,-4.3449,-4.4407,-4.1901,-4.3359,-4.4736,-4.5364,-4.6621,-4.7908,-4.9239,-4.9299,-4.9583,-5.0166,-4.9613,-4.9359,-4.9359,-4.9359,-4.9359,-4.9359,-4.9359,-4.9329,-4.9329,-4.9329,-4.897,-4.8327,-4.8297,-4.7938,-4.7279,-4.6621,-4.6309,-4.6249,-4.5603,-4.5334,-4.5244,-4.4616,-4.4766,-4.5185,-4.4556,-4.3479,-4.244,-4.241,-4.1961,-4.1332,-4.0636,-4.0427,-4.0277,-3.9649,-3.9439,-3.9439,-3.9439,-3.9373,-3.926,-3.8571,-3.8422,-3.8242,-3.7584,-3.6956,-3.6507,-3.6477,-3.5432,-3.4324,-3.3634,-3.3006,-3.2557,-3.2527,-3.1959,0.0,-3.154,-3.1511,-3.1511,-3.1511,-3.1511,-3.0972,-2.9714,-2.9319,-2.8537,-2.7266,-2.5696,-2.4824,-2.4766,-2.3554,-2.2888,-2.2836,-2.0536,-1.8965,-1.8205,0.0,0.0,0.0,0.0,0.0,0.0,0.0,0.0,0.0,0.0,0.0,0.0,0.0,0.0,0.0,0.0,0.0,0.0,0.0,0.0,0.0,-3.6985,-3.9589,-3.911,-4.1624,-4.3988,-4.5244,-4.6621,-4.7369,-4.7173,-4.7622,-4.8011,-4.8221,-4.855,-4.894,-4.9299,-4.9299,-4.9583,-5.0166,-5.0016,-5.0212,-5.069,-5.069,-5.069,-5.069,-5.0182,-4.9972,-4.9942,-4.9494,-4.9209,-4.903,-4.8506,-4.8177,-4.7967,-4.7309,-4.704,-4.698,-4.6292,-4.6052,-4.6022,-4.5843,-4.5574,-4.5185,-4.4556,-4.4077,-4.3629,-4.271,-4.2291,-4.2021,-4.1362,-4.1115,-4.0965,-4.0307,-4.0127,-4.0008,-3.9559,-3.9373,-3.9343,-3.917,-3.914,-3.896,-3.8272,-3.7614,-3.7015,-3.6567,-3.5789,-3.5011,-3.4354,-3.4053,-3.3784,-3.3305,0.0,0.0,-3.2228,-3.1809,-3.1511,-3.1511,-3.1511,-3.1152,-3.0313,-2.964,-2.8465,-2.6587,-2.5971,-2.5209,-2.4181,-2.3345,-2.2499,-2.1676,-2.0905,-1.9834,0.0,0.0,0.0,0.0,0.0,0.0,0.0,0.0,0.0,0.0,0.0,0.0,0.0,0.0,0.0,0.0,0.0,0.0,0.0,0.0,0.0,0.0,-4.0307,-4.297,-4.3988,-4.5424,-4.6711,-4.7608,-4.8536,-4.9134,-4.9299,-4.9299,-4.9299,-4.9299,-4.9523,-4.9673,-4.9673,-4.9942,-5.0272,-5.0584,-5.0614,-5.084,-5.1229,-5.1229,-5.1229,-5.1229,-5.084,-5.0465,-5.0196,-5.0122,-4.9793,0.0,-4.9164,-4.8775,-4.8267,-4.7878,-4.7549,0.0,0.0,0.0,0.0,0.0,-4.6292,-4.5663,-4.5274,-4.4796,-4.4197,-4.3419,-4.3,-4.2641,-4.2021,-4.1841,-4.1692,-4.0995,-4.0606,-4.0307,-3.9918,-3.9619,-3.9373,-3.9373,-3.9373,-3.932,-3.8901,-3.8302,-3.7644,-3.6985,0.0,0.0,-3.5011,-3.4713,-3.4384,-3.3994,-3.3335,-3.2826,0.0,-3.2138,-3.1809,-3.154,-3.1511,-3.1241,-3.0552,-2.9784,0.0,0.0,0.0,-2.5374,-2.3972,-2.3543,0.0,0.0,0.0,0.0,0.0,0.0,0.0,0.0,-1.9157,-1.8779,0.0,0.0,0.0,0.0,0.0,0.0,0.0,0.0,0.0,0.0,0.0,0.0,0.0,0.0,0.0,0.0,-4.3389,-4.5783,-4.879,-4.9389,-4.9284,-4.8686,-4.9583,-5.0032,-4.9523,-4.9539,-4.9539,-4.9539,-5.0032,-5.0315,-5.0315,0.0,0.0,0.0,0.0,-5.1229,-5.1229,-5.1229,-5.1229,-5.1229,-5.1229,-5.0823,-5.0226,-5.084,-5.0481,-4.9449,-4.9912,-4.9523,-4.8506,-4.8356,-4.7908,-4.7249,-4.6681,-4.68,-4.7309,-4.7309,-4.692,0.0,0.0,0.0,0.0,-4.4347,-4.3828,-4.32,-4.2641,-4.25,-4.2381,-4.1722,-4.1055,-4.0576,-4.0427,-3.9978,-3.9499,-3.9439,-3.9373,-3.9373,-3.9373,-3.8871,-3.8212,-3.7644,-3.6956,-3.6297,-3.5729,-3.504,-3.4623,-3.4623,-3.4023,0.0,-3.2796,-3.2587,-3.2258,-3.169,0.0,0.0,-3.0672,-2.9933,-2.9141,-2.8355,-2.6905,-2.5496,-2.4176,-2.4094,-2.3779,-2.3038,-2.321,-2.3164,-2.283,-2.2724,-2.3068,-2.3758,-2.1418,-2.1029,0.0,0.0,0.0,0.0,0.0,0.0,0.0,0.0,0.0,0.0,0.0,0.0,0.0,0.0,0.0,-4.2542,-4.5514,-4.7728,-4.8386,-4.9853,-5.078,-5.0661,-5.0375,-5.0345,-5.081,-5.084,-5.084,-5.084,-5.096,-5.0973,-5.0973,-5.1139,0.0,-5.1229,-5.1229,-5.1229,-5.1229,-5.1229,-5.1229,-5.1229,0.0,0.0,-5.0196,-5.0315,-5.0255,-4.9986,-4.9613,-4.9613,-4.9717,-4.8716,-4.7908,-4.7309,-4.716,-4.7189,-4.7309,-4.7309,-4.7219,-4.704,-4.6501,-4.5783,-4.5005,-4.4496,-4.3828,-4.326,-4.314,-4.315,0.0,-4.2381,-4.2111,-4.1782,-4.0666,-4.0307,-4.0068,-3.9559,-3.9373,-3.9373,-3.9373,-3.8871,-3.8362,-3.8212,-3.7255,-3.6447,-3.6327,-3.5759,-3.531,-3.531,-3.4711,-3.4264,-3.4144,-3.3185,-3.2437,-3.2318,-3.1809,-3.1451,-3.1331,-3.0505,-2.9655,-2.895,-2.7474,-2.6294,-2.5483,-2.5454,-2.4718,-2.3166,-2.4003,-2.3606,-2.1801,-2.3511,-2.3997,-2.3303,-2.2287,-2.2408,0.0,0.0,0.0,0.0,0.0,0.0,0.0,0.0,0.0,0.0,0.0,-3.6956,-3.8631,0.0,-4.3509,-4.5484,-4.7189,-4.8626,-4.9613,-5.0301,-5.0674,-5.0674,-5.0674,-5.0823,-5.1199,-5.1229,-5.1229,-5.1229,-5.1229,-5.1229,-5.1229,-5.1229,-5.1229,-5.1229,-5.1229,-5.1229,-5.1229,-5.1229,-5.1229,-5.1229,-5.1229,-5.0823,-5.0196,-5.0196,-5.0196,-5.0166,-4.9883,-4.9942,-5.0076,-4.8835,-4.8087,-4.7758,-4.7429,-4.7309,-4.7309,-4.7309,-4.7309,-4.7249,-4.692,-4.6381,-4.5693,-4.5035,-4.4377,-4.3738,-4.3379,-4.329,-4.323,-4.294,-4.265,-4.2261,-4.1602,-4.0876,-4.0307,-3.9978,-3.9612,-3.9373,-3.9373,-3.914,-3.8811,-3.8452,-3.7883,-3.7225,-3.6596,-3.6207,-3.5878,-3.5549,-3.522,-3.4861,-3.4563,-3.3934,-3.3245,-3.2557,-3.2198,-3.1869,-3.154,-3.0655,-2.9805,-2.9046,-2.8209,-2.7432,-2.6794,-2.6445,-2.5764,-2.4554,-2.5029,-2.4485,-2.2814,-2.45,-2.5066,-2.4531,-2.453,-2.4638,0.0,0.0,0.0,0.0,0.0,0.0,0.0,-3.3723,-3.4651,-3.7434,-3.926,-4.0935,-4.283,-4.4526,-4.6262,-4.7997,-4.8506,-4.9224,-5.081,-5.0644,-5.0345,-5.0196,-5.0764,-5.1229,-5.1229,-5.1229,-5.1229,-5.1229,-5.1229,-5.1229,-5.1229,-5.1229,-5.1229,-5.1229,-5.1229,-5.1229,-5.1229,-5.1229,-5.1229,-5.1229,-5.1229,-5.0823,-5.0196,-5.0196,-5.0196,-5.0196,-5.0315,-5.0315,-5.0106,-4.9105,-4.8506,-4.8237,-4.7698,-4.7429,-4.7309,-4.7309,-4.7309,-4.7309,-4.7309,-4.686,-4.619,-4.5663,-4.4945,-4.4227,-4.3648,-4.3379,-4.329,-4.329,-4.294,-4.256,-4.244,-4.1602,-4.0726,-4.0457,-4.0008,-3.9589,-3.9439,-3.9373,-3.926,-3.8691,-3.8482,-3.8063,-3.7045,-3.6656,-3.6267,-3.5609,-3.5519,-3.531,-3.4741,-3.4593,-3.4053,-3.2945,-3.2617,-3.2169,-3.1425,-3.0716,-2.9925,-2.9083,-2.8911,-2.8565,-2.7898,-2.7295,-2.6766,-2.6272,-2.6062,-2.552,-2.4651,-2.5714,-2.6161,-2.6081,-2.6833,-2.6883,-3.0313,-3.0223,-3.0971,-3.3365,-3.3544,-3.4562,0.0,-3.9858,-3.9559,-4.2761,-4.3599,-4.4197,-4.5603,-4.6531,-4.7339,-4.8147,-4.9254,-5.0046,-5.0255,-5.0734,-5.09,-5.0255,-5.0764,-5.1229,-5.1229,-5.1229,-5.1229,-5.1229,-5.1229,-5.1229,-5.1229,-5.1229,-5.1229,-5.1229,-5.1229,-5.1229,-5.1229,-5.1229,-5.1229,-5.1229,-5.1229,-5.0823,-5.0196,-5.0196,-5.0196,-5.0226,-5.0794,-5.0734,-5.0196,-5.0046,-4.9344,-4.8267,-4.8207,-4.7818,-4.7309,-4.7309,-4.7309,-4.7309,-4.7309,-4.686,-4.6279,-4.619,-4.5334,-4.4317,-4.4227,-4.3768,-4.329,-4.329,-4.323,-4.309,-4.256,-4.2291,-4.1901,-4.0666,-4.0337,-4.0127,-3.9559,-3.9373,-3.9409,-3.932,-3.8811,-3.8332,-3.8212,-3.7225,-3.6267,-3.5609,-3.5519,-3.5489,-3.54,-3.4861,-3.4381,-3.4012,-3.3001,-3.193,-3.0984,-3.0955,-3.0573,-2.9581,-2.9523,-2.9232,-2.8594,-2.7883,-2.751,-2.7595,-2.69,-2.6544,-2.6595,-2.7131,-2.713,-2.6619,-2.7911,-2.8449,-3.4382,-3.4262,-3.4532,-3.6776,-3.8003,-3.9535,-4.2761,-4.315,-4.3569,-4.6112,-4.692,-4.7249,-4.7429,-4.8327,-4.8985,0.0,-4.9643,-5.0315,-5.0704,-5.0674,-5.0495,-5.0226,-5.0152,-5.0242,-5.0554,-5.0943,-5.1229,-5.1229,-5.1229,-5.1379,-5.1768,-5.1798,-5.1977,-5.2336,-5.2366,-5.2366,-5.2366,-5.2366,-5.2157,-5.1798,-5.1798,-5.1439,-5.0734,-5.0375,-5.0196,-5.0226,-5.0883,-5.105,-5.0734,-5.0345,-4.9867,-4.9344,-4.8596,-4.8117,-4.7818,-4.7459,-4.7309,-4.7309,-4.7309,-4.713,-4.677,-4.5992,-4.5334,-4.4736,-4.3917,-4.3499,-4.329,-4.329,-4.329,-4.323,-4.3,-4.2641,-4.2261,-4.1722,-4.0965,-4.0337,-4.0038,-3.9679,-3.9373,-3.9373,-3.92,-3.8835,-3.8305,-3.7506,-3.6671,-3.5982,-3.5565,-3.5359,-3.5457,-3.5153,-3.4728,-3.4248,-3.3293,-3.234,-3.1481,-3.1452,-3.1129,-3.0249,-2.9833,-2.9658,-2.9784,-2.8764,-2.821,-2.8268,-2.7549,-2.6849,-2.6206,-2.6758,-2.7103,-2.7305,-2.782,-2.8494,-3.6686,-3.7075,-3.7764,-3.9738,-4.1564,-4.3299,-4.4796,-4.5514,-4.6352,-4.8177,-4.882,-4.891,-4.8386,-4.9045,-4.9613,-4.9359,-4.9823,-5.0435,-5.1139,-5.0614,-5.0136,-5.0002,-4.9553,-4.9374,-4.9673,-5.0405,-5.102,-5.1199,-5.1229,-5.1498,-5.2157,-5.2187,-5.2516,-5.3144,-5.2995,-5.2905,-5.2905,-5.2725,-5.2396,-5.1947,-5.2127,-5.1858,-5.1199,-5.0674,-5.0465,-5.0495,-5.102,-5.1229,-5.1169,-5.0674,-5.0345,-5.0106,-4.9194,-4.8596,-4.8237,-4.7758,-4.7459,-4.7309,-4.7309,-4.7309,-4.713,-4.6172,-4.5603,-4.5125,-4.4167,-4.3589,-4.329,-4.329,-4.329,-4.329,-4.329,-4.3,-4.262,-4.244,-4.1662,-4.0846,-4.0487,-3.9971,-3.9546,-3.9433,-3.9337,-3.9116,-3.8466,-3.7872,-3.7218,-3.6497,-3.5777,-3.534,-3.5422,-3.5195,-3.4797,-3.415,-3.3328,-3.2547,-3.1722,-3.155,-3.1201,-3.0584,-2.9924,-2.9808,-3.0296,-2.9019,-2.8395,-2.858,-2.7711,-2.7031,-2.6464,-2.672,-2.7122,-2.7647,-2.7773,-2.827,-3.5729,-3.7404,-3.9798,-4.1811,-4.3269,-4.4766,-4.677,-4.7219,-4.7638,-4.9,-4.879,-4.8297,-4.8297,-4.8327,-4.8536,-4.9209,-4.9823,-5.0435,-5.1139,-5.0614,-5.0002,-4.9419,-4.9329,-4.906,-4.8416,-4.9523,-5.0495,-5.1169,-5.1229,-5.1498,-5.2157,-5.2187,-5.2516,-5.3144,-5.2576,-5.2217,-5.2217,-5.1588,-5.1259,-5.1259,-5.1887,-5.1858,-5.1229,-5.1199,-5.1199,-5.1199,-5.1199,-5.1229,-5.1229,-5.1199,-5.0764,-5.0196,-5.0136,-4.9404,-4.8297,-4.8267,-4.7848,-4.7309,-4.7309,-4.7309,-4.7309,-4.7249,-4.6352,-4.5274,-4.5244,-4.4347,-4.329,-4.329,-4.329,-4.329,-4.329,-4.329,-4.315,-4.256,-4.2381,-4.1991,-4.0666,-4.0219,-3.9936,-3.9493,-3.9228,-3.909,-3.909,-3.8525,-3.7831,-3.7004,-3.6153,-3.5507,-3.5222,-3.4931,-3.4468,-3.3794,-3.302,-3.2201,-3.1382,-3.0894,-3.0559,-3.0427,-2.9897,-2.9623,-2.9623,-2.8266,-2.7841,-2.8497,-2.7211,-2.7144,-2.8405,-2.7782,-2.7478,-2.7511,-2.8174,-2.8168,-3.8332,-4.0367,-4.2333,-4.3928,-4.5633,-4.7249,-4.8356,-4.864,-4.879,-4.9209,-4.8386,-4.7369,-4.6471,-4.704,-4.7698,-4.7938,-4.9254,-5.0435,-5.1139,-5.0614,-5.0002,-4.9389,-4.894,0.0,-4.8297,-4.9075,0.0,-5.0465,-5.0913,-5.1708,-5.2785,-5.3294,-5.3832,-5.4491,-5.3892,-5.3533,-5.3533,-5.2845,-5.2306,-5.1887,-5.2097,-5.1858,-5.1229,-5.1678,-5.1618,-5.1229,-5.1229,-5.1229,-5.1229,-5.1229,-5.1079,-5.0794,-5.0375,-4.9927,-4.9494,-4.8596,-4.8147,-4.7908,-4.7459,-4.7309,-4.7249,-4.68,-4.6352,-4.5813,-4.4915,-4.4347,-4.3858,-4.3409,-4.329,-4.329,-4.329,-4.329,-4.323,-4.306,-4.2671,-4.2291,-4.1841,-4.0988,-4.0226,-3.9913,-3.9453,-3.9046,-3.8752,-3.8157,-3.7328,-3.6096,-3.5468,-3.507,-3.4894,-3.4765,-3.461,-3.4376,-3.3516,-3.2686,-3.2027,-3.1308,-3.0726,-3.0309,-2.9653,-2.9322,-2.941,-2.8864,-2.8507,-2.8384,-2.8265,-2.8202,-2.8237,-2.8017,-2.8123,-2.8552,-2.8342,-2.8342,-4.0726,-4.2512,-4.4067,-4.5903,-4.7339,-4.8386,-4.8805,-4.897,-4.882,-4.8327,-4.716,-4.5903,-4.4796,-4.4915,-4.5663,-4.707,-4.8177,-4.9359,-5.099,-5.0614,-5.0046,-4.9673,-4.9045,-4.8626,-4.8626,-4.906,0.0,-5.0136,-5.105,-5.2037,-5.3114,-5.3832,-5.4521,-5.5179,-5.4311,-5.3832,-5.3832,-5.2935,-5.2396,-5.2187,-5.2187,-5.1977,-5.1588,-5.2007,-5.1828,-5.1229,-5.1229,-5.1229,-5.1229,-5.1229,-5.1229,-5.1169,-5.0704,-5.0405,-5.0076,-4.9284,-4.8686,-4.8177,-4.7549,-4.7309,-4.7249,-4.68,-4.6531,-4.613,-4.5304,-4.4706,-4.4227,-4.3768,-4.3469,-4.329,-4.329,-4.329,-4.329,-4.329,-4.2921,-4.2563,-4.2324,-4.1275,-4.0359,-4.0054,-3.9417,-3.8686,-3.8136,-3.7465,-3.6589,-3.5321,-3.5024,-3.4727,-3.4225,-3.3928,-3.3791,-3.3791,-3.2932,-3.2234,-3.185,-3.1137,-3.0548,-3.0139,-2.9478,-2.9153,-2.9205,-2.8917,-2.8579,-2.8254,-2.8553,-2.8543,-2.8097,-2.8097,-2.8315,-2.8723,-2.8315,-2.8352,-4.2662,-4.3917,-4.5155,-4.7668,-4.8297,-4.8297,-4.8297,-4.8207,-4.7758,-4.6441,-4.5035,-4.3798,-4.311,-4.2102,-4.2611,-4.6471,-4.6711,-4.7549,-5.078,-5.0644,-5.0226,-5.0196,-4.9733,-4.9389,-4.9359,-4.9389,0.0,-5.0255,0.0,-5.2516,-5.3204,-5.3892,-5.4551,-5.5179,-5.3892,-5.3174,-5.3174,-5.1887,-5.1528,-5.2157,-5.2217,-5.2247,-5.2187,-5.2247,-5.1887,-5.1259,-5.1229,-5.1229,-5.1229,-5.1229,-5.1229,-5.1229,-5.1229,-5.0794,-5.0255,-5.0196,-4.9434,-4.8237,-4.7578,-4.7339,-4.7309,-4.7309,-4.689,-4.6339,-4.6279,-4.5424,-4.4407,-4.4347,-4.3828,-4.3319,-4.329,-4.329,-4.329,-4.325,-4.3061,-4.2723,-4.21,-4.1195,-4.0383,-3.99,-3.9073,-3.8165,-3.7281,-3.6521,-3.5708,-3.4826,-3.4848,-3.45,-3.3304,-3.2561,-3.2101,-3.211,-3.1378,-3.0895,-3.0895,-3.0351,-2.9991,-2.9991,-2.9444,-2.9132,-2.9106,-2.8511,-2.8172,-2.8147,-2.8172,-2.8197,-2.8197,-2.8197,-2.8197,-2.8197,-2.8197,-2.8197,-4.3748,-4.5992,-4.8101,-4.8237,-4.8297,-4.8297,-4.8297,-4.713,-4.5693,-4.4336,-4.2243,-4.0307,-3.914,-3.9858,-4.1474,-4.3917,-4.6292,0.0,-5.09,-5.1079,-5.0734,-5.0255,-5.0541,-5.0541,-5.0032,-5.0421,0.0,0.0,-5.2007,-5.2725,-5.3892,-5.4581,-5.5029,-5.5179,-5.3892,-5.3174,-5.3174,-5.1887,-5.1319,-5.1468,-5.2456,-5.2665,-5.2217,-5.2695,-5.2576,-5.1917,-5.1439,-5.1229,-5.1229,-5.1229,-5.1229,-5.1229,-5.1229,-5.1109,-5.0853,-5.0375,-4.9733,-4.897,-4.8267,-4.7728,-4.7309,-4.7309,-4.7189,-4.695,-4.6429,-4.604,-4.5562,-4.4586,-4.4197,-4.3958,-4.3409,-4.329,-4.3061,-4.2234,-4.1988,-4.1848,-4.1538,-4.0855,-4.0331,-4.0344,-3.8688,-3.7039,-3.6188,-3.5852,-3.5447,-3.4802,-3.4231,-3.3656,-3.3036,-3.2799,-3.2525,-3.2128,-3.1378,-3.0895,-3.0895,-3.0252,-2.9821,-2.9821,-2.9694,-2.9416,-2.8985,-2.924,-2.9176,-2.8687,-2.9151,-2.9352,-2.9352,-2.9352,-2.9352,-2.9352,-2.9352,-2.9352,-4.6082,-4.7638,-4.885,-4.8745,-4.8297,-4.7549,-4.6381,-4.5035,-4.3299,-4.0846,-3.8691,-3.6926,-3.5878,-3.7105,-3.917,-4.2013,-4.5005,-4.7878,-5.0375,-5.0973,-5.1199,-5.1109,-5.1439,-5.1618,-5.1528,-5.1858,-5.2366,0.0,-5.2815,-5.3084,-5.4162,-5.4551,-5.476,-5.476,-5.3443,-5.2606,-5.2336,-5.1588,-5.1229,-5.1229,-5.2546,-5.2845,-5.2217,-5.2875,-5.2815,-5.2157,0.0,-5.1229,-5.1229,-5.1229,-5.1229,-5.1229,-5.1229,-5.1229,-5.1169,-5.0764,-5.0242,-4.9583,-4.8955,-4.8297,-4.7698,-4.7399,-4.7309,-4.7249,-4.686,-4.6518,-4.613,-4.5382,-4.4766,-4.4105,-4.3201,-4.3068,-4.278,-4.1211,-4.1113,-4.1197,-4.0618,-3.9928,-3.9298,-3.8835,-3.7312,-3.5913,-3.5223,-3.5087,-3.4817,-3.4091,-3.3942,-3.3602,-3.2725,-3.2175,-3.1794,-3.1453,-3.0813,-3.0419,-3.0419,-3.0024,-2.9804,-2.9804,-2.9804,-2.9654,-2.9327,-2.9628,-2.9628,-2.9327,-2.9628,-2.9804,-2.9804,-2.9804,-2.9804,-2.9804,-2.9804,-2.9804,-4.855,-4.888,-4.8656,-4.9179,-4.8207,-4.6501,-4.3888,-4.2551,-4.0793,-3.7019,-3.507,-3.3903,-3.3335,-3.4412,-3.6656,-4.0606,-4.3449,-4.6352,-4.9717,-5.0764,-5.1468,-5.2127,-5.2366,-5.2695,-5.3264,-5.3324,-5.3593,-5.4281,-5.3713,-5.3593,-5.4192,-5.4221,-5.4132,-5.3952,-5.2815,-5.1887,-5.1229,-5.1229,-5.1229,-5.1229,-5.2546,-5.2875,-5.2336,-5.2905,-5.2875,-5.2276,0.0,0.0,-5.1229,-5.1229,-5.1229,-5.1229,-5.1229,-5.1229,-5.1229,-5.1229,-5.0764,-5.0106,-4.9583,-4.8925,-4.8177,-4.7519,-4.7309,-4.7309,-4.7309,-4.6847,-4.6356,-4.6309,-4.5359,-4.4045,-4.2892,-4.2665,-4.2228,-4.0173,-4.013,-4.0374,-3.9492,-3.8765,-3.7973,-3.6776,-3.5876,-3.5113,-3.4438,-3.4334,-3.404,-3.3222,-3.3725,-3.3756,-3.2475,-3.1461,-3.0809,-3.0733,-3.0231,-2.9905,-2.9905,-2.9829,-2.9804,-2.9804,-2.9804,-2.9804,-2.9804,-2.9804,-2.9804,-2.9804,-2.9804,-2.9804,-2.9804,-2.9854,-2.9854,-2.9804,-2.993,-2.9955,-4.8327,-4.9164,-4.9793,-4.9419,-4.7878,-4.5963,-4.3868,-4.1145,-3.8307,-3.5432,-3.3335,-3.1989,-3.1869,-3.3395,-3.5968,-3.9918,-4.2761,-4.5843,-4.9657,-5.0764,-5.1468,-5.2127,-5.3174,-5.3892,-5.4012,-5.4042,0.0,0.0,0.0,-5.4072,-5.4192,-5.4221,-5.3713,-5.2576,-5.2306,-5.1887,-5.1229,-5.1229,-5.1229,-5.1229,-5.2546,-5.3114,-5.3025,-5.3144,-5.3114,-5.2935,0.0,0.0,-5.1229,-5.1229,-5.1229,-5.1229,-5.1229,-5.1229,-5.1229,-5.1229,-5.0764,-5.0196,-5.0076,-4.9284,-4.8177,-4.7519,-4.7309,-4.7309,-4.7309,-4.7089,-4.6751,-4.6386,-4.5387,-4.4182,-4.2911,-4.2024,-4.0916,-3.889,-3.8514,-3.8514,-3.816,-3.822,-3.8044,-3.7069,-3.6341,-3.5426,-3.4172,-3.3965,-3.377,-3.3187,-3.324,-3.3258,-3.2986,-3.234,-3.1763,-3.1311,-3.0783,-3.0482,-3.0482,-3.0055,-2.9804,-2.9804,-2.9804,-2.9804,-2.9804,-2.9804,-2.9804,-2.9804,-2.9804,-2.9804,-2.9804,-3.0256,-3.0231,-2.9804,-3.0708,-3.0884,-4.9523,-4.9763,-4.9643,-4.9389,-4.7249,-4.4496,-4.1474,-3.8751,-3.5848,-3.2168,-3.0672,-2.9894,-2.9535,-3.136,-3.3903,-3.6836,-3.9529,-4.2851,-4.7505,-4.8432,-4.9673,-5.2396,-5.3294,-5.3952,-5.464,-5.473,-5.47,0.0,0.0,-5.4221,-5.4221,-5.3533,-5.2695,-5.1708,-5.1678,-5.1528,-5.1229,-5.1229,-5.1229,-5.1229,-5.2546,-5.3174,-5.3174,-5.3174,-5.3174,-5.3114,-5.1798,0.0,-5.1229,-5.1229,-5.1229,-5.1229,-5.1229,-5.1229,-5.1229,-5.1229,-5.102,-5.0644,-5.0315,-4.9613,-4.8686,-4.8027,-4.7578,-4.7309,-4.7309,-4.7222,-4.7046,-4.6705,-4.5581,-4.4145,-4.2777,-4.158,-4.0222,-3.8153,-3.7402,-3.7196,-3.7083,-3.7175,-3.7118,-3.6359,-3.5987,-3.5449,-3.4469,-3.4324,-3.4148,-3.3596,-3.3495,-3.3395,-3.3162,-3.2842,-3.2441,-3.1888,-3.1336,-3.1009,-3.1009,-3.0783,-3.0633,-3.0633,-3.0633,-3.0633,-3.0633,-3.0633,-3.0633,-3.0633,-3.0633,-3.0633,-3.0633,-3.0884,-3.0884,-3.0633,-3.116,-3.126,-5.0301,-5.0152,-4.9434,-4.9329,-4.677,-4.3269,-3.929,-3.6567,-3.3664,-2.9475,-2.8487,-2.8248,-2.7884,-2.9624,-3.1839,-3.4144,-3.6567,-3.9978,-4.5155,-4.6381,-4.8297,-5.2486,-5.3234,0.0,-5.5059,-5.5179,0.0,0.0,0.0,0.0,-5.3773,-5.2636,-5.1738,-5.1229,-5.1229,-5.1229,-5.1229,-5.1229,-5.1289,-5.1439,-5.2606,-5.3264,-5.3384,-5.3264,-5.3174,-5.3114,-5.1798,0.0,0.0,-5.1229,-5.1229,-5.1229,-5.1229,-5.1229,-5.1229,-5.1229,-5.1229,-5.1139,-5.0584,-4.9942,-4.9209,-4.87,-4.7967,-4.7309,-4.7309,-4.7106,-4.6844,-4.6638,-4.5296,-4.3617,-4.232,-4.099,-3.9481,-3.7515,-3.6732,-3.6405,-3.6405,-3.6405,-3.6279,-3.5805,-3.5683,-3.5508,-3.4956,-3.4856,-3.468,-3.4148,-3.3972,-3.3746,-3.3319,-3.3144,-3.2893,-3.2441,-3.1888,-3.1562,-3.1562,-3.1461,-3.1386,-3.1386,-3.1386,-3.1386,-3.1386,-3.1386,-3.1386,-3.1386,-3.1386,-3.1386,-3.1386,-3.1512,-3.1512,-3.1411,-3.1637,-3.1687,-4.912,-4.9793,-5.0002,-4.9404,-4.677,-4.3269,-3.929,-3.5489,-3.1988,-2.9175,-2.8124,-2.7854,-2.8397,-2.9205,-3.0819,-3.3994,-3.6178,-3.914,-4.3838,-4.6591,-4.9134,-5.1947,0.0,0.0,-5.5119,-5.5179,0.0,0.0,0.0,0.0,0.0,-5.1708,-5.1289,-5.1229,-5.1229,-5.1229,-5.1229,-5.1229,-5.1528,-5.2127,-5.2845,-5.3503,-5.4102,-5.3473,-5.3174,-5.3114,0.0,0.0,0.0,-5.1229,-5.1229,-5.1229,-5.1229,-5.1229,-5.1229,-5.1229,-5.1229,-5.1199,-5.1139,-5.0301,-4.9299,-4.9239,-4.8327,-4.7309,-4.7309,-4.6506,-4.5598,-4.5553,-4.3948,-4.1994,-4.1169,-3.9767,-3.8225,-3.6827,-3.6455,-3.6405,-3.6405,-3.6405,-3.638,-3.6355,-3.6329,-3.6107,-3.5508,-3.5433,-3.5232,-3.4726,-3.4223,-3.3872,-3.3822,-3.3395,-3.3068,-3.2993,-3.2491,-3.2139,-3.2139,-3.1687,-3.1386,-3.1386,-3.1386,-3.1386,-3.1386,-3.1386,-3.1386,-3.1386,-3.1386,-3.1386,-3.1386,-3.1888,-3.1888,-3.1411,-3.2441,-3.2641,-4.864,-4.9164,-4.9105,-4.9269,-4.6214,-4.2192,-3.8631,-3.507,-3.1659,-2.8607,-2.7794,-2.7675,-2.7944,-2.8214,-2.9202,-3.1689,-3.2437,-3.4592,-3.9978,-4.1654,-4.4347,-4.9793,-5.1259,0.0,0.0,0.0,0.0,0.0,0.0,0.0,0.0,-5.1798,-5.1229,-5.1229,-5.1229,-5.1229,-5.1229,-5.1229,-5.1558,-5.2217,-5.2875,-5.3533,-5.4192,-5.3503,-5.3174,-5.3114,0.0,0.0,0.0,-5.1229,-5.1229,-5.1229,-5.1229,-5.1229,-5.1229,-5.1229,-5.1229,-5.1229,-5.1229,-5.0361,-4.9299,-4.9299,-4.7881,-4.6166,-4.6166,-4.5389,-4.4442,-4.4116,-4.3026,-4.1834,-4.1229,-3.9638,-3.7961,-3.7084,-3.6656,-3.6405,-3.6405,-3.6405,-3.6405,-3.6405,-3.6405,-3.6329,-3.6081,-3.6031,-3.5855,-3.5257,-3.4981,-3.465,-3.3972,-3.3696,-3.3445,-3.3119,-3.2867,-3.2742,-3.2742,-3.2541,-3.239,-3.239,-3.239,-3.239,-3.239,-3.239,-3.239,-3.239,-3.239,-3.239,-3.239,-3.2616,-3.2616,-3.2416,-3.291,-3.2943,-4.7292,-4.7908,-4.7878,-4.8506,-4.5406,-4.1242,-3.7883,-3.4592,-3.133,-2.8244,-2.7585,-2.7585,-2.7585,-2.7585,-2.8124,-2.9684,-3.0223,-3.2168,-3.7135,-3.8661,-4.1474,-4.7399,0.0,-5.0601,0.0,0.0,0.0,0.0,0.0,0.0,0.0,-5.2007,-5.1498,-5.1498,-5.1498,-5.1409,-5.1229,-5.1588,-5.2037,-5.2486,-5.3174,-5.3743,-5.4192,-5.3503,-5.3084,-5.2815,0.0,0.0,0.0,-5.1229,-5.1229,-5.1229,-5.1229,-5.1229,-5.1229,-5.1229,-5.1229,-5.1229,-5.1229,-5.0219,-4.9008,-4.9224,-4.7124,-4.4528,-4.4776,-4.4116,-4.3266,-4.2786,-4.2035,-4.1193,-4.0687,-3.9243,-3.7864,-3.7312,-3.6807,-3.6405,-3.6405,-3.6405,-3.6405,-3.6405,-3.6405,-3.6405,-3.6405,-3.6405,-3.6279,-3.5855,-3.5608,-3.5232,-3.4474,-3.4248,-3.3997,-3.3596,-3.342,-3.3244,-3.3093,-3.3111,-3.3111,-3.3111,-3.3111,-3.3111,-3.3111,-3.3111,-3.3111,-3.3111,-3.3111,-3.3111,-3.3111,-3.3111,-3.3111,-3.3111,-3.3111,-3.3111,-4.4616,-4.5843,-4.6459,-4.716,-4.4347,-4.0546,-3.7255,-3.3933,-3.0763,-2.8154,-2.7585,-2.7585,-2.7585,-2.7585,-2.7824,-2.8517,-3.0791,-3.3425,-3.6118,-3.929,-4.2342,0.0,0.0,-4.8356,-5.102,0.0,0.0,0.0,0.0,0.0,0.0,-5.2187,-5.2187,-5.2187,-5.2187,-5.1887,-5.1229,-5.2516,-5.3174,-5.3174,-5.3862,-5.4192,-5.4192,-5.3503,-5.2815,0.0,0.0,0.0,0.0,-5.1229,-5.1229,-5.1229,-5.1229,-5.1229,-5.1229,-5.1229,-5.1229,-5.1229,-5.1229,-4.9923,-4.8364,-4.907,-4.6168,-4.2581,-4.3287,-4.2834,-4.1985,-4.169,-4.0693,-3.9623,-3.907,-3.8442,-3.7864,-3.7312,-3.6807,-3.6405,-3.6405,-3.6405,-3.6405,-3.6405,-3.6405,-3.6405,-3.6405,-3.6405,-3.6405,-3.6405,-3.5881,-3.5483,-3.5483,-3.5006,-3.468,-3.4655,-3.4223,-3.3671,-3.3162,-3.3111,-3.3111,-3.3111,-3.3111,-3.3111,-3.3111,-3.3111,-3.3111,-3.3111,-3.3111,-3.3111,-3.3111,-3.3111,-3.3111,-3.3111,-3.3111,-3.3111,-4.0696,-4.1773,-4.2312,-4.2521,-4.0307,-3.7404,-3.4981,-3.2557,-3.0223,-2.8034,-2.7585,-2.7585,-2.7585,-2.7585,-2.8393,-3.0881,-3.1958,-3.3604,-3.6686,-3.92,0.0,-4.4915,-4.9284,-5.2516,0.0,0.0,0.0,0.0,0.0,0.0,0.0,-5.2935,-5.2007,-5.1528,-5.1977,-5.2097,-5.1887,-5.2755,-5.3414,-5.3892,-5.3623,-5.3743,-5.4162,-5.3025,0.0,0.0,0.0,0.0,0.0,-5.1229,-5.1229,-5.1229,-5.1229,-5.1229,-5.1229,-5.1229,-5.1229,-5.1182,-5.1011,-4.9703,-4.8173,-4.7804,-4.5302,-4.2356,-4.2244,-4.1518,-4.0693,-4.0592,-4.0185,-3.9647,-3.9471,-3.9019,-3.8442,-3.7889,-3.7337,-3.6883,-3.648,-3.6405,-3.6405,-3.6405,-3.6405,-3.6405,-3.6405,-3.6405,-3.6405,-3.6405,-3.6254,-3.5981,-3.5533,-3.5332,-3.5107,-3.4731,-3.4575,-3.4248,-3.3696,-3.3294,-3.3111,-3.3111,-3.3111,-3.3111,-3.3111,-3.3111,-3.3111,-3.3111,-3.3111,-3.3111,-3.3111,-3.3111,-3.3269,-3.3646,-3.4022,-3.4198,-3.7195,-3.8422,-3.905,-3.9529,-3.7674,-3.528,-3.3514,-3.1599,-2.9654,-2.7944,-2.7585,-2.7585,-2.7585,-2.7585,-2.8274,-3.0313,-3.148,-3.3095,-3.5908,-3.8452,0.0,-4.5244,0.0,0.0,0.0,0.0,0.0,0.0,0.0,0.0,0.0,0.0,-5.2276,-5.1618,-5.2217,-5.2456,-5.2187,-5.3354,-5.3892,-5.3832,-5.3653,-5.3533,-5.3414,-5.2576,0.0,0.0,0.0,0.0,0.0,-5.1229,-5.1229,-5.1229,-5.1229,-5.1229,-5.1152,-5.0775,-5.087,-5.1105,-5.0412,-4.9126,-4.768,-4.7147,-4.4774,-4.1966,-4.1149,-4.0465,-3.9929,-3.9929,-3.9826,-3.9697,-3.9697,-3.927,-3.8718,-3.814,-3.7588,-3.7036,-3.6531,-3.6405,-3.6405,-3.6405,-3.6405,-3.6405,-3.6405,-3.6405,-3.6405,-3.6405,-3.6405,-3.6279,-3.5906,-3.5855,-3.573,-3.5378,-3.5152,-3.4856,-3.455,-3.4022,-3.3696,-3.3696,-3.3696,-3.3696,-3.3696,-3.3696,-3.3696,-3.3696,-3.3696,-3.3696,-3.3696,-3.3696,-3.3872,-3.4223,-3.453,-3.468,0.0,-3.5519,-3.6327,-3.7464,-3.5971,-3.3784,-3.2527,-3.0821,0.0,-2.7854,-2.7585,-2.7615,-2.7735,-2.7645,-2.7705,-2.8034,-3.0133,-3.2407,-3.4503,-3.7734,0.0,0.0,-4.894,0.0,0.0,0.0,0.0,0.0,0.0,0.0,0.0,0.0,-5.2905,-5.2276,-5.2815,-5.2845,-5.2276,-5.4162,-5.4491,-5.3264,-5.3803,-5.3414,-5.2187,-5.2157,0.0,0.0,0.0,0.0,0.0,-5.1229,-5.1229,-5.1229,-5.1229,-5.1229,-5.1058,-5.0028,-5.022,-5.087,-4.9611,-4.8217,-4.6901,-4.6679,-4.4255,-4.1219,-4.0083,-3.9697,-3.9697,-3.9697,-3.9697,-3.9697,-3.9697,-3.932,-3.8844,-3.8216,-3.7638,-3.7086,-3.6581,-3.6455,-3.6455,-3.6455,-3.6455,-3.6455,-3.6455,-3.643,-3.6405,-3.6405,-3.6405,-3.6405,-3.6405,-3.6405,-3.6405,-3.6405,-3.5906,-3.5558,-3.5558,-3.5006,-3.468,-3.468,-3.468,-3.468,-3.468,-3.468,-3.468,-3.468,-3.468,-3.468,-3.468,-3.4731,-3.4776,-3.4776,-3.4781,-3.4826,-2.9834,0.0,-3.1869,-3.1689,-3.1209,-3.0522,0.0,-2.9175,-2.8577,-2.7764,-2.7585,-2.7914,-2.8933,-2.8304,-2.8753,-3.2317,-3.3365,-3.4651,-3.7135,-4.1654,0.0,-5.0331,-5.2276,0.0,0.0,0.0,0.0,0.0,0.0,0.0,0.0,0.0,-5.3114,-5.2965,-5.2606,-5.2606,-5.2935,-5.3952,-5.4281,-5.3952,-5.3084,-5.2516,-5.2187,-5.1678,0.0,0.0,0.0,0.0,-5.1229,-5.1229,-5.1229,-5.1229,-5.1229,-5.1229,-5.1058,-5.0028,-4.9659,-4.963,-4.9092,-4.7378,-4.5156,-4.3258,-4.1518,-4.0083,-3.98,-3.9697,-3.9697,-3.9697,-3.9697,-3.9697,-3.9697,-3.9597,-3.9371,-3.8793,-3.8241,-3.7663,-3.7111,-3.6985,-3.6985,-3.6985,-3.6985,-3.6985,-3.6985,-3.6681,-3.6405,-3.6405,-3.6405,-3.6405,-3.6405,-3.6405,-3.6405,-3.6405,-3.6279,-3.6182,-3.6182,-3.5278,-3.468,-3.468,-3.468,-3.468,-3.468,-3.468,-3.468,-3.468,-3.468,-3.468,-3.468,-3.5107,-3.5307,-3.5307,-3.578,-3.5755,-2.8064,-2.9295,-3.0492,-3.0492,-3.0253,-2.9924,-2.9564,-2.8786,-2.8034,-2.7675,-2.7585,-2.7914,-2.8936,-2.8813,-2.9532,-3.2617,-3.3873,-3.5971,0.0,0.0,-4.8476,-5.1798,0.0,0.0,0.0,0.0,0.0,0.0,0.0,0.0,0.0,0.0,-5.2725,-5.2725,-5.2396,-5.2366,-5.2725,-5.3414,-5.3593,-5.3264,-5.2546,-5.2037,-5.1738,-5.1379,0.0,0.0,0.0,0.0,-5.1229,-5.1229,-5.1229,-5.1229,-5.1229,-5.1229,-5.1011,-4.9464,-4.9042,-4.9014,-4.7712,-4.6025,-4.4095,-4.1957,-4.0752,-4.0023,-3.9772,-3.9697,-3.9697,-3.9697,-3.9697,-3.9697,-3.9697,-3.9697,-3.9546,-3.9045,-3.8617,-3.8241,-3.7688,-3.7563,-3.7563,-3.7563,-3.7563,-3.7487,-3.7236,-3.6935,-3.6782,-3.6782,-3.6581,-3.6505,-3.6757,-3.6556,-3.6405,-3.6405,-3.6405,-3.6405,-3.6405,-3.5805,-3.5479,-3.5479,-3.5479,-3.5479,-3.5479,-3.5479,-3.5479,-3.5479,-3.5479,-3.5353,-3.5056,-3.5357,-3.5357,-3.5132,-3.5479,-3.5454,-2.7974,-2.9385,-3.0821,-3.0883,-3.0642,-3.0313,-3.0103,-2.8783,-2.7585,-2.7585,-2.7675,-2.8034,-2.8876,-2.9594,-3.0552,-3.2138,-3.4173,0.0,-4.318,-4.6471,-4.9284,-5.2037,0.0,0.0,0.0,0.0,0.0,0.0,0.0,0.0,0.0,0.0,0.0,-5.2187,-5.2097,-5.2067,-5.2067,-5.2695,-5.2755,-5.2187,-5.2097,-5.1768,-5.1229,-5.1229,0.0,0.0,0.0,0.0,-5.1229,-5.1229,-5.1229,-5.1229,-5.1229,-5.1229,-5.0917,-4.8717,-4.8318,-4.8539,-4.6005,-4.4545,-4.3543,-4.1856,-4.0924,-4.04,-3.9848,-3.9697,-3.9697,-3.9697,-3.9697,-3.9697,-3.9697,-3.9697,-3.9572,-3.912,-3.8969,-3.8793,-3.8241,-3.814,-3.814,-3.814,-3.814,-3.7965,-3.7412,-3.7312,-3.7287,-3.7186,-3.6908,-3.6807,-3.7136,-3.6832,-3.6531,-3.6531,-3.6455,-3.643,-3.6531,-3.6455,-3.6405,-3.6405,-3.6329,-3.6254,-3.6153,-3.6153,-3.6153,-3.6153,-3.6153,-3.5881,-3.5382,-3.5382,-3.5132,-3.468,-3.468,-3.468,-2.9594,-3.112,-3.1569,-2.8873,-2.8992,-2.9442,-2.8304,-2.7794,-2.7585,-2.7585,-2.8064,-2.8996,-3.0733,-3.16,-3.3036,-3.6028,-3.8661,-4.1803,0.0,0.0,-4.9464,0.0,0.0,0.0,0.0,0.0,0.0,0.0,0.0,0.0,0.0,0.0,0.0,-5.2187,-5.1648,-5.1379,-5.1379,-5.2007,-5.2306,-5.2187,-5.1618,-5.1319,-5.1229,-5.1229,-5.1229,0.0,0.0,-5.1229,-5.1229,-5.1229,-5.1229,-5.1229,-5.1229,-5.1229,-5.0917,-4.8489,-4.7503,-4.7043,-4.4318,-4.3547,-4.3543,-4.1856,-4.0924,-4.04,-3.9848,-3.9697,-3.9697,-3.9697,-3.9697,-3.9697,-3.9697,-3.9697,-3.9672,-3.9597,-3.922,-3.8894,-3.8768,-3.8743,-3.8743,-3.8743,-3.8743,-3.8542,-3.799,-3.7889,-3.7713,-3.7262,-3.7513,-3.7613,-3.7236,-3.7111,-3.7061,-3.7061,-3.6681,-3.6606,-3.701,-3.6681,-3.6405,-3.6405,-3.5931,-3.5408,-3.5002,-3.4977,-3.4977,-3.4977,-3.4977,-3.4926,-3.4806,-3.4806,-3.4756,-3.468,-3.468,-3.468,-2.8693,-2.9894,-3.0642,-2.9445,-3.0971,-3.2527,-3.1568,-3.079,-3.0253,-3.0253,-3.0223,-3.0644,-3.2258,-3.3425,-3.5429,-3.9439,-4.2013,-4.4526,-4.7429,-4.8716,0.0,0.0,0.0,0.0,0.0,0.0,0.0,0.0,0.0,0.0,0.0,0.0,0.0,0.0,-5.1379,-5.1229,-5.1229,-5.1528,-5.1678,-5.1678,-5.1379,-5.1229,-5.1229,-5.1229,-5.1229,-5.1229,0.0,-5.1229,-5.1229,-5.1229,-5.087,-5.0316,-5.0316,-4.9902,-4.8964,-4.6888,-4.5714,-4.4887,-4.3492,-4.3174,-4.3172,-4.2095,-4.1404,-4.0799,-4.03,-3.9923,-3.9697,-3.9697,-3.9697,-3.9697,-3.9697,-3.9697,-3.9697,-3.9697,-3.9496,-3.932,-3.932,-3.932,-3.932,-3.932,-3.932,-3.9145,-3.8567,-3.8467,-3.8291,-3.7713,-3.7588,-3.7462,-3.7211,-3.6983,-3.6908,-3.7161,-3.7008,-3.7036,-3.7588,-3.7387,-3.6985,-3.6455,-3.6132,-3.5881,-3.5629,-3.5604,-3.5604,-3.5604,-3.5604,-3.5454,-3.5132,-3.5132,-3.4956,-3.468,-3.468,-3.468,-2.8124,-2.8933,-2.9861,-3.0941,-3.2796,-3.4352,-3.4474,-3.3574,-3.2826,-3.3155,-3.3035,-3.3155,-3.4053,-3.5789,-3.8482,-4.265,-4.4825,-4.6651,-4.8476,0.0,0.0,0.0,0.0,0.0,0.0,0.0,0.0,0.0,0.0,0.0,0.0,0.0,0.0,0.0,-5.1229,-5.1229,-5.1229,-5.1229,-5.1229,-5.1229,-5.1229,-5.1229,-5.1229,-5.1229,-5.1229,-5.1229,-5.1229,-5.1058,-5.0822,-5.0822,-5.022,-4.9219,-4.9219,-4.8318,-4.6864,-4.5502,-4.4264,-4.3295,-4.3073,-4.2986,-4.2886,-4.2389,-4.1882,-4.1404,-4.0727,-4.0224,-3.9848,-3.9722,-3.9697,-3.9697,-3.9697,-3.9697,-3.9697,-3.9697,-3.9697,-3.9697,-3.9697,-3.9697,-3.9697,-3.9697,-3.9697,-3.9521,-3.8969,-3.8969,-3.8868,-3.8291,-3.7965,-3.7688,-3.7412,-3.701,-3.6908,-3.7161,-3.7061,-3.7211,-3.7764,-3.7814,-3.7462,-3.6656,-3.648,-3.6304,-3.5981,-3.5981,-3.5981,-3.5981,-3.5981,-3.578,-3.5307,-3.5307,-3.5082,-3.468,-3.468,-3.4801,-2.9624,-2.9953,-3.0191,-3.2677,-3.2048,-3.1509,-3.3964,-3.3933,-3.3784,-3.504,-3.6207,-3.6836,-3.6357,-3.9385,-4.283,-4.5574,-4.7189,-4.8536,0.0,0.0,0.0,0.0,0.0,0.0,0.0,0.0,0.0,0.0,0.0,0.0,0.0,0.0,0.0,0.0,0.0,-5.1229,-5.1229,-5.1229,-5.1229,-5.1229,-5.1229,-5.1229,-5.1229,-5.1229,-5.1229,-5.1229,-5.1229,-5.0632,-4.9737,-4.9737,-4.9092,-4.8117,-4.8117,-4.7098,-4.5608,-4.5155,-4.418,-4.3042,-4.3042,-4.2986,-4.2886,-4.2389,-4.2187,-4.1961,-4.0827,-4.0501,-4.035,-3.9848,-3.9697,-3.9697,-3.9697,-3.9697,-3.9697,-3.9697,-3.9697,-3.9697,-3.9697,-3.9697,-3.9697,-3.9697,-3.9697,-3.9521,-3.8969,-3.9295,-3.9446,-3.8944,-3.922,-3.9145,-3.809,-3.7914,-3.7713,-3.7236,-3.6782,-3.6681,-3.7186,-3.7236,-3.7211,-3.7136,-3.6681,-3.5952,-3.4876,-3.4851,-3.4851,-3.4851,-3.4851,-3.4781,-3.4776,-3.4776,-3.4731,-3.468,-3.468,-3.4956,-2.8308,-2.9142,-3.025,-3.2856,-3.3215,-3.3664,-3.6297,-3.7674,-3.8781,-4.0127,-4.0457,-4.0464,-4.0224,-4.2013,-4.4317,-4.6561,-4.8027,0.0,0.0,0.0,0.0,0.0,0.0,0.0,0.0,0.0,0.0,0.0,0.0,0.0,0.0,0.0,0.0,0.0,0.0,-5.1229,-5.1229,-5.1229,-5.1229,-5.1229,-5.1229,-5.1229,-5.1229,-5.1229,-5.1229,-5.1229,-5.1229,-5.0585,-4.9611,-4.9611,-4.8546,-4.6919,-4.5847,-4.5073,-4.445,-4.3932,-4.3436,-4.2986,-4.2986,-4.2986,-4.2936,-4.2791,-4.2489,-4.2137,-4.1656,-4.1053,-4.0475,-4.0249,-3.9948,-3.9697,-3.9697,-3.9697,-3.9697,-3.9697,-3.9697,-3.9697,-3.9697,-3.9697,-3.9697,-3.9697,-3.9697,-3.9622,-3.9421,-3.9546,-3.9496,-3.8994,-3.9044,-3.8894,-3.8115,-3.8015,-3.8065,-3.8216,-3.8089,-3.7864,-3.7713,-3.7688,-3.7538,-3.7211,-3.6707,-3.6229,-3.5755,-3.573,-3.573,-3.573,-3.573,-3.573,-3.573,-3.573,-3.573,-3.573,-3.573,-3.5855,-2.7465,-2.8423,-2.9894,-3.2527,-3.3993,-3.5609,-3.8631,-4.0576,-4.2192,-4.3958,-4.3599,-4.3159,-4.3539,-4.3988,-4.5035,0.0,-4.8536,0.0,0.0,0.0,0.0,0.0,0.0,0.0,0.0,0.0,0.0,0.0,0.0,0.0,0.0,0.0,0.0,0.0,0.0,0.0,-5.1229,-5.1229,-5.1229,-5.1229,-5.087,-5.087,-5.1229,-5.1229,-5.1229,-5.1182,-5.0822,-5.0124,-4.9042,-4.8745,-4.7485,-4.5715,-4.4422,-4.3899,-4.3844,-4.3209,-4.2986,-4.2986,-4.2986,-4.2986,-4.2986,-4.2986,-4.2766,-4.2414,-4.2007,-4.1379,-4.0701,-4.035,-3.9973,-3.9697,-3.9697,-3.9697,-3.9697,-3.9697,-3.9697,-3.9697,-3.9697,-3.9697,-3.9697,-3.9697,-3.9697,-3.9697,-3.9697,-3.9697,-3.9572,-3.9195,-3.912,-3.8919,-3.8341,-3.8291,-3.8366,-3.8567,-3.8818,-3.8642,-3.8065,-3.8015,-3.7764,-3.7211,-3.6707,-3.6405,-3.6405,-3.6405,-3.6405,-3.6405,-3.6405,-3.6405,-3.6405,-3.6405,-3.6405,-3.6405,-3.6405,-3.6405,-2.7585,-2.8124,-2.9265,-3.1898,-3.4053,-3.6596,-4.0516,-4.1953,-4.318,-4.5771,-4.5304,-4.4766,-4.6082,-4.5244,-4.5214,-4.7848,0.0,0.0,0.0,0.0,0.0,0.0,0.0,0.0,0.0,0.0,0.0,0.0,0.0,0.0,0.0,0.0,0.0,0.0,0.0,0.0,-5.1182,-5.1182,-5.1182,-5.1182,-5.0076,-5.0172,-5.1182,-5.1182,-5.1182,-5.1105,-5.0076,-4.8944,-4.7864,-4.6816,-4.5715,-4.4613,-4.4094,-4.3899,-4.3844,-4.3209,-4.2986,-4.2986,-4.2986,-4.2986,-4.2986,-4.2986,-4.2986,-4.276,-4.1681,-4.1275,-4.105,-4.0023,-3.9697,-3.9697,-3.9697,-3.9697,-3.9697,-3.9697,-3.9697,-3.9697,-3.9697,-3.9697,-3.9697,-3.9697,-3.9697,-3.9697,-3.9697,-3.9697,-3.9697,-3.9697,-3.9697,-3.9496,-3.8994,-3.8919,-3.8668,-3.8065,-3.8517,-3.8642,-3.8065,-3.8015,-3.7764,-3.7236,-3.6732,-3.6405,-3.6405,-3.6405,-3.6405,-3.6405,-3.6405,-3.6405,-3.6405,-3.6405,-3.6405,-3.6405,-3.6405,-3.6405,-2.7585,-2.9415,-3.1779,-3.3455,-3.6776,-4.0427,-4.3449,-4.4676,-4.5861,-4.8492,-4.8386,-4.7638,-4.71,-4.707,0.0,0.0,0.0,0.0,0.0,0.0,0.0,0.0,0.0,0.0,0.0,0.0,0.0,0.0,0.0,0.0,0.0,0.0,0.0,0.0,0.0,0.0,-5.0076,-5.0076,-4.9708,-4.8944,-4.8646,-4.9042,-5.0076,-4.9288,-4.8944,-4.8944,-4.8596,-4.7712,-4.6424,-4.5395,-4.4722,-4.4367,-4.4064,-4.3764,-4.3517,-4.3154,-4.2986,-4.2986,-4.2986,-4.2986,-4.2986,-4.2986,-4.2986,-4.2836,-4.2133,-4.1656,-4.115,-4.0475,-3.9998,-3.9697,-3.9697,-3.9697,-3.9697,-3.9697,-3.9697,-3.9697,-3.9697,-3.9697,-3.9697,-3.9697,-3.9697,-3.9697,-3.9697,-3.9697,-3.9697,-3.9697,-3.9697,-3.9647,-3.9471,-3.9446,-3.9245,-3.8668,-3.8768,-3.8642,-3.8065,-3.8015,-3.7939,-3.7764,-3.7236,-3.6807,-3.643,-3.6405,-3.6405,-3.6405,-3.6405,-3.6405,-3.6405,-3.6405,-3.6405,-3.6405,-3.6405,-3.6405,-2.8693,-3.0971,-3.3724,-3.5612,-3.8577,-4.1953,-4.5633,-4.7219,-4.8342,-5.0196,-4.9912,-4.9105,-4.8566,-4.8356,0.0,0.0,0.0,0.0,0.0,0.0,0.0,0.0,0.0,0.0,0.0,0.0,0.0,0.0,0.0,0.0,0.0,0.0,0.0,0.0,0.0,0.0,-4.8944,-4.8944,-4.8646,-4.7965,-4.7587,-4.7689,-4.8296,-4.8094,-4.8016,-4.7965,-4.7406,-4.6424,-4.5208,-4.445,-4.4148,-4.4094,-4.3819,-4.3572,-4.3406,-4.3073,-4.2986,-4.2986,-4.2986,-4.2986,-4.2986,-4.2986,-4.2891,-4.2615,-4.2007,-4.1455,-4.0902,-4.035,-3.9948,-3.9697,-3.9697,-3.9697,-3.9697,-3.9697,-3.9697,-3.9697,-3.9697,-3.9697,-3.9697,-3.9697,-3.9697,-3.9697,-3.9697,-3.9697,-3.9697,-3.9697,-3.9697,-3.9697,-3.9697,-3.9697,-3.9572,-3.922,-3.9195,-3.8969,-3.8391,-3.8341,-3.8241,-3.8015,-3.7688,-3.7362,-3.7036,-3.6631,-3.6405,-3.6405,-3.6405,-3.6405,-3.6405,-3.6405,-3.6405,-3.6405,-3.6405,-3.6405,-3.0342,-3.2527,-3.5312,-3.7853,-3.9725,-4.2216,-4.7032,-4.9102,-5.0249,-5.1033,-5.0226,-4.9522,-5.0106,-4.9314,0.0,0.0,0.0,0.0,0.0,0.0,0.0,0.0,0.0,0.0,0.0,0.0,0.0,0.0,0.0,0.0,0.0,0.0,0.0,0.0,0.0,0.0,-4.7696,-4.7696,-4.7645,0.0,-4.6575,-4.6106,-4.6106,-4.7225,-4.7712,-4.761,-4.6267,-4.5154,-4.4258,-4.401,-4.3844,-4.3844,-4.3517,-4.3381,-4.3351,-4.3073,-4.2986,-4.2986,-4.2986,-4.2986,-4.2986,-4.2986,-4.2665,-4.2112,-4.1505,-4.0953,-4.04,-3.9848,-3.9697,-3.9697,-3.9697,-3.9697,-3.9697,-3.9697,-3.9697,-3.9697,-3.9697,-3.9697,-3.9697,-3.9697,-3.9697,-3.9697,-3.9697,-3.9697,-3.9697,-3.9697,-3.9697,-3.9697,-3.9697,-3.9697,-3.9697,-3.9697,-3.9697,-3.9496,-3.8994,-3.8994,-3.8718,-3.8191,-3.8115,-3.809,-3.809,-3.7061,-3.6556,-3.6556,-3.6556,-3.6556,-3.6556,-3.6556,-3.6556,-3.6556,-3.6556,-3.6556,-3.0342,-3.3215,-3.6567,-3.8661,-4.2286,-4.5547,-4.6414,-4.7535,-4.8968,-5.084,-5.0301,-4.9644,-5.0117,-5.0421,0.0,0.0,0.0,0.0,0.0,0.0,0.0,0.0,0.0,0.0,0.0,0.0,0.0,0.0,0.0,0.0,0.0,0.0,0.0,0.0,0.0,-4.6889,-4.534,-4.534,-4.4912,0.0,-4.3833,-4.3729,-4.3782,-4.4917,-4.5395,-4.5395,-4.4668,-4.4313,-4.4258,-4.3738,-4.3517,-4.3517,-4.3462,-4.3295,-4.3073,-4.3042,-4.2986,-4.2986,-4.2986,-4.2986,-4.2986,-4.2986,-4.2665,-4.2112,-4.1505,-4.0953,-4.04,-3.9848,-3.9697,-3.9697,-3.9697,-3.9697,-3.9697,-3.9697,-3.9697,-3.9697,-3.9697,-3.9697,-3.9697,-3.9697,-3.9697,-3.9697,-3.9697,-3.9697,-3.9697,-3.9697,-3.9697,-3.9697,-3.9697,-3.9697,-3.9697,-3.9697,-3.9697,-3.9647,-3.9521,-3.9521,-3.9471,-3.9346,-3.8919,-3.8743,-3.8743,-3.8015,-3.7663,-3.7663,-3.7663,-3.7663,-3.7663,-3.7663,-3.7663,-3.7663,-3.7663,-3.7663,-3.0552,-3.3694,-3.7345,-4.0876,-4.4255,-4.6894,-4.7503,-4.7214,-4.7477,-4.994,-4.9979,-4.9669,-4.9875,0.0,0.0,0.0,0.0,0.0,0.0,0.0,0.0,0.0,0.0,0.0,0.0,0.0,0.0,0.0,0.0,0.0,0.0,0.0,0.0,0.0,-4.5924,-4.5235,-4.3848,-4.3848,-4.3699,-4.3415,-4.3154,-4.3023,-4.3049,-4.365,-4.3805,-4.3698,-4.3499,-4.3464,-4.3489,-4.3305,-4.3184,-4.3184,-4.3184,-4.3129,-4.2986,-4.2986,-4.2986,-4.2986,-4.2986,-4.2986,-4.2986,-4.2986,-4.2434,-4.1706,-4.1376,-4.0953,-4.045,-4.0174,-4.0099,-4.0099,-4.0099,-3.9898,-3.9697,-3.9697,-3.9697,-3.9697,-3.9697,-3.9697,-3.9697,-3.9697,-3.9697,-3.9697,-3.9697,-3.9697,-3.9697,-3.9697,-3.9697,-3.9697,-3.9697,-3.9697,-3.9697,-3.9697,-3.9697,-3.9697,-3.9697,-3.9697,-3.9697,-3.9697,-3.9421,-3.927,-3.927,-3.8969,-3.8567,-3.8015,-3.8015,-3.8015,-3.8015,-3.8015,-3.8015,-3.8015,-3.8015,-3.8015,-3.0374,-3.3844,-3.7998,-4.2832,-4.5345,-4.6932,-4.808,-4.6914,-4.6114,-4.807,-4.8751,-4.9141,0.0,0.0,0.0,0.0,0.0,0.0,0.0,0.0,0.0,0.0,0.0,0.0,0.0,0.0,0.0,0.0,0.0,0.0,0.0,0.0,-4.5277,-4.4219,-4.4169,-4.3686,-4.2735,-4.2735,-4.2971,-4.3415,-4.2944,-4.2788,-4.2866,-4.2762,-4.2658,-4.2604,-4.2776,-4.2713,-4.2439,-4.262,-4.276,-4.2836,-4.2836,-4.2886,-4.2986,-4.2986,-4.2986,-4.2986,-4.2986,-4.2986,-4.2986,-4.2986,-4.2308,-4.148,-4.148,-4.105,-4.0651,-4.0651,-4.0651,-4.0651,-4.0651,-4.0249,-3.9848,-3.9848,-3.9772,-3.9697,-3.9697,-3.9697,-3.9697,-3.9697,-3.9697,-3.9697,-3.9697,-3.9697,-3.9697,-3.9697,-3.9697,-3.9697,-3.9697,-3.9697,-3.9697,-3.9697,-3.9697,-3.9697,-3.9697,-3.9697,-3.9697,-3.9697,-3.9697,-3.9697,-3.9697,-3.9697,-3.9245,-3.8316,-3.8291,-3.8291,-3.8291,-3.8291,-3.8291,-3.8291,-3.8291,-3.8291,-2.8727,-3.3455,-3.893,-4.2193,-4.4443,-4.5597,-4.4664,-4.5198,-4.5542,-4.4164,-4.5461,0.0,0.0,0.0,0.0,0.0,0.0,0.0,0.0,0.0,0.0,0.0,0.0,0.0,0.0,0.0,0.0,0.0,0.0,0.0,0.0,-4.395,-4.3174,-4.2547,-4.252,-4.2182,-4.1559,-4.1533,-4.1585,-4.1664,-4.1585,-4.1794,-4.2265,-4.1768,-4.1929,-4.2578,-4.2418,-4.2151,-4.1884,-4.1638,-4.1831,-4.2313,-4.2313,-4.2615,-4.2986,-4.2986,-4.2986,-4.2986,-4.2986,-4.2986,-4.2986,-4.2986,-4.2559,-4.2112,-4.2112,-4.1656,-4.1175,-4.1175,-4.1175,-4.1175,-4.1175,-4.0827,-4.04,-4.04,-4.0049,-3.9697,-3.9697,-3.9697,-3.9697,-3.9697,-3.9697,-3.9697,-3.9697,-3.9697,-3.9697,-3.9697,-3.9697,-3.9697,-3.9697,-3.9697,-3.9697,-3.9697,-3.9697,-3.9697,-3.9697,-3.9697,-3.9697,-3.9697,-3.9697,-3.9697,-3.9697,-3.9697,-3.9622,-3.9471,-3.9471,-3.9471,-3.9471,-3.9471,-3.9471,-3.9471,-3.9471,-3.9471,-3.0287,-3.4184,-3.7996,-4.1494,-4.3142,-4.401,-4.4057,-4.4415,-4.4573,-4.4023,-4.4197,0.0,0.0,0.0,0.0,0.0,0.0,0.0,0.0,0.0,0.0,0.0,0.0,0.0,0.0,0.0,0.0,0.0,0.0,0.0,-4.2761,-4.2284,-4.1951,-4.169,-4.169,0.0,-4.1324,-4.1324,-4.1324,-4.1324,-4.1638,-4.1768,-4.169,-4.1428,-4.1333,-4.1467,-4.162,-4.1459,-4.1062,-4.1229,-4.148,-4.1706,-4.1706,-4.2032,-4.2564,-4.2564,-4.271,-4.2986,-4.2986,-4.2986,-4.2986,-4.2986,-4.2665,-4.2213,-4.2213,-4.2037,-4.1781,-4.1781,-4.1781,-4.1781,-4.1781,-4.1379,-4.0924,-4.0924,-4.0802,-4.0626,-4.0626,-4.0124,-3.9697,-3.9697,-3.9697,-3.9697,-3.9697,-3.9697,-3.9697,-3.9697,-3.9697,-3.9697,-3.9697,-3.9697,-3.9697,-3.9697,-3.9697,-3.9697,-3.9697,-3.9697,-3.9697,-3.9697,-3.9697,-3.9697,-3.9697,-3.9697,-3.9697,-3.9697,-3.9697,-3.9697,-3.9697,-3.9697,-3.9697,-3.9697,-3.9697,-3.9697,-3.0364,-3.315,-3.5491,-3.9516,-4.1125,-4.2012,-4.3258,-4.3606,-4.3661,0.0,0.0,0.0,0.0,0.0,0.0,0.0,0.0,0.0,0.0,0.0,0.0,0.0,0.0,0.0,0.0,0.0,0.0,0.0,0.0,0.0,-4.1374,-4.1324,-4.1324,-4.1324,-4.1324,-4.1324,-4.1324,-4.1324,-4.1402,-4.1533,-4.1821,-4.1794,-4.1533,-4.1376,-4.1023,-4.0517,-4.0901,-4.0769,-4.035,-4.0752,-4.0949,-4.1075,-4.1075,-4.1455,-4.1957,-4.2162,-4.2464,-4.2841,-4.2936,-4.2986,-4.2986,-4.2986,-4.2766,-4.2414,-4.2414,-4.2414,-4.2414,-4.2414,-4.2414,-4.2414,-4.2414,-4.1957,-4.1555,-4.1555,-4.1376,-4.1275,-4.1275,-4.0701,-4.0124,-4.0124,-3.9998,-3.9898,-3.9898,-3.9798,-3.9697,-3.9697,-3.9697,-3.9697,-3.9697,-3.9697,-3.9697,-3.9697,-3.9697,-3.9697,-3.9697,-3.9697,-3.9697,-3.9697,-3.9697,-3.9697,-3.9697,-3.9697,-3.9697,-3.9697,-3.9697,-3.9697,-3.9697,-3.9697,-3.9697,-3.9697,-3.9697,-3.9697,-2.6623,-2.8627,-3.0935,-3.5487,-3.7912,-3.955,-4.0932,-4.238,-4.3036,0.0,0.0,0.0,0.0,0.0,0.0,0.0,0.0,0.0,0.0,0.0,0.0,0.0,0.0,0.0,0.0,0.0,0.0,0.0,0.0,0.0,-4.1324,-4.1324,-4.1324,-4.1324,-4.1324,-4.1324,-4.1324,-4.1324,-4.1585,-4.2159,-4.1611,-4.1638,-4.2159,-4.1559,-4.1023,-4.0517,-4.0542,-4.0236,-3.9747,-3.9772,-4.0099,-4.0551,-4.0551,-4.0902,-4.1401,-4.1957,-4.2238,-4.2313,-4.2785,-4.2986,-4.2986,-4.2986,-4.2961,-4.2936,-4.2936,-4.2936,-4.2936,-4.2936,-4.2936,-4.2936,-4.2936,-4.259,-4.2162,-4.2162,-4.1731,-4.1275,-4.1275,-4.125,-4.12,-4.12,-4.0827,-4.0475,-4.0475,-4.0049,-3.9697,-3.9697,-3.9697,-3.9697,-3.9697,-3.9697,-3.9697,-3.9697,-3.9697,-3.9697,-3.9697,-3.9697,-3.9697,-3.9697,-3.9697,-3.9697,-3.9697,-3.9697,-3.9697,-3.9697,-3.9697,-3.9697,-3.9697,-3.9697,-3.9697,-3.9697,-3.9697,-3.9697,-2.5351,-2.7059,-2.8962,-3.1841,-3.4556,-3.6548,-3.6759,-3.9149,-4.1104,0.0,0.0,0.0,0.0,0.0,0.0,0.0,0.0,0.0,0.0,0.0,0.0,0.0,0.0,0.0,0.0,0.0,0.0,0.0,0.0,0.0,-4.1324,-4.1324,-4.1324,-4.1324,-4.1324,-4.1324,-4.1324,-4.1324,-4.1428,-4.1611,-4.1402,-4.1302,-4.1333,-4.1125,-4.0744,-4.0236,-4.0236,-4.0032,-3.9697,-3.9697,-3.9798,-3.9998,-3.9998,-4.0325,-4.0824,-4.143,-4.1856,-4.2288,-4.2785,-4.2986,-4.2986,-4.2986,-4.2986,-4.2986,-4.2986,-4.2986,-4.2986,-4.2986,-4.2986,-4.2986,-4.2986,-4.2891,-4.264,-4.2288,-4.1731,-4.1275,-4.1275,-4.1275,-4.1175,-4.0824,-4.0651,-4.04,-4.0049,-3.9823,-3.9697,-3.9697,-3.9697,-3.9697,-3.9697,-3.9697,-3.9697,-3.9697,-3.9697,-3.9697,-3.9697,-3.9697,-3.9697,-3.9697,-3.9697,-3.9697,-3.9697,-3.9697,-3.9697,-3.9697,-3.9697,-3.9697,-3.9697,-3.9697,-3.9697,-3.9697,-3.9697,-3.9697,-2.3467,-2.5025,-2.6935,-2.9214,-3.119,-3.2981,-3.4616,-3.683,-3.8692,0.0,0.0,0.0,0.0,0.0,0.0,0.0,0.0,0.0,0.0,0.0,0.0,0.0,0.0,0.0,0.0,0.0,0.0,0.0,0.0,0.0,-4.1324,-4.1324,-4.1324,-4.1324,-4.1324,-4.1324,-4.1324,-4.1324,-4.1324,-4.1324,-4.1324,-4.1147,-4.0896,-4.0896,-4.0593,-4.0083,-4.0083,-3.9929,-3.9697,-3.9697,-3.9697,-3.9697,-3.9697,-4.0023,-4.0576,-4.1075,-4.1681,-4.2288,-4.2785,-4.2986,-4.2986,-4.2986,-4.2986,-4.2986,-4.2986,-4.2986,-4.2986,-4.2986,-4.2836,-4.2766,-4.2766,-4.2559,-4.2333,-4.1957,-4.1605,-4.1275,-4.1275,-4.1275,-4.1175,-4.0852,-4.0651,-4.04,-4.0023,-3.9823,-3.9697,-3.9697,-3.9697,-3.9697,-3.9697,-3.9697,-3.9697,-3.9697,-3.9697,-3.9697,-3.9697,-3.9697,-3.9697,-3.9697,-3.9697,-3.9697,-3.9697,-3.9697,-3.9697,-3.9697,-3.9697,-3.9697,-3.9697,-3.9697,-3.9697,-3.9697,-3.9697,-3.9697,0.0,0.0,0.0,-2.7532,-2.7837,-2.8873,-3.4554,0.0,-3.5783,0.0,0.0,0.0,0.0,0.0,0.0,0.0,0.0,0.0,0.0,0.0,0.0,0.0,0.0,0.0,0.0,0.0,0.0,0.0,0.0,-4.1324,-4.1324,-4.1324,-4.1324,-4.1324,-4.1324,-4.1324,-4.1324,-4.1324,-4.1324,-4.1274,-4.1274,-4.1147,-4.0896,-4.0896,-4.0593,-4.0083,-4.0083,-3.9929,-3.9697,-3.9697,-3.9697,-3.9697,-3.9697,-4.0023,-4.0576,-4.1075,-4.1681,-4.2288,-4.2785,-4.2986,-4.2986,-4.2986,-4.2986,-4.2986,-4.2986,-4.2986,-4.2986,-4.2961,-4.2615,-4.2213,-4.2187,-4.1731,-4.1275,-4.1275,-4.1275,-4.1275,-4.1275,-4.1275,-4.1275,-4.125,-4.0824,-4.0501,-4.0501,-4.0049,-3.9697,-3.9697,-3.9697,-3.9697,-3.9697,-3.9697,-3.9697,-3.9697,-3.9697,-3.9697,-3.9697,-3.9697,-3.9697,-3.9697,-3.9697,-3.9697,-3.9697,-3.9697,-3.9697,-3.9697,-3.9697,-3.9697,-3.9697,-3.9697,-3.9697,-3.9697,-3.9697,-3.9697,-2.0855,0.0,0.0,0.0,0.0,0.0,0.0,0.0,0.0,0.0,0.0,0.0,0.0,0.0,0.0,0.0,0.0,0.0,0.0,0.0,0.0,0.0,0.0,0.0,0.0,0.0,0.0,0.0,-4.1324,-4.1324,-4.1324,-4.1324,-4.1324,-4.1324,-4.1324,-4.1324,-4.1324,-4.1324,-4.1198,-4.0997,-4.0997,-4.0795,-4.0338,-4.0338,-4.0134,-3.98,-3.98,-3.98,-3.9697,-3.9697,-3.9697,-3.9697,-3.9697,-4.0023,-4.0576,-4.1075,-4.1681,-4.2288,-4.2785,-4.2986,-4.2986,-4.2986,-4.2986,-4.2986,-4.2986,-4.2986,-4.2886,-4.2539,-4.2313,-4.2112,-4.1656,-4.1401,-4.1275,-4.1275,-4.1275,-4.1275,-4.1275,-4.1275,-4.1175,-4.0827,-4.0626,-4.04,-3.9998,-3.9798,-3.9697,-3.9697,-3.9697,-3.9697,-3.9697,-3.9697,-3.9697,-3.9697,-3.9697,-3.9697,-3.9697,-3.9697,-3.9697,-3.9697,-3.9697,-3.9697,-3.9697,-3.9697,-3.9697,-3.9697,-3.9697,-3.9697,-3.9697,-3.9697,-3.9697,-3.9697,-3.9697,-3.9258,-2.1642,-2.2635,-2.3916,-2.3838,0.0,0.0,0.0,-2.8516,0.0,0.0,0.0,0.0,0.0,0.0,0.0,0.0,0.0,0.0,0.0,0.0,0.0,0.0,0.0,0.0,0.0,0.0,0.0,0.0,-4.1324,-4.1324,-4.1324,-4.1324,-4.1324,-4.1324,-4.1324,-4.1324,-4.1324,-4.1324,-4.1198,-4.1047,-4.0946,-4.0694,-4.0236,-4.0134,-3.9929,-3.9697,-3.9948,-3.9898,-3.9722,-3.9948,-3.9898,-3.9697,-3.9697,-4.0174,-4.0902,-4.1175,-4.1831,-4.259,-4.2861,-4.2986,-4.2986,-4.2986,-4.2986,-4.2986,-4.2986,-4.2811,-4.2615,-4.2313,-4.2037,-4.1681,-4.1153,-4.1125,-4.1275,-4.1275,-4.1275,-4.1275,-4.1275,-4.1275,-4.12,-4.0874,-4.0799,-4.0752,-4.0425,-4.0375,-4.0375,-4.0375,-4.0375,-4.0375,-4.0375,-4.0174,-4.0049,-4.0049,-3.9823,-3.9697,-3.9697,-3.9697,-3.9697,-3.9697,-3.9697,-3.9697,-3.9697,-3.9697,-3.9697,-3.9697,-3.9697,-3.9697,-3.9697,-3.9697,-3.9645,-3.9542,-3.9542,-3.8816,-2.3001,-2.3838,-2.5175,-2.5506,-2.4592,0.0,-2.8456,-2.8699,0.0,0.0,0.0,0.0,0.0,0.0,0.0,0.0,0.0,0.0,0.0,0.0,0.0,0.0,0.0,0.0,0.0,0.0,-4.1324,-4.1324,-4.1324,-4.1324,-4.1324,-4.1324,-4.1324,-4.1324,-4.1324,-4.1324,-4.1324,-4.1324,-4.1274,-4.1224,-4.0946,-4.0694,-4.0389,-4.0185,-3.998,-3.9798,-4.0249,-4.0174,-3.9823,-4.0249,-4.0149,-3.9697,-3.9772,-4.0425,-4.13,-4.1351,-4.2082,-4.2986,-4.2986,-4.2986,-4.2986,-4.2986,-4.2986,-4.2986,-4.2986,-4.264,-4.2187,-4.2062,-4.163,-4.1075,-4.0651,-4.0978,-4.1376,-4.1376,-4.1426,-4.1476,-4.1476,-4.1476,-4.1476,-4.1476,-4.1376,-4.1275,-4.1275,-4.1275,-4.1275,-4.1275,-4.1275,-4.1275,-4.1275,-4.0849,-4.0601,-4.0601,-4.0124,-3.9798,-3.9798,-3.9722,-3.9697,-3.9697,-3.9697,-3.9697,-3.9697,-3.9697,-3.9697,-3.9697,-3.9697,-3.9645,-3.9517,-3.9645,-3.9594,-3.931,-3.9206,-3.8344,-2.4648,-2.504,-2.5458,-2.4618,0.0,0.0,-2.4779,-2.5454,-2.6608,0.0,0.0,0.0,0.0,0.0,0.0,0.0,0.0,0.0,0.0,0.0,0.0,0.0,0.0,0.0,0.0,0.0,-4.1324,-4.1324,-4.1324,-4.1324,-4.1324,-4.1324,-4.1324,-4.1324,-4.1324,-4.1324,-4.1324,-4.1324,-4.1073,-4.0669,-4.0593,-4.0287,-3.9852,-3.98,-3.9975,-4.035,-3.9998,-4.0049,-4.0325,-3.9998,-3.9798,-3.9747,-4.0174,-4.0752,-4.1351,-4.1831,-4.2464,-4.2986,-4.2986,-4.2986,-4.2986,-4.2986,-4.2986,-4.2986,-4.2986,-4.264,-4.2037,-4.1078,-4.0752,-4.0651,-4.0551,-4.1254,-4.2037,-4.2037,-4.2333,-4.266,-4.266,-4.266,-4.266,-4.266,-4.1957,-4.1275,-4.1275,-4.1275,-4.1275,-4.1275,-4.1275,-4.1275,-4.1275,-4.12,-4.1125,-4.1125,-4.0676,-4.035,-4.035,-3.9948,-3.9697,-3.9697,-3.9697,-3.9697,-3.9697,-3.9697,-3.9697,-3.9697,-3.9697,-3.9206,-3.8267,-3.9258,-3.9697,-3.9594,-3.84,-3.721,-2.5876,-2.6033,-2.6498,-2.5923,0.0,0.0,0.0,-2.5798,-2.6138,-2.7321,0.0,0.0,0.0,0.0,0.0,0.0,0.0,0.0,0.0,0.0,0.0,0.0,0.0,0.0,0.0,0.0,-4.0461,-4.0461,-4.0723,-4.0853,-4.0853,-4.1167,-4.1324,-4.1324,-4.1324,-4.1324,-4.1324,-4.1324,-4.1174,-4.0922,-4.0618,-4.0364,-4.0108,-3.9852,-3.9998,-4.0501,-4.0224,-4.0249,-4.0501,-4.0224,-3.9948,-3.9747,-4.03,-4.0852,-4.1351,-4.1957,-4.2564,-4.2986,-4.2986,-4.2986,-4.2986,-4.2986,-4.2986,-4.2986,-4.2986,-4.2409,-4.153,-4.0425,-4.0501,-4.0874,-4.0874,-4.1731,-4.2615,-4.2615,-4.2785,-4.2986,-4.2986,-4.2986,-4.2986,-4.2986,-4.2534,-4.2158,-4.2158,-4.2158,-4.2158,-4.2158,-4.2158,-4.2158,-4.2158,-4.1907,-4.1756,-4.1756,-4.1254,-4.0874,-4.0874,-4.0425,-4.0099,-4.0099,-3.9848,-3.9697,-3.9697,-3.9697,-3.9697,-3.9697,-3.9102,-3.8477,-3.7897,-3.795,-3.7897,-3.7737,-3.7447,-3.624,0.0,0.0,0.0,0.0,0.0,-2.7236,0.0,0.0,0.0,-2.7556,0.0,0.0,0.0,0.0,0.0,0.0,0.0,0.0,0.0,0.0,0.0,0.0,0.0,0.0,0.0,0.0,-3.9259,-3.9573,-3.9703,-3.9939,-4.0383,-4.088,-4.1193,-4.1324,-4.1324,-4.1324,-4.1324,-4.1324,-4.1274,-4.1198,-4.0744,-4.044,-4.0415,-4.0004,-4.0149,-4.0676,-4.0551,-4.0576,-4.0651,-4.045,-4.0099,-3.9747,-4.0425,-4.0953,-4.1376,-4.2057,-4.2665,-4.2986,-4.2986,-4.2986,-4.2986,-4.2986,-4.2911,-4.2811,-4.2685,-4.1982,-4.1003,-4.0099,-4.0576,-4.13,-4.1455,-4.2233,-4.2986,-4.2986,-4.2986,-4.2986,-4.2986,-4.2986,-4.2986,-4.2986,-4.2986,-4.2986,-4.2986,-4.2986,-4.2986,-4.2986,-4.2986,-4.2986,-4.2986,-4.264,-4.2363,-4.2363,-4.1831,-4.1505,-4.1505,-4.1003,-4.0676,-4.0676,-4.0249,-3.9973,-3.9848,-3.9747,-3.9697,-3.9697,-3.8502,-3.7791,-3.7554,-3.6619,-3.61,-3.5904,-3.6263,-3.5256,0.0,0.0,0.0,0.0,-3.0111,0.0,0.0,0.0,-2.7609,-2.5751,0.0,0.0,0.0,0.0,0.0,0.0,0.0,0.0,0.0,0.0,0.0,0.0,0.0,0.0,0.0,0.0,0.0,-3.9494,-3.824,-3.8266,-4.0305,-4.0488,-4.0775,-4.1298,-4.1324,-4.1324,-4.1324,-4.1324,-4.1147,-4.0946,-4.0643,-4.0389,-4.016,-4.0356,-4.0727,-4.1175,-4.0727,-4.0802,-4.1125,-4.0199,-3.9747,-3.9798,-4.0774,-4.1225,-4.1401,-4.2509,-4.2911,-4.2986,-4.2986,-4.2986,-4.2986,-4.2986,-4.2715,-4.2213,-4.1681,-4.105,-4.0576,-4.045,-4.0852,-4.1401,-4.1932,-4.2564,-4.2986,-4.2986,-4.2986,-4.2986,-4.2986,-4.2986,-4.2986,-4.2986,-4.2986,-4.2986,-4.2986,-4.2986,-4.2986,-4.2986,-4.2986,-4.2986,-4.2986,-4.2911,-4.2886,-4.2886,-4.2439,-4.2112,-4.2112,-4.1555,-4.12,-4.12,-4.1125,-4.0874,-4.045,-3.9948,-3.9697,-3.9697,-3.8502,-3.7394,-3.6402,-3.624,-3.6185,-3.6131,-3.4626,-3.3733,0.0,0.0,0.0,0.0,0.0,0.0,-2.8158,0.0,-2.7242,0.0,0.0,0.0,0.0,0.0,0.0,0.0,0.0,0.0,0.0,0.0,0.0,0.0,0.0,0.0,0.0,0.0,0.0,0.0,0.0,-3.722,-3.8867,-3.9886,-4.054,-4.0775,-4.1141,-4.1324,-4.1324,-4.1324,-4.1147,-4.0896,-4.0643,-4.0338,-4.0083,-4.0354,-4.0651,-4.0852,-4.0626,-4.0651,-4.0802,-4.0023,-3.9873,-4.0249,-4.0974,-4.1275,-4.1426,-4.2585,-4.2986,-4.2986,-4.2986,-4.2986,-4.2936,-4.2665,-4.2389,-4.2037,-4.1128,-4.0927,-4.0874,-4.0601,-4.1153,-4.1856,-4.2137,-4.2615,-4.2986,-4.2986,-4.2986,-4.2986,-4.2986,-4.2986,-4.2986,-4.2986,-4.2986,-4.2986,-4.2986,-4.2986,-4.2986,-4.2986,-4.2986,-4.2986,-4.2986,-4.2986,-4.2986,-4.2986,-4.2816,-4.269,-4.269,-4.2133,-4.1806,-4.1806,-4.1505,-4.1175,-4.0949,-4.0777,-4.0159,-3.9177,-3.8006,-3.6648,-3.5223,-3.4525,-3.419,-3.4134,-3.3698,-3.3134,-3.2672,0.0,0.0,0.0,0.0,0.0,0.0,0.0,0.0,0.0,0.0,0.0,0.0,0.0,0.0,0.0,0.0,0.0,0.0,0.0,0.0,0.0,0.0,0.0,0.0,0.0,0.0,0.0,0.0,0.0,-3.7534,-3.8972,-3.9939,-4.0409,-4.101,-4.1324,-4.1324,-4.1324,-4.1147,-4.0896,-4.0643,-4.0338,-4.0083,-4.0354,-4.0526,-4.0526,-4.0526,-4.0526,-4.0475,-3.9923,-4.0023,-4.0576,-4.1075,-4.1376,-4.1681,-4.2635,-4.2986,-4.2986,-4.2986,-4.2886,-4.266,-4.2108,-4.1932,-4.1781,-4.0978,-4.0974,-4.1225,-4.1028,-4.153,-4.2238,-4.2389,-4.274,-4.2986,-4.2986,-4.2986,-4.2986,-4.2986,-4.2986,-4.2986,-4.2986,-4.2986,-4.2986,-4.2986,-4.2986,-4.2986,-4.2986,-4.2986,-4.2986,-4.2986,-4.2986,-4.2986,-4.2986,-4.2986,-4.2986,-4.2986,-4.2665,-4.2439,-4.2439,-4.1856,-4.1555,-4.1555,-4.1376,-4.0566,-3.899,-3.7816,-3.6364,-3.4666,-3.3464,-3.2851,-3.2727,-3.3006,-3.2644,0.0,0.0,0.0,-3.1967,0.0,0.0,0.0,0.0,-2.9657,0.0,0.0,0.0,0.0,0.0,0.0,-2.6876,0.0,0.0,0.0,0.0,0.0,0.0,0.0,0.0,0.0,0.0,0.0,0.0,0.0,0.0,-3.6802,-3.7639,-3.8736,-4.0357,-4.101,-4.1324,-4.1324,-4.1324,-4.1147,-4.0896,-4.0643,-4.0338,-4.0083,-4.0354,-4.0526,-4.0526,-4.0526,-4.0526,-4.0475,-3.9923,-4.0023,-4.0576,-4.1075,-4.1656,-4.2263,-4.2816,-4.2986,-4.2986,-4.2986,-4.269,-4.2137,-4.1555,-4.13,-4.13,-4.1275,-4.1275,-4.1401,-4.2011,-4.2187,-4.2338,-4.2811,-4.2961,-4.2986,-4.2986,-4.2986,-4.2986,-4.2986,-4.2986,-4.2986,-4.2986,-4.2986,-4.2986,-4.2986,-4.2986,-4.2986,-4.2986,-4.2986,-4.2986,-4.2986,-4.2986,-4.2986,-4.2986,-4.2986,-4.2986,-4.2986,-4.2961,-4.2961,-4.2961,-4.2489,-4.2187,-4.2187,-4.163,-4.0686,-3.941,-3.8241,-3.6805,-3.5089,-3.3907,-3.3141,-3.2669,-3.242,-3.2133,0.0,0.0,-3.7351,-3.4058,0.0,0.0,0.0,0.0,0.0,0.0,0.0,0.0,0.0,0.0,0.0,0.0,0.0,0.0,0.0,0.0,0.0,0.0,0.0,0.0,0.0,0.0,0.0,0.0,0.0,0.0,0.0,-3.6959,-3.8318,-3.9259,-4.0226,-4.0906,-4.1324,-4.1324,-4.1147,-4.0896,-4.0643,-4.0543,-4.0641,-4.053,-4.0526,-4.0526,-4.0526,-4.03,-3.9948,-3.9772,-4.0249,-4.1025,-4.12,-4.1907,-4.2766,-4.2911,-4.2986,-4.2936,-4.2615,-4.2363,-4.2112,-4.153,-4.158,-4.1806,-4.1401,-4.1605,-4.1907,-4.2162,-4.2464,-4.2791,-4.2936,-4.2986,-4.2986,-4.2986,-4.2986,-4.2986,-4.2986,-4.2986,-4.2986,-4.2986,-4.2986,-4.2986,-4.2986,-4.2986,-4.2986,-4.2986,-4.2986,-4.2986,-4.2986,-4.2986,-4.2986,-4.2986,-4.2986,-4.2986,-4.2986,-4.2986,-4.2986,-4.2986,-4.2811,-4.2766,-4.2766,-4.2534,-4.1268,-3.8834,-3.8435,-3.6978,-3.4471,-3.406,-3.3596,-3.3161,-3.3103,-3.2592,-3.8423,-3.8606,0.0,0.0,-3.4737,0.0,-3.0843,0.0,0.0,0.0,0.0,0.0,0.0,0.0,0.0,0.0,0.0,0.0,0.0,0.0,0.0,0.0,0.0,0.0,0.0,0.0,-2.8142,-2.9855,0.0,0.0,0.0,0.0,-3.7508,-3.8684,-3.9834,-4.0647,-4.1147,-4.1274,-4.1047,-4.0618,-4.0542,-4.0593,-4.0763,-4.0352,-4.0325,-4.0501,-4.03,-4.0023,-3.9697,-3.9898,-4.0526,-4.13,-4.1555,-4.2183,-4.2986,-4.2986,-4.2861,-4.2665,-4.2057,-4.1856,-4.1806,-4.1401,-4.1706,-4.2137,-4.1731,-4.2007,-4.2514,-4.2514,-4.271,-4.2986,-4.2986,-4.2986,-4.2986,-4.2986,-4.2986,-4.2986,-4.2986,-4.2986,-4.2986,-4.2986,-4.2986,-4.2986,-4.2986,-4.2986,-4.2986,-4.2986,-4.2986,-4.2986,-4.2986,-4.2986,-4.2986,-4.2986,-4.2986,-4.2986,-4.2986,-4.2986,-4.2793,-4.2319,-4.2319,-4.2093,-4.1672,-4.1639,-4.0531,-3.815,-3.8069,-3.6846,-3.438,-3.4261,-3.3953,-3.344,-3.3159,-3.27]},{"header":{"parameterUnit":"m.s-1","parameterCategory":1,"la1":30.6,"la2":29.2853,"lo1":-89.7004,"lo2":-87.6739,"dy":0.0162,"dx":0.0183,"nx":112,"ny":82,"refTime":"2026-04-21T12:00:00:Z","depth":0,"parameterNumber":3,"parameterNumberName":"V-component_of_WINDS"},"data":[0.0,0.0,0.0,0.0,0.0,0.0,0.0,0.0,0.0,0.0,0.0,0.0,0.0,0.0,0.0,0.0,0.0,0.0,0.0,0.0,0.0,0.0,0.0,0.0,0.0,0.0,0.0,0.0,0.0,0.0,0.0,0.0,0.0,0.0,0.0,0.0,0.0,0.0,0.0,0.0,0.0,0.0,0.0,0.0,0.0,0.0,0.0,0.0,0.0,0.0,0.0,0.0,0.0,0.0,0.0,0.0,0.0,0.0,0.0,0.0,0.0,0.0,0.0,0.0,0.0,0.0,0.0,0.0,0.0,0.0,0.0,0.0,0.0,0.0,0.0,0.0,0.0,0.0,0.0,0.0,0.0,0.0,0.0,0.0,0.0,0.0,0.0,0.0,0.0,0.0,1.6316,1.818,2.0491,2.206,2.2418,2.197,2.0623,1.8266,0.0,0.0,0.0,0.0,0.0,0.0,0.0,0.0,0.0,0.0,0.0,0.0,0.0,0.0,0.0,0.0,0.0,0.0,0.0,0.0,0.0,0.0,0.0,0.0,0.0,0.0,0.0,0.0,0.0,0.0,0.0,0.0,0.0,0.0,0.0,0.0,0.0,0.0,0.0,0.0,0.0,0.0,0.0,0.0,0.0,0.0,0.0,0.0,0.0,0.0,0.0,0.0,0.0,0.0,0.0,0.0,0.0,0.0,0.0,0.0,0.0,0.0,0.0,0.0,0.0,0.0,0.0,0.0,0.0,0.0,0.0,0.0,0.0,0.0,0.0,0.0,0.0,0.0,0.0,0.0,0.0,0.0,0.0,0.0,0.0,0.0,0.0,0.0,0.0,0.0,0.0,0.0,0.0,0.0,0.0,0.0,0.0,0.0,0.0,0.0,0.0,0.0,0.0,0.0,1.6353,2.05,2.2231,2.3269,2.361,2.2784,2.1093,1.835,0.0,0.0,0.0,0.0,0.0,0.0,0.0,0.0,0.0,0.0,0.0,0.0,0.0,0.0,0.0,0.0,0.0,0.0,0.0,0.0,0.0,0.0,0.0,0.0,0.0,0.0,0.0,0.0,0.0,0.0,0.0,0.0,0.0,0.0,0.0,0.0,0.0,0.0,0.0,0.0,0.0,0.0,0.0,0.0,0.0,0.0,0.0,0.0,0.0,0.0,0.0,0.0,0.0,0.0,0.0,0.0,0.0,0.0,0.0,0.0,0.0,0.0,0.0,0.0,0.0,0.0,0.0,0.0,0.0,0.0,0.0,0.0,0.0,0.0,0.0,0.0,0.0,0.0,0.0,0.0,0.0,0.0,0.0,0.0,0.0,0.0,0.0,0.0,0.0,0.0,0.0,0.0,0.0,0.0,0.0,0.0,0.0,0.0,0.0,0.0,0.0,0.0,0.0,1.6631,1.8797,2.269,2.3287,2.3704,2.4416,2.2921,2.0988,1.8798,1.6211,0.0,0.0,0.0,0.0,0.0,0.0,0.0,0.0,0.0,0.0,0.0,0.0,0.0,0.0,0.0,0.0,0.0,0.0,0.0,0.0,0.0,0.0,0.0,0.0,0.0,0.0,0.0,0.0,0.0,0.0,0.0,0.0,0.0,0.0,0.0,0.0,0.0,0.0,0.0,0.0,0.0,0.0,0.0,0.0,0.0,0.0,0.0,0.0,0.0,0.0,0.0,0.0,0.0,0.0,0.0,0.0,0.0,0.0,0.0,0.0,0.0,0.0,0.0,0.0,0.0,0.0,0.0,0.0,0.0,0.0,0.0,0.0,0.0,0.0,0.0,0.0,0.0,0.0,0.0,0.0,0.0,0.0,0.0,0.0,0.0,0.0,0.0,0.0,0.0,0.0,0.0,0.0,0.0,0.0,0.0,0.0,0.0,0.0,0.0,0.0,0.0,0.0,1.9353,2.1311,2.4146,2.4098,2.4224,2.511,2.2792,2.0673,1.9193,1.6276,0.0,0.0,0.0,0.0,0.0,0.0,0.0,0.0,0.0,0.0,0.0,0.0,0.0,0.0,0.0,0.0,0.0,0.0,0.0,0.0,0.0,0.0,0.0,0.0,0.0,0.0,0.0,0.0,0.0,0.0,0.0,0.0,0.0,0.0,0.0,0.0,0.0,0.0,0.0,0.0,0.0,0.0,0.0,0.0,0.0,0.0,0.0,0.0,0.0,0.0,0.0,0.0,0.0,0.0,0.0,0.0,0.0,0.0,0.0,0.0,0.0,0.0,0.0,0.0,0.0,0.0,0.0,0.0,0.0,0.0,0.0,0.0,0.0,0.0,0.0,0.0,0.0,0.0,0.0,0.0,0.0,0.0,0.0,0.0,0.0,0.0,0.0,0.0,0.0,0.0,0.0,0.0,0.0,0.0,0.0,0.0,0.0,0.0,0.0,0.0,0.0,0.0,2.0105,2.267,2.4147,2.4835,2.5338,2.5709,2.2689,2.0278,1.9166,1.5925,0.0,0.0,0.0,0.0,0.0,0.0,0.0,0.0,0.0,0.0,0.0,0.0,0.0,0.0,0.0,0.0,0.0,0.0,0.0,0.0,0.0,0.0,0.0,0.0,0.0,0.0,0.0,0.0,0.0,0.0,0.0,0.0,0.0,0.0,0.0,0.0,0.0,0.0,0.0,0.0,0.0,0.0,0.0,0.0,0.0,0.0,0.0,0.0,0.0,0.0,0.0,0.0,0.0,0.0,0.0,0.0,0.0,0.0,0.0,0.0,0.0,0.0,0.0,0.0,0.0,0.0,0.0,0.0,0.0,0.0,0.0,0.0,0.0,0.0,0.0,0.0,0.0,0.0,0.0,0.0,0.0,0.0,0.0,0.0,0.0,0.0,0.0,0.0,0.0,0.0,0.0,0.0,0.0,0.0,0.0,0.0,0.0,0.0,0.0,0.0,0.0,0.0,2.0008,2.2596,0.0,2.5167,2.5292,2.5297,2.3134,2.0855,1.8688,0.0,0.0,0.0,0.0,0.0,0.0,0.0,0.0,0.0,0.0,0.0,0.0,0.0,0.0,0.0,0.0,0.0,0.0,0.0,0.0,0.0,0.0,0.0,0.0,0.0,0.0,0.0,0.0,0.0,0.0,0.0,0.0,0.0,0.0,0.0,0.0,0.0,0.0,0.0,0.0,0.0,0.0,0.0,0.0,0.0,0.0,0.0,0.0,0.0,0.0,0.0,0.0,0.0,0.0,0.0,0.0,0.0,0.0,0.0,0.0,0.0,0.0,0.0,0.0,0.0,0.0,0.0,0.0,0.0,0.0,0.0,0.0,0.0,0.0,0.0,0.0,0.0,0.0,0.0,0.0,0.0,0.0,0.0,0.0,0.0,0.0,0.0,0.0,0.0,0.0,0.0,0.0,0.0,0.0,0.0,0.0,0.0,0.0,0.0,0.0,0.0,0.0,1.7453,2.0254,2.2841,0.0,2.5294,2.522,2.5014,2.2898,2.0515,1.8039,0.0,0.0,0.0,0.0,0.0,0.0,0.0,0.0,0.0,0.0,0.0,0.0,0.0,0.0,0.0,0.0,0.0,0.0,0.0,0.0,0.0,0.0,0.0,0.0,0.0,0.0,0.0,0.0,0.0,0.0,0.0,0.0,0.0,0.0,0.0,0.0,0.0,0.0,0.0,0.0,0.0,0.0,0.0,0.0,0.0,0.0,0.0,0.0,0.0,0.0,0.0,0.0,0.0,0.0,0.0,0.0,0.0,0.0,0.0,0.0,0.0,0.0,0.0,0.0,0.0,0.0,0.0,0.0,0.0,0.0,0.0,0.0,0.0,0.0,0.0,0.0,0.0,0.0,0.0,0.0,0.0,0.0,0.0,0.0,0.0,0.0,0.0,0.0,0.0,0.0,0.0,0.0,0.0,0.0,0.0,0.0,0.0,0.0,0.0,0.0,0.0,0.0,1.7928,2.1064,2.3644,2.5134,2.5294,2.522,2.5014,2.1799,1.9081,0.0,0.0,0.0,0.0,0.0,0.0,0.0,0.0,0.0,0.0,0.0,0.0,0.0,0.0,0.0,0.0,0.0,0.0,0.0,0.0,0.0,0.0,0.0,0.0,0.0,0.0,0.0,0.0,0.0,0.0,0.0,0.0,0.0,0.0,0.0,0.0,0.0,0.0,0.0,0.0,0.0,0.0,0.0,0.0,0.0,0.0,0.0,0.0,0.0,0.0,0.0,0.0,0.0,0.0,0.0,0.0,0.0,0.0,0.0,0.0,0.0,0.0,0.0,0.0,0.0,0.0,0.0,0.0,0.0,0.0,0.0,0.0,0.0,0.0,0.0,0.0,0.0,0.0,0.0,0.0,0.0,0.0,0.0,0.0,0.0,0.0,0.0,0.0,0.0,0.0,0.0,0.0,0.0,0.0,0.0,0.0,0.0,0.0,0.0,0.0,0.0,0.0,0.0,1.7928,2.1064,2.3613,2.5033,2.5231,2.5183,2.4801,2.2449,2.01,1.7957,0.0,0.0,0.0,0.0,0.0,0.0,0.0,0.0,0.0,0.0,0.0,0.0,0.0,0.0,0.0,0.0,0.0,0.0,0.0,0.0,0.0,0.0,0.0,0.0,0.0,0.0,0.0,0.0,0.0,0.0,0.0,0.0,0.0,0.0,0.0,0.0,0.0,0.0,0.0,0.0,0.0,0.0,0.0,0.0,0.0,0.0,0.0,0.0,0.0,0.0,0.0,0.0,0.0,0.0,0.0,0.0,0.0,0.0,0.0,0.0,0.0,0.0,0.0,0.0,0.0,0.0,0.0,0.0,0.0,0.0,0.0,0.0,0.0,0.0,0.0,0.0,0.0,0.0,0.0,0.0,0.0,0.0,0.0,0.0,0.0,0.0,0.0,0.0,0.0,0.0,0.0,0.0,0.0,0.0,0.0,0.0,0.0,0.0,0.0,0.0,0.0,0.0,1.823,2.1189,2.3714,2.5242,2.5352,2.5152,2.4735,2.2734,2.0544,1.8244,0.0,0.0,0.0,0.0,0.0,0.0,0.0,0.0,0.0,0.0,0.0,0.0,0.0,0.0,0.0,0.0,0.0,0.0,0.0,0.0,0.0,0.0,0.0,0.0,0.0,0.0,0.0,0.0,0.0,0.0,0.0,0.0,0.0,0.0,0.0,0.0,0.0,0.0,0.0,0.0,0.0,0.0,0.0,0.0,0.0,0.0,0.0,0.0,0.0,0.0,0.0,0.0,0.0,0.0,0.0,0.0,0.0,0.0,0.0,0.0,0.0,0.0,0.0,0.0,0.0,0.0,0.0,0.0,0.0,0.0,0.0,0.0,0.0,0.0,0.0,0.0,0.0,0.0,0.0,0.0,0.0,0.0,0.0,0.0,0.0,0.0,0.0,0.0,0.0,0.0,0.0,0.0,0.0,0.0,0.0,0.0,0.0,0.0,0.0,0.0,0.0,0.0,1.8782,2.149,2.3859,2.5666,2.5498,2.5121,2.4787,2.2732,2.0546,1.8401,0.0,0.0,0.0,0.0,0.0,0.0,0.0,0.0,0.0,0.0,0.0,0.0,0.0,0.0,0.0,0.0,0.0,0.0,0.0,0.0,0.0,0.0,0.0,0.0,0.0,0.0,0.0,0.0,0.0,0.0,0.0,0.0,0.0,0.0,0.0,0.0,0.0,0.0,0.0,0.0,0.0,0.0,0.0,0.0,0.0,0.0,0.0,0.0,0.0,0.0,0.0,0.0,0.0,0.0,0.0,0.0,0.0,0.0,0.0,0.0,2.1018,0.0,0.0,0.0,0.0,0.0,0.0,0.0,0.0,0.0,0.0,0.0,0.0,0.0,0.0,0.0,0.0,0.0,0.0,0.0,0.0,0.0,0.0,0.0,0.0,0.0,0.0,0.0,0.0,0.0,0.0,0.0,0.0,0.0,0.0,0.0,0.0,0.0,0.0,0.0,0.0,0.0,1.9359,2.2071,2.428,2.5552,2.5304,2.511,2.5172,2.2825,2.0809,1.9525,1.6833,0.0,0.0,0.0,0.0,0.0,0.0,0.0,0.0,0.0,0.0,0.0,0.0,0.0,0.0,0.0,0.0,0.0,0.0,0.0,0.0,0.0,0.0,0.0,0.0,0.0,0.0,0.0,0.0,0.0,0.0,0.0,0.0,0.0,0.0,0.0,0.0,0.0,0.0,0.0,0.0,0.0,0.0,0.0,0.0,0.0,0.0,0.0,0.0,0.0,0.0,0.0,0.0,0.0,0.0,0.0,0.0,0.0,0.0,0.0,0.0,2.2799,0.0,0.0,0.0,0.0,0.0,0.0,0.0,0.0,0.0,0.0,0.0,0.0,0.0,0.0,0.0,0.0,0.0,0.0,0.0,0.0,0.0,0.0,0.0,0.0,0.0,0.0,0.0,0.0,0.0,0.0,0.0,0.0,0.0,0.0,0.0,0.0,0.0,0.0,0.0,0.0,2.0288,2.2598,2.4506,2.5896,2.5416,2.5033,2.516,2.3306,2.1665,2.0601,1.8382,0.0,0.0,0.0,0.0,0.0,0.0,0.0,0.0,0.0,0.0,0.0,0.0,0.0,0.0,0.0,0.0,0.0,0.0,0.0,0.0,0.0,0.0,0.0,0.0,0.0,0.0,0.0,0.0,0.0,0.0,0.0,0.0,0.0,0.0,0.0,0.0,0.0,0.0,0.0,0.0,0.0,0.0,0.0,0.0,0.0,0.0,0.0,0.0,0.0,0.0,0.0,0.0,0.0,2.9829,3.0382,3.0658,3.0658,3.0658,3.0507,2.7745,2.6691,2.6776,0.0,0.0,0.0,0.0,0.0,0.0,0.0,0.0,0.0,0.0,0.0,0.0,0.0,0.0,0.0,0.0,0.0,0.0,0.0,0.0,0.0,0.0,0.0,0.0,0.0,2.2623,2.2096,0.0,0.0,0.0,0.0,0.0,0.0,0.0,0.0,0.0,0.0,0.0,0.0,2.1292,2.31,2.4732,2.6323,2.556,2.4968,2.5,2.3756,2.2543,2.1509,1.9924,1.8345,0.0,0.0,0.0,0.0,0.0,0.0,0.0,0.0,0.0,0.0,0.0,0.0,0.0,0.0,0.0,0.0,0.0,0.0,0.0,0.0,0.0,0.0,0.0,0.0,0.0,0.0,0.0,0.0,0.0,0.0,0.0,0.0,2.0891,2.1041,0.0,0.0,0.0,0.0,0.0,0.0,0.0,0.0,0.0,0.0,0.0,0.0,0.0,0.0,2.9955,3.2014,3.2817,3.2441,3.4469,3.4926,3.4073,3.4073,3.4073,3.4048,3.3621,0.0,2.8512,2.777,0.0,0.0,0.0,0.0,0.0,0.0,0.0,0.0,0.0,0.0,0.0,0.0,0.0,0.0,0.0,0.0,0.0,0.0,0.0,0.0,0.0,0.0,2.5519,2.5134,2.5485,2.5544,0.0,2.1164,1.8632,1.7727,0.0,0.0,0.0,0.0,0.0,0.0,0.0,0.0,2.192,2.3678,2.5159,2.6373,2.5519,2.4872,2.5,2.3667,2.2585,2.2024,2.0549,1.9133,1.7952,1.6205,0.0,0.0,0.0,0.0,0.0,0.0,0.0,0.0,0.0,0.0,0.0,0.0,0.0,0.0,0.0,0.0,0.0,0.0,0.0,0.0,0.0,0.0,0.0,0.0,0.0,0.0,0.0,0.0,0.0,2.1192,2.2774,2.2447,2.3226,2.3326,0.0,0.0,0.0,0.0,0.0,0.0,0.0,0.0,0.0,3.0834,3.1738,3.2717,3.3847,3.573,3.6584,3.638,3.736,3.7513,3.7036,3.6709,3.6558,3.6558,3.6232,3.4977,3.2993,3.1512,2.9603,2.7494,0.0,0.0,0.0,0.0,0.0,2.5611,2.654,0.0,0.0,0.0,0.0,0.0,0.0,0.0,0.0,0.0,0.0,0.0,0.0,0.0,0.0,2.6917,2.7193,2.7243,2.6766,2.5084,2.2949,0.0,1.966,1.8756,1.7049,0.0,0.0,0.0,0.0,2.1091,2.3025,2.4431,2.5561,2.6399,2.5485,2.4833,2.4872,2.3882,2.3042,2.2534,2.1719,2.0752,1.9601,1.79,1.6415,0.0,0.0,0.0,0.0,0.0,0.0,0.0,0.0,0.0,0.0,0.0,0.0,0.0,0.0,0.0,0.0,0.0,0.0,0.0,0.0,0.0,0.0,0.0,0.0,0.0,0.0,0.0,0.0,2.3281,2.4632,2.4054,2.5561,2.5963,0.0,0.0,0.0,0.0,0.0,0.0,3.0292,3.0959,3.2215,3.4274,3.5127,3.6031,3.7033,3.8441,3.9069,3.9069,3.9069,3.9019,3.8894,3.8417,3.814,3.799,3.7739,3.7287,3.6681,3.455,3.2491,3.0557,2.9704,2.8699,2.7806,2.8209,2.8423,2.8725,2.998,3.0407,3.0231,2.9126,0.0,2.7444,2.4808,0.0,0.0,0.0,0.0,2.5611,2.7153,0.0,2.7756,2.8549,2.875,2.8674,2.8373,2.7996,2.6691,0.0,2.2422,2.1694,1.961,0.0,0.0,0.0,0.0,2.2472,2.4004,2.5034,2.5812,2.6424,2.5586,2.4926,2.48,2.4208,2.3573,2.3039,2.2628,2.193,2.0936,1.9392,1.8009,1.6859,0.0,0.0,0.0,0.0,0.0,0.0,0.0,0.0,0.0,0.0,0.0,0.0,0.0,0.0,0.0,0.0,0.0,0.0,0.0,0.0,0.0,0.0,0.0,0.0,0.0,0.0,0.0,0.0,0.0,2.6399,2.8284,0.0,0.0,0.0,0.0,2.8637,3.0708,3.2667,3.4304,3.4906,3.5984,3.7713,3.7814,3.814,3.8793,3.9346,3.9647,3.9647,3.9647,3.9371,3.8919,3.8894,3.8517,3.804,3.8567,3.8467,3.7789,3.606,3.4424,3.296,3.2842,3.2139,3.116,3.116,3.1512,3.1989,3.2064,3.2089,3.2164,3.2641,3.1361,2.9528,2.8787,2.7871,0.0,0.0,2.8247,2.8913,3.0105,3.0407,3.0432,3.0482,3.0482,3.0206,2.9088,2.8838,2.8135,0.0,2.4983,2.4073,2.2397,0.0,2.2092,2.2146,2.2644,2.3446,2.46,2.5259,2.5812,2.6424,2.5946,2.536,2.4825,2.4532,2.4131,2.3599,2.2808,2.2113,2.1485,2.0335,1.9185,1.8035,1.6258,0.0,0.0,0.0,0.0,0.0,0.0,0.0,0.0,0.0,0.0,0.0,0.0,0.0,0.0,0.0,0.0,0.0,0.0,0.0,0.0,0.0,0.0,0.0,0.0,0.0,0.0,0.0,0.0,2.9667,3.1612,0.0,3.0899,3.1411,3.2064,3.2574,3.4048,3.5454,3.6759,3.7387,3.8291,3.9572,3.9973,4.0425,4.1031,4.1584,4.1806,4.1806,4.1103,4.0651,4.0425,3.9722,3.9295,3.9094,3.8944,3.8793,3.8517,3.7939,3.6684,3.5223,3.5223,3.4726,3.4028,3.4028,3.4154,3.4254,3.3947,3.3822,3.3746,3.3244,3.2064,3.0733,3.0181,2.9729,2.9478,2.9679,3.0105,3.0608,3.1009,3.111,3.111,3.111,3.111,3.0909,3.0181,2.9966,2.9515,2.801,2.7017,2.5988,2.4657,2.4431,2.418,2.3502,2.4155,2.4858,2.5259,2.5812,2.6273,2.6474,2.5971,2.5385,2.4825,2.4494,2.3913,2.3141,2.2515,2.2005,2.1511,2.0048,1.9211,1.9185,1.7146,1.5683,0.0,0.0,0.0,0.0,0.0,0.0,0.0,0.0,0.0,0.0,0.0,0.0,0.0,0.0,0.0,0.0,0.0,0.0,0.0,0.0,0.0,0.0,0.0,0.0,0.0,0.0,3.2064,3.2215,3.4374,3.5253,3.3771,3.4474,3.5228,3.578,3.686,3.7965,3.9069,3.9496,4.0124,4.1028,4.1254,4.1505,4.1882,4.2233,4.2434,4.2409,4.1681,4.1275,4.125,4.0576,4.0149,3.9948,3.9597,3.932,3.9145,3.8994,3.8265,3.7235,3.7033,3.6684,3.631,3.611,3.616,3.626,3.5755,3.5303,3.4831,3.4148,3.3269,3.2416,3.1888,3.1712,3.1687,3.1486,3.1687,3.1964,3.1964,3.1964,3.1913,3.1712,3.1662,3.1512,3.0984,3.0733,3.0407,2.9615,2.8599,2.7544,2.659,2.6289,2.5912,2.5209,2.5561,2.5887,2.5887,2.6248,2.6499,2.6499,2.6147,2.5586,2.485,2.4672,2.4147,2.3141,2.2515,2.2083,2.1825,2.0334,1.9706,2.0098,1.8183,1.6751,1.5787,0.0,0.0,0.0,0.0,0.0,0.0,0.0,0.0,0.0,0.0,0.0,0.0,0.0,0.0,0.0,0.0,0.0,0.0,0.0,0.0,0.0,0.0,0.0,2.993,3.2742,3.4625,3.4148,3.6458,3.7262,3.5082,3.6383,3.7538,3.8065,3.912,4.0199,4.1225,4.1275,4.1605,4.2187,4.163,4.1326,4.1326,4.1326,4.1326,4.1326,4.1326,4.13,4.13,4.13,4.1,4.0551,4.0526,4.0224,3.9672,3.912,3.8944,3.8894,3.8266,3.804,3.7965,3.7437,3.7563,3.7914,3.7387,3.6483,3.5533,3.5508,3.5132,3.4605,3.4098,3.3922,3.3796,3.3269,3.3093,3.3093,3.3093,3.3111,3.2943,3.2365,3.224,3.2089,3.1537,3.1009,3.0633,3.0608,2.9665,2.8737,2.8222,2.7695,2.7318,2.7354,2.6876,0.0,2.6524,2.6499,2.6499,2.6499,2.6499,2.6047,2.4933,2.5097,2.4807,2.365,2.2834,2.2401,2.2349,2.1302,2.0699,2.0698,1.9445,1.8036,1.65,0.0,0.0,0.0,0.0,0.0,0.0,0.0,0.0,0.0,0.0,0.0,0.0,0.0,0.0,0.0,0.0,0.0,0.0,0.0,0.0,0.0,3.1035,3.3219,3.2817,3.4926,3.691,3.7965,3.912,3.9747,3.9495,3.9871,4.0197,4.0373,4.0648,4.0974,4.1275,4.1275,4.1605,4.2187,4.2062,4.2133,4.2534,4.2534,4.2534,4.2534,4.2108,4.1932,4.1907,4.153,4.12,4.105,4.0701,4.0425,4.0249,3.9697,3.9471,3.9421,3.8843,3.8642,3.8617,3.8467,3.8241,3.7914,3.7387,3.6985,3.6609,3.5759,3.5408,3.5182,3.463,3.45,3.4374,3.3822,3.3671,3.3571,3.3194,3.3111,3.3086,3.2867,3.2842,3.2692,3.2114,3.1562,3.106,3.0683,3.003,2.9377,2.8762,2.8574,2.8348,2.7946,0.0,0.0,2.7102,2.6751,2.6499,2.6499,2.6499,2.6197,2.5435,2.5203,2.4473,2.3061,2.2876,2.2499,2.1773,2.1066,2.0662,2.057,1.9451,1.8822,0.0,0.0,0.0,0.0,0.0,0.0,0.0,0.0,0.0,0.0,0.0,0.0,0.0,0.0,0.0,0.0,0.0,0.0,0.0,0.0,0.0,0.0,3.3822,3.6056,3.691,3.8115,3.9195,3.9948,4.0727,4.1229,4.1275,4.1275,4.1275,4.1275,4.1555,4.1681,4.1681,4.1907,4.2183,4.2539,4.2564,4.266,4.2986,4.2986,4.2986,4.2986,4.266,4.2439,4.2213,4.2057,4.1781,0.0,4.1254,4.0927,4.0501,4.0174,3.9898,0.0,0.0,0.0,0.0,0.0,3.8843,3.8316,3.799,3.7588,3.7086,3.6433,3.6081,3.578,3.5182,3.5031,3.4906,3.4399,3.4073,3.3822,3.3495,3.3244,3.3111,3.3111,3.3111,3.2993,3.2641,3.2139,3.1587,3.1035,0.0,0.0,2.9377,2.9063,2.8787,2.8461,2.7971,2.7544,0.0,2.7027,2.6751,2.6524,2.6499,2.6273,2.5636,2.5214,0.0,0.0,0.0,2.2548,2.1538,2.1198,0.0,0.0,0.0,0.0,0.0,0.0,0.0,0.0,1.806,1.7435,0.0,0.0,0.0,0.0,0.0,0.0,0.0,0.0,0.0,0.0,0.0,0.0,0.0,0.0,0.0,0.0,3.6408,3.8417,4.0849,4.1351,4.1354,4.0852,4.1605,4.1982,4.1555,4.1476,4.1476,4.1476,4.1982,4.2313,4.2313,0.0,0.0,0.0,0.0,4.2986,4.2986,4.2986,4.2986,4.2986,4.2986,4.274,4.2238,4.266,4.2359,4.1401,4.1882,4.1555,4.0701,4.0576,4.0199,3.9647,3.917,3.927,3.9697,3.9697,3.9371,0.0,0.0,0.0,0.0,3.7211,3.6857,3.6329,3.578,3.5583,3.5483,3.4931,3.4449,3.4048,3.3922,3.3545,3.3144,3.3093,3.3111,3.3111,3.3111,3.2616,3.2064,3.1587,3.1009,3.0457,2.998,2.9402,2.8988,2.8988,2.8549,0.0,2.7519,2.7344,2.7128,2.665,0.0,0.0,2.5737,2.534,2.4944,2.454,2.3647,2.2706,2.172,2.1694,2.1981,2.259,2.2414,2.2963,2.4269,2.4369,2.4044,2.3195,2.0104,1.9143,0.0,0.0,0.0,0.0,0.0,0.0,0.0,0.0,0.0,0.0,0.0,0.0,0.0,0.0,0.0,3.5776,3.8191,4.0049,4.0601,4.1831,4.261,4.2509,4.2363,4.2338,4.2635,4.266,4.266,4.266,4.276,4.2866,4.2866,4.2911,0.0,4.2986,4.2986,4.2986,4.2986,4.2986,4.2986,4.2986,0.0,0.0,4.2213,4.2313,4.2263,4.2037,4.163,4.163,4.181,4.0877,4.0199,3.9697,3.9572,3.9597,3.9697,3.9697,3.9622,3.9471,3.9019,3.8417,3.7764,3.7337,3.6857,3.638,3.6279,3.6207,0.0,3.5483,3.5257,3.4981,3.4123,3.3822,3.3621,3.3194,3.3111,3.3111,3.3111,3.2616,3.219,3.2064,3.126,3.0583,3.0482,3.0005,2.9628,2.9628,2.9126,2.8687,2.8587,2.7846,2.7278,2.7178,2.6751,2.6449,2.6348,2.6054,2.5665,2.5166,2.4361,2.3571,2.2895,2.2869,2.3151,2.3677,2.2828,2.335,2.5301,2.3666,2.3173,2.3817,2.2679,2.1781,0.0,0.0,0.0,0.0,0.0,0.0,0.0,0.0,0.0,0.0,0.0,3.1009,3.2416,0.0,3.6508,3.8165,3.9597,4.0802,4.163,4.2208,4.2615,4.2615,4.2615,4.274,4.2961,4.2986,4.2986,4.2986,4.2986,4.2986,4.2986,4.2986,4.2986,4.2986,4.2986,4.2986,4.2986,4.2986,4.2986,4.2986,4.2986,4.274,4.2213,4.2213,4.2213,4.2187,4.1856,4.1907,4.2112,4.0978,4.035,4.0074,3.9798,3.9697,3.9697,3.9697,3.9697,3.9647,3.9371,3.8919,3.8341,3.7789,3.7236,3.6782,3.648,3.6405,3.6355,3.6031,3.5708,3.5382,3.4831,3.4299,3.3822,3.3545,3.3312,3.3111,3.3111,3.2842,3.2566,3.2265,3.1788,3.1235,3.0708,3.0382,3.0105,2.9829,2.9553,2.9252,2.8938,2.8411,2.7896,2.7379,2.7077,2.6801,2.6524,2.624,2.5909,2.5472,2.5122,2.47,2.4125,2.3812,2.392,2.4501,2.3391,2.3904,2.6129,2.45,2.4259,2.5347,2.4745,2.3689,0.0,0.0,0.0,0.0,0.0,0.0,0.0,2.836,2.9076,3.1411,3.2943,3.4349,3.5859,3.7362,3.8818,4.0275,4.0701,4.1304,4.2635,4.259,4.2338,4.2213,4.269,4.2986,4.2986,4.2986,4.2986,4.2986,4.2986,4.2986,4.2986,4.2986,4.2986,4.2986,4.2986,4.2986,4.2986,4.2986,4.2986,4.2986,4.2986,4.274,4.2213,4.2213,4.2213,4.2213,4.2313,4.2313,4.2137,4.1204,4.0701,4.0475,4.0023,3.9798,3.9697,3.9697,3.9697,3.9697,3.9697,3.932,3.8844,3.8316,3.7713,3.7111,3.6707,3.648,3.6405,3.6405,3.6031,3.5633,3.5533,3.4831,3.4173,3.3947,3.3571,3.3219,3.3093,3.3111,3.2943,3.2466,3.229,3.1938,3.1085,3.0758,3.0432,2.988,2.9804,2.9628,2.9151,2.8963,2.8574,2.7767,2.749,2.7173,2.6721,2.6408,2.6128,2.5844,2.5918,2.572,2.5175,2.4793,2.4851,2.5315,2.4517,2.5024,2.6843,2.5827,2.5877,2.689,2.614,2.5069,2.5435,2.536,2.5988,2.7935,2.8147,2.9001,0.0,3.3445,3.3194,3.5881,3.6584,3.7086,3.8266,3.9044,3.9722,4.04,4.1329,4.2087,4.2263,4.2665,4.271,4.2263,4.269,4.2986,4.2986,4.2986,4.2986,4.2986,4.2986,4.2986,4.2986,4.2986,4.2986,4.2986,4.2986,4.2986,4.2986,4.2986,4.2986,4.2986,4.2986,4.274,4.2213,4.2213,4.2213,4.2238,4.2715,4.2665,4.2213,4.2087,4.1404,4.0501,4.045,4.0124,3.9697,3.9697,3.9697,3.9697,3.9697,3.932,3.8919,3.8844,3.804,3.7186,3.7111,3.6807,3.6405,3.6405,3.6355,3.6157,3.5633,3.5408,3.5082,3.4123,3.3847,3.3671,3.3194,3.3111,3.3068,3.2993,3.2566,3.2164,3.2064,3.1235,3.0432,2.988,2.9804,2.9779,2.9704,2.9252,2.8913,2.8985,2.8124,2.7452,2.7232,2.7027,2.6812,2.6576,2.6582,2.6321,2.5746,2.623,2.6508,2.6532,2.7017,2.7367,2.748,2.6895,2.6953,2.7565,2.6371,2.5672,2.885,2.875,2.8976,3.0859,3.1888,3.3101,3.5881,3.6207,3.6558,3.8693,3.9371,3.9647,3.9798,4.0551,4.1103,0.0,4.1656,4.2313,4.264,4.2615,4.2464,4.2238,4.2082,4.2158,4.2514,4.2841,4.2986,4.2986,4.2986,4.3112,4.3438,4.3463,4.3614,4.3915,4.394,4.394,4.394,4.394,4.3765,4.3463,4.3463,4.3162,4.2665,4.2363,4.2213,4.2238,4.2791,4.2836,4.2665,4.2338,4.1936,4.1404,4.0777,4.0375,4.0124,3.9823,3.9697,3.9697,3.9697,3.9546,3.9245,3.8592,3.804,3.7538,3.6933,3.6581,3.6405,3.6405,3.6405,3.6355,3.6081,3.578,3.5382,3.4931,3.4374,3.3847,3.3596,3.3294,3.3111,3.3111,3.2893,3.2659,3.2499,3.1751,3.1044,3.0528,3.0174,2.9934,2.9818,2.9693,2.953,2.925,2.8624,2.8113,2.779,2.7704,2.748,2.7177,2.7517,2.7476,2.6817,2.7117,2.7301,2.7298,2.725,2.7561,2.8226,2.7648,2.764,2.8152,2.7699,2.7457,3.0783,3.111,3.1687,3.3345,3.4876,3.6332,3.7588,3.8191,3.8894,4.0425,4.0874,4.0949,4.0601,4.1153,4.163,4.1326,4.1806,4.2414,4.2911,4.2564,4.2162,4.1957,4.158,4.143,4.1681,4.2389,4.2811,4.2961,4.2986,4.3212,4.3765,4.379,4.4066,4.4593,4.4468,4.4392,4.4392,4.4242,4.3966,4.3589,4.374,4.3514,4.2961,4.2615,4.2439,4.2464,4.2811,4.2986,4.2936,4.2615,4.2338,4.2137,4.1279,4.0777,4.0475,4.0074,3.9823,3.9697,3.9697,3.9697,3.9546,3.8743,3.8266,3.7864,3.7061,3.6656,3.6405,3.6405,3.6405,3.6405,3.6405,3.6081,3.5683,3.5533,3.4881,3.4274,3.3972,3.3614,3.333,3.3162,3.3154,3.3114,3.2853,3.2345,3.1787,3.1309,3.0828,3.0317,2.992,3.0126,3.005,2.9425,2.9357,2.9177,2.8751,2.8533,2.8279,2.8086,2.8335,2.8287,2.7822,2.8207,2.8395,2.8208,2.8138,2.8361,2.8944,2.8654,2.8706,2.907,2.8949,2.8957,2.998,3.1386,3.3395,3.5006,3.6307,3.7563,3.9245,3.9622,3.9973,4.1025,4.0849,4.0526,4.0526,4.0551,4.0727,4.12,4.1806,4.2414,4.2911,4.2564,4.1957,4.1376,4.13,4.1075,4.0626,4.1555,4.2464,4.2936,4.2986,4.3212,4.3765,4.379,4.4066,4.4593,4.4116,4.3815,4.3815,4.3288,4.3011,4.3011,4.3539,4.3514,4.2986,4.2961,4.2961,4.2961,4.2961,4.2986,4.2986,4.2961,4.269,4.2213,4.2162,4.1455,4.0526,4.0501,4.0149,3.9697,3.9697,3.9697,3.9697,3.9647,3.8894,3.799,3.7965,3.7211,3.6405,3.6405,3.6405,3.6405,3.6405,3.6405,3.6207,3.5633,3.5483,3.5157,3.4123,3.4048,3.3958,3.3212,3.3283,3.3386,3.3386,3.2904,3.2453,3.2096,3.1705,3.1139,3.0215,3.0432,3.0427,2.9833,3.0457,3.0759,3.0371,2.9639,2.9254,2.9448,2.8872,2.8481,2.8481,2.9721,3.0119,2.9445,3.0689,3.0748,2.9479,3.012,3.0451,3.0421,2.9754,2.9813,3.2164,3.3872,3.56,3.686,3.8291,3.9647,4.0576,4.0724,4.0849,4.12,4.0601,3.9747,3.8994,3.9471,4.0023,4.0224,4.1329,4.2414,4.2911,4.2564,4.1957,4.1351,4.0974,0.0,4.0526,4.1178,0.0,4.2439,4.2816,4.3388,4.4292,4.4719,4.5171,4.5723,4.5221,4.492,4.492,4.4342,4.389,4.3539,4.3714,4.3514,4.2986,4.3363,4.3313,4.2986,4.2986,4.2986,4.2986,4.2986,4.2861,4.2715,4.2363,4.1986,4.153,4.0777,4.04,4.0199,3.9823,3.9697,3.9647,3.927,3.8894,3.8442,3.7688,3.7211,3.6883,3.6505,3.6405,3.6405,3.6405,3.6405,3.6355,3.6132,3.5805,3.5408,3.5031,3.4469,3.3979,3.3864,3.3622,3.3496,3.3836,3.3389,3.2735,3.2006,3.1242,3.0688,3.0534,3.0622,3.062,3.0413,3.1186,3.1495,3.0996,3.1171,3.1199,3.0842,3.1043,3.0764,2.9863,3.1088,3.1521,3.084,3.1738,3.2159,3.2128,3.2372,3.228,3.1849,3.2035,3.2035,3.4173,3.5751,3.7059,3.8517,3.9722,4.0601,4.0953,4.1,4.0874,4.0551,3.9572,3.8517,3.7588,3.7688,3.8316,3.9496,4.0425,4.1509,4.2785,4.2564,4.2087,4.1681,4.1153,4.0802,4.0802,4.1075,0.0,4.2162,4.2836,4.3664,4.4568,4.5171,4.5748,4.6301,4.5573,4.5171,4.5171,4.4418,4.3966,4.379,4.379,4.3614,4.3288,4.3639,4.3489,4.2986,4.2986,4.2986,4.2986,4.2986,4.2986,4.2936,4.264,4.2389,4.2112,4.1354,4.0852,4.0425,3.9898,3.9697,3.9647,3.927,3.9044,3.8793,3.8015,3.7513,3.7111,3.6807,3.6556,3.6405,3.6405,3.6405,3.6405,3.6405,3.6175,3.5873,3.5672,3.5097,3.4546,3.4361,3.3964,3.3852,3.4413,3.4106,3.3675,3.3373,3.2376,3.1543,3.1224,3.1431,3.1579,3.1579,3.2362,3.273,3.234,3.2597,3.2616,3.2249,3.2381,3.2095,3.1251,3.2256,3.266,3.2217,3.263,3.3053,3.3484,3.3484,3.33,3.2897,3.33,3.3269,3.5877,3.6933,3.7889,3.9998,4.0526,4.0526,4.0526,4.045,4.0074,3.8969,3.7789,3.6832,3.6254,3.5328,3.5755,3.8994,3.9195,3.9898,4.261,4.259,4.2238,4.2213,4.1731,4.1351,4.1326,4.1351,0.0,4.2263,0.0,4.4066,4.4644,4.5221,4.5773,4.6301,4.5221,4.4618,4.4618,4.3539,4.3237,4.3765,4.3815,4.384,4.379,4.384,4.3539,4.3011,4.2986,4.2986,4.2986,4.2986,4.2986,4.2986,4.2986,4.2715,4.2263,4.2213,4.148,4.0475,3.9923,3.9722,3.9697,3.9697,3.9346,3.8969,3.8919,3.8115,3.7262,3.7211,3.6857,3.643,3.6405,3.6405,3.6405,3.6452,3.6615,3.665,3.6116,3.5968,3.5649,3.4838,3.4418,3.4439,3.5224,3.5115,3.5166,3.5985,3.4924,3.3608,3.2373,3.2846,3.3241,3.3178,3.3871,3.4312,3.4312,3.3856,3.3602,3.3602,3.299,3.264,3.2611,3.3235,3.3574,3.3544,3.3574,3.3604,3.3604,3.3604,3.3604,3.3604,3.3604,3.3604,3.6709,3.8592,4.0272,4.0475,4.0526,4.0526,4.0526,3.9546,3.8341,3.7285,3.5525,3.3822,3.2842,3.3445,3.4801,3.6933,3.8843,0.0,4.271,4.2861,4.2665,4.2263,4.2409,4.2409,4.1982,4.2308,0.0,0.0,4.3639,4.4242,4.5221,4.5799,4.6175,4.6301,4.5221,4.4618,4.4618,4.3539,4.3062,4.3187,4.4016,4.4192,4.3815,4.4217,4.4116,4.3564,4.3162,4.2986,4.2986,4.2986,4.2986,4.2986,4.2986,4.2886,4.2766,4.2363,4.1731,4.1,4.0501,4.0049,3.9697,3.9697,3.9597,3.9396,3.9045,3.8718,3.8316,3.7412,3.7086,3.6885,3.6505,3.6405,3.6615,3.7448,3.7723,3.7763,3.7813,3.7519,3.6876,3.5693,3.5373,3.5534,3.6346,3.6403,3.6308,3.6117,3.623,3.5699,3.3912,3.3816,3.3754,3.3269,3.3871,3.4312,3.4312,3.4725,3.4993,3.4993,3.4845,3.4518,3.4012,3.4616,3.4771,3.4264,3.4741,3.4981,3.4981,3.4981,3.4981,3.4981,3.4981,3.4981,3.8668,3.9973,4.0899,4.0902,4.0526,3.9898,3.8919,3.7789,3.6332,3.4274,3.2466,3.0984,3.0105,3.1135,3.2867,3.5253,3.7764,4.0174,4.2363,4.2866,4.2961,4.2886,4.3162,4.3313,4.3237,4.3514,4.394,0.0,4.4317,4.4543,4.5447,4.5773,4.5949,4.5949,4.4844,4.4141,4.3915,4.3288,4.2986,4.2986,4.4091,4.4342,4.3815,4.4367,4.4317,4.3765,0.0,4.2986,4.2986,4.2986,4.2986,4.2986,4.2986,4.2986,4.2936,4.269,4.2158,4.1605,4.1078,4.0526,4.0023,3.9772,3.9697,3.9647,3.932,3.912,3.8793,3.8165,3.7563,3.7255,3.7471,3.7028,3.6943,3.8514,3.8675,3.8585,3.9139,3.8896,3.8199,3.6934,3.6988,3.7271,3.7443,3.7462,3.7501,3.7531,3.7614,3.7237,3.6186,3.5578,3.5079,3.4703,3.4752,3.4839,3.4839,3.5231,3.5519,3.5519,3.5519,3.534,3.4951,3.531,3.531,3.4951,3.531,3.5519,3.5519,3.5519,3.5519,3.5519,3.5519,3.5519,4.0648,4.0924,4.0827,4.1175,4.045,3.9019,3.6908,3.5705,3.4154,3.0994,2.9428,2.8448,2.7971,2.8875,3.0758,3.4073,3.6458,3.8894,4.181,4.269,4.3187,4.374,4.394,4.4217,4.4694,4.4744,4.497,4.5547,4.507,4.497,4.5472,4.5497,4.5422,4.5271,4.4317,4.3539,4.2986,4.2986,4.2986,4.2986,4.4091,4.4367,4.3915,4.4392,4.4367,4.3865,0.0,0.0,4.2986,4.2986,4.2986,4.2986,4.2986,4.2986,4.2986,4.2986,4.269,4.2137,4.1605,4.1053,4.0425,3.9873,3.9697,3.9697,3.9697,3.9397,3.907,3.8944,3.8314,3.7868,3.8705,3.808,3.769,3.9651,3.9694,3.9502,4.0275,4.0055,3.9408,3.85,3.881,3.9082,3.8585,3.8468,3.873,3.9331,3.8797,3.8407,3.8531,3.7494,3.6716,3.6626,3.6028,3.5639,3.5639,3.5549,3.5519,3.5519,3.5519,3.5519,3.5519,3.5519,3.5519,3.5519,3.5519,3.5519,3.5519,3.5579,3.5579,3.5519,3.5669,3.5699,4.0551,4.1254,4.1781,4.1376,4.0174,3.8567,3.681,3.4525,3.2072,2.9665,2.7971,2.6901,2.6801,2.8021,3.0181,3.3495,3.5881,3.8467,4.176,4.269,4.3187,4.374,4.4618,4.5221,4.5321,4.5347,0.0,0.0,0.0,4.5372,4.5472,4.5497,4.507,4.4116,4.389,4.3539,4.2986,4.2986,4.2986,4.2986,4.4091,4.4568,4.4493,4.4593,4.4568,4.4418,0.0,0.0,4.2986,4.2986,4.2986,4.2986,4.2986,4.2986,4.2986,4.2986,4.269,4.2213,4.2112,4.1354,4.0425,3.9873,3.9697,3.9697,3.9697,3.9776,3.9753,3.9095,3.9541,3.9957,3.9149,3.936,4.0121,4.1071,4.1211,4.1211,4.1645,4.0629,3.9828,4.0366,4.0184,3.9954,4.001,4.0033,3.9891,3.9463,3.9265,3.9199,3.9224,3.8542,3.7853,3.7315,3.6686,3.6327,3.6327,3.5818,3.5519,3.5519,3.5519,3.5519,3.5519,3.5519,3.5519,3.5519,3.5519,3.5519,3.5519,3.6058,3.6028,3.5519,3.6596,3.6806,4.1555,4.1756,4.1656,4.1351,3.9647,3.7337,3.4801,3.2516,3.008,2.6992,2.5737,2.5084,2.4782,2.6314,2.8448,3.0909,3.3169,3.5956,3.995,4.0729,4.1681,4.3966,4.4719,4.5271,4.5849,4.5924,4.5899,0.0,0.0,4.5497,4.5497,4.492,4.4217,4.3388,4.3363,4.3237,4.2986,4.2986,4.2986,4.2986,4.4091,4.4618,4.4618,4.4618,4.4618,4.4568,4.3463,0.0,4.2986,4.2986,4.2986,4.2986,4.2986,4.2986,4.2986,4.2986,4.2811,4.259,4.2313,4.163,4.0852,4.03,3.9923,3.9697,3.9697,3.98,3.9827,3.9626,4.015,4.0808,4.095,4.095,4.1199,4.2653,4.2743,4.2508,4.2659,4.2111,4.1587,4.1735,4.1489,4.1231,4.0988,4.0905,4.0696,4.0038,3.9918,3.9798,3.9433,3.914,3.8661,3.8003,3.7345,3.6956,3.6956,3.6686,3.6507,3.6507,3.6507,3.6507,3.6507,3.6507,3.6507,3.6507,3.6507,3.6507,3.6507,3.6806,3.6806,3.6507,3.7135,3.7255,4.2208,4.2082,4.148,4.13,3.9245,3.6307,3.2968,3.0683,2.8247,2.4732,2.3904,2.3703,2.3346,2.4858,2.6716,2.8587,3.0683,3.3545,3.7889,3.8919,4.0526,4.4041,4.4669,0.0,4.62,4.6301,0.0,0.0,0.0,0.0,4.5121,4.4166,4.3413,4.2986,4.2986,4.2986,4.2986,4.2986,4.3037,4.3162,4.4141,4.4694,4.4794,4.4694,4.4618,4.4568,4.3463,0.0,0.0,4.2986,4.2986,4.2986,4.2986,4.2986,4.2986,4.2986,4.2986,4.2911,4.2539,4.1907,4.12,4.0774,4.0249,3.9697,3.9697,3.9878,4.0185,4.0364,4.1054,4.1937,4.2972,4.2632,4.2338,4.3731,4.3678,4.329,4.329,4.329,4.314,4.2671,4.262,4.241,4.1752,4.1632,4.1422,4.0696,4.0487,4.0217,3.9709,3.9499,3.92,3.8661,3.8003,3.7614,3.7614,3.7494,3.7404,3.7404,3.7404,3.7404,3.7404,3.7404,3.7404,3.7404,3.7404,3.7404,3.7404,3.7554,3.7554,3.7434,3.7704,3.7764,4.1125,4.1781,4.1957,4.1455,3.9245,3.6307,3.2968,2.9779,2.6841,2.4481,2.3547,2.3321,2.3828,2.4506,2.5803,2.8461,3.0357,3.2842,3.6784,3.9094,4.1229,4.3589,0.0,0.0,4.625,4.6301,0.0,0.0,0.0,0.0,0.0,4.3388,4.3037,4.2986,4.2986,4.2986,4.2986,4.2986,4.3237,4.374,4.4342,4.4895,4.5397,4.4869,4.4618,4.4568,0.0,0.0,0.0,4.2986,4.2986,4.2986,4.2986,4.2986,4.2986,4.2986,4.2986,4.2961,4.2911,4.2208,4.1275,4.1225,4.0551,3.9697,3.9697,4.0516,4.1419,4.1468,4.2999,4.4641,4.4342,4.4458,4.446,4.3598,4.3349,4.329,4.329,4.329,4.326,4.323,4.32,4.303,4.241,4.2321,4.2081,4.1384,4.0786,4.0367,4.0307,3.9798,3.9409,3.932,3.8721,3.8302,3.8302,3.7764,3.7404,3.7404,3.7404,3.7404,3.7404,3.7404,3.7404,3.7404,3.7404,3.7404,3.7404,3.8003,3.8003,3.7434,3.8661,3.8901,4.0724,4.1254,4.1204,4.125,3.8693,3.5403,3.2416,2.9428,2.6565,2.4004,2.3271,2.317,2.3396,2.3622,2.4449,2.659,2.7218,2.9026,3.3545,3.4951,3.7211,4.1781,4.3011,0.0,0.0,0.0,0.0,0.0,0.0,0.0,0.0,4.3463,4.2986,4.2986,4.2986,4.2986,4.2986,4.2986,4.3263,4.3815,4.4367,4.492,4.5472,4.4895,4.4618,4.4568,0.0,0.0,0.0,4.2986,4.2986,4.2986,4.2986,4.2986,4.2986,4.2986,4.2986,4.2986,4.2986,4.2258,4.1275,4.1275,4.1076,4.0844,4.0844,4.1591,4.2544,4.2882,4.3975,4.5058,4.5191,4.5198,4.4941,4.4097,4.3589,4.329,4.329,4.329,4.329,4.329,4.329,4.32,4.3,4.294,4.2731,4.2111,4.1782,4.1294,4.0487,4.0157,3.9858,3.9469,3.917,3.902,3.902,3.8781,3.8601,3.8601,3.8601,3.8601,3.8601,3.8601,3.8601,3.8601,3.8601,3.8601,3.8601,3.8871,3.8871,3.8631,3.9134,3.926,3.9595,4.0199,4.0174,4.0701,3.8015,3.453,3.1788,2.9026,2.6289,2.3647,2.3095,2.3095,2.3095,2.3095,2.3547,2.4908,2.536,2.6992,3.116,3.2441,3.4801,3.9772,0.0,4.2459,0.0,0.0,0.0,0.0,0.0,0.0,0.0,4.3639,4.3212,4.3212,4.3212,4.3137,4.2986,4.3288,4.3664,4.4041,4.4618,4.5095,4.5472,4.4895,4.4543,4.4317,0.0,0.0,0.0,4.2986,4.2986,4.2986,4.2986,4.2986,4.2986,4.2986,4.2986,4.2986,4.2986,4.2608,4.2042,4.1487,4.206,4.2906,4.2306,4.2882,4.374,4.421,4.4978,4.575,4.5888,4.5645,4.5125,4.4466,4.3768,4.329,4.329,4.329,4.329,4.329,4.329,4.329,4.329,4.329,4.314,4.2731,4.253,4.2081,4.1085,4.0816,4.0516,4.0038,3.9828,3.9619,3.9439,3.9373,3.9373,3.9373,3.9373,3.9373,3.9373,3.9373,3.9373,3.9373,3.9373,3.9373,3.9373,3.9373,3.9373,3.9373,3.9373,3.9373,3.7437,3.8467,3.907,3.9572,3.7211,3.4022,3.126,2.8473,2.5871,2.3572,2.3095,2.3095,2.3095,2.3095,2.3296,2.3929,2.5837,2.8047,3.0306,3.2968,3.5529,0.0,0.0,4.0576,4.2811,0.0,0.0,0.0,0.0,0.0,0.0,4.379,4.379,4.379,4.379,4.3539,4.2986,4.4066,4.4618,4.4618,4.5196,4.5472,4.5472,4.4895,4.4317,0.0,0.0,0.0,0.0,4.2986,4.2986,4.2986,4.2986,4.2986,4.2986,4.2986,4.2986,4.2986,4.2986,4.3493,4.3835,4.191,4.3621,4.5963,4.4049,4.4163,4.5024,4.5298,4.6299,4.7116,4.6459,4.5813,4.5125,4.4466,4.3768,4.329,4.329,4.329,4.329,4.329,4.329,4.329,4.329,4.329,4.329,4.329,4.2761,4.2381,4.2381,4.1811,4.1422,4.1392,4.0786,4.0127,3.9433,3.9373,3.9373,3.9373,3.9373,3.9373,3.9373,3.9373,3.9373,3.9373,3.9373,3.9373,3.9373,3.9373,3.9373,3.9373,3.9373,3.9373,3.4148,3.5052,3.5504,3.568,3.3822,3.1386,2.9352,2.7318,2.536,2.3471,2.3095,2.3095,2.3095,2.3095,2.3772,2.5912,2.6816,2.8197,3.0783,3.2893,0.0,3.7688,4.1354,4.4066,0.0,0.0,0.0,0.0,0.0,0.0,0.0,4.4418,4.3639,4.3237,4.3614,4.3714,4.3539,4.4267,4.4819,4.5221,4.4995,4.5095,4.5447,4.4493,0.0,0.0,0.0,0.0,0.0,4.2986,4.2986,4.2986,4.2986,4.2986,4.2986,4.2986,4.2986,4.3042,4.3184,4.3684,4.4045,4.3232,4.4519,4.6224,4.5103,4.5508,4.6299,4.6388,4.6844,4.7249,4.704,4.6501,4.5813,4.5155,4.4496,4.3858,4.3379,4.329,4.329,4.329,4.329,4.329,4.329,4.329,4.329,4.329,4.311,4.288,4.244,4.2201,4.1931,4.1482,4.1205,4.0816,4.0157,3.9679,3.9373,3.9373,3.9373,3.9373,3.9373,3.9373,3.9373,3.9373,3.9373,3.9373,3.9373,3.9373,3.9649,4.0098,4.0546,4.0756,3.121,3.224,3.2767,3.3169,3.1612,2.9603,2.8122,2.6515,2.4883,2.3396,2.3095,2.3095,2.3095,2.3095,2.3672,2.5435,2.6414,2.7832,3.0131,3.2265,0.0,3.7965,0.0,0.0,0.0,0.0,0.0,0.0,0.0,0.0,0.0,0.0,4.3865,4.3313,4.3815,4.4016,4.379,4.4769,4.5221,4.5171,4.502,4.492,4.4819,4.4116,0.0,0.0,0.0,0.0,0.0,4.2986,4.2986,4.2986,4.2986,4.2986,4.3017,4.3462,4.3351,4.3073,4.3823,4.4623,4.5148,4.4062,4.4774,4.5999,4.6104,4.655,4.7062,4.7062,4.7149,4.7309,4.7309,4.68,4.6142,4.5454,4.4796,4.4137,4.3439,4.329,4.329,4.329,4.329,4.329,4.329,4.329,4.329,4.329,4.329,4.314,4.2791,4.2731,4.2581,4.2162,4.1893,4.1632,4.1175,4.0546,4.0157,4.0157,4.0157,4.0157,4.0157,4.0157,4.0157,4.0157,4.0157,4.0157,4.0157,4.0157,4.0367,4.0786,4.1242,4.1422,0.0,2.9804,3.0482,3.1436,3.0116,2.8348,2.7293,2.5862,0.0,2.3321,2.3095,2.312,2.3221,2.3145,2.3195,2.3471,2.5285,2.7253,2.8888,3.1662,0.0,0.0,4.1157,0.0,0.0,0.0,0.0,0.0,0.0,0.0,0.0,0.0,4.4392,4.3865,4.4317,4.4342,4.3865,4.5447,4.5723,4.4694,4.5146,4.4819,4.379,4.3765,0.0,0.0,0.0,0.0,0.0,4.2986,4.2986,4.2986,4.2986,4.2986,4.3129,4.4261,4.4042,4.3351,4.467,4.6057,4.6901,4.4783,4.474,4.5779,4.6931,4.7309,4.7309,4.7309,4.7309,4.7309,4.7309,4.686,4.619,4.5544,4.4855,4.4197,4.3499,4.3349,4.3349,4.3349,4.3349,4.3349,4.3349,4.3319,4.329,4.329,4.329,4.329,4.329,4.329,4.329,4.329,4.2791,4.247,4.247,4.1811,4.1422,4.1422,4.1422,4.1422,4.1422,4.1422,4.1422,4.1422,4.1422,4.1422,4.1422,4.1482,4.1444,4.1444,4.1542,4.1504,2.5034,0.0,2.6741,2.659,2.6129,2.5611,0.0,2.4481,2.3979,2.3246,2.3095,2.3371,2.4224,2.3697,2.4073,2.7057,2.7996,2.9076,3.116,3.4951,0.0,4.2233,4.3865,0.0,0.0,0.0,0.0,0.0,0.0,0.0,0.0,0.0,4.4568,4.4443,4.4141,4.4141,4.4418,4.5271,4.5547,4.5271,4.4543,4.4066,4.379,4.3363,0.0,0.0,0.0,0.0,4.2986,4.2986,4.2986,4.2986,4.2986,4.2986,4.3129,4.4261,4.4615,4.4589,4.5182,4.6864,4.8636,4.8148,4.7446,4.6931,4.7222,4.7309,4.7309,4.7309,4.7309,4.7309,4.7309,4.7189,4.692,4.6232,4.5574,4.4885,4.4227,4.4077,4.4077,4.4077,4.4077,4.4077,4.4077,4.3618,4.329,4.329,4.329,4.329,4.329,4.329,4.329,4.329,4.314,4.312,4.312,4.2043,4.1422,4.1422,4.1422,4.1422,4.1422,4.1422,4.1422,4.1422,4.1422,4.1422,4.1422,4.1931,4.2171,4.2171,4.2641,4.2611,2.3496,2.4582,2.5586,2.5586,2.5385,2.5109,2.4808,2.4155,2.3471,2.317,2.3095,2.3371,2.428,2.4123,2.4725,2.7369,2.8423,3.0116,0.0,0.0,4.0676,4.3463,0.0,0.0,0.0,0.0,0.0,0.0,0.0,0.0,0.0,0.0,4.4242,4.4242,4.3966,4.394,4.4242,4.4819,4.497,4.4694,4.4091,4.3664,4.3413,4.3112,0.0,0.0,0.0,0.0,4.2986,4.2986,4.2986,4.2986,4.2986,4.2986,4.3184,4.4832,4.5235,4.5209,4.658,4.7869,4.8972,4.9234,4.8566,4.7698,4.7399,4.7309,4.7309,4.7309,4.7309,4.7309,4.7309,4.7309,4.713,4.6429,4.6022,4.5574,4.4915,4.4766,4.4766,4.4766,4.4766,4.4676,4.4377,4.4018,4.3738,4.3738,4.3499,4.3409,4.3708,4.3469,4.329,4.329,4.329,4.329,4.329,4.2671,4.2282,4.2282,4.2282,4.2282,4.2282,4.2282,4.2282,4.2282,4.2282,4.2132,4.1871,4.2231,4.2231,4.1961,4.2282,4.2252,2.3421,2.4657,2.5862,2.5971,2.5711,2.5435,2.5259,2.4098,2.3095,2.3095,2.317,2.3471,2.423,2.4833,2.5636,2.7027,2.8674,0.0,3.6232,3.8994,4.1354,4.3664,0.0,0.0,0.0,0.0,0.0,0.0,0.0,0.0,0.0,0.0,0.0,4.379,4.3714,4.3689,4.3689,4.4217,4.4267,4.379,4.3714,4.3438,4.2986,4.2986,0.0,0.0,0.0,0.0,4.2986,4.2986,4.2986,4.2986,4.2986,4.2986,4.3295,4.5529,4.5952,4.5661,4.8267,4.8933,4.8679,4.9116,4.888,4.8147,4.7489,4.7309,4.7309,4.7309,4.7309,4.7309,4.7309,4.7309,4.716,4.6621,4.6339,4.613,4.5574,4.5454,4.5454,4.5454,4.5454,4.5244,4.4586,4.4466,4.4436,4.4317,4.3888,4.3768,4.4257,4.3798,4.3439,4.3439,4.3349,4.3319,4.3439,4.3349,4.329,4.329,4.32,4.311,4.2991,4.2991,4.2991,4.2991,4.2991,4.2761,4.2261,4.2261,4.1961,4.1422,4.1422,4.1422,2.4833,2.6113,2.649,2.4173,2.4274,2.465,2.3697,2.3271,2.3095,2.3095,2.3496,2.433,2.5845,2.6575,2.772,3.0231,3.2441,3.5077,0.0,0.0,4.1505,0.0,0.0,0.0,0.0,0.0,0.0,0.0,0.0,0.0,0.0,0.0,0.0,4.379,4.3338,4.3112,4.3112,4.3639,4.389,4.379,4.3313,4.3062,4.2986,4.2986,4.2986,0.0,0.0,4.2986,4.2986,4.2986,4.2986,4.2986,4.2986,4.2986,4.3295,4.5714,4.6682,4.7146,4.9873,4.9875,4.8679,4.9116,4.888,4.8147,4.7489,4.7309,4.7309,4.7309,4.7309,4.7309,4.7309,4.7309,4.7279,4.7189,4.6741,4.6249,4.6202,4.6172,4.6172,4.6172,4.6172,4.5933,4.5274,4.5155,4.4945,4.4407,4.4706,4.4825,4.4377,4.4227,4.4167,4.4167,4.3618,4.3529,4.4107,4.3618,4.329,4.329,4.2821,4.2291,4.1713,4.1683,4.1683,4.1683,4.1683,4.1624,4.1572,4.1572,4.1512,4.1422,4.1422,4.1422,2.4023,2.5084,2.5711,2.4707,2.5988,2.7293,2.643,2.5778,2.5385,2.5385,2.536,2.577,2.7128,2.8047,2.9729,3.3093,3.5253,3.7362,3.9798,4.0877,0.0,0.0,0.0,0.0,0.0,0.0,0.0,0.0,0.0,0.0,0.0,0.0,0.0,0.0,4.3112,4.2986,4.2986,4.3237,4.3363,4.3363,4.3112,4.2986,4.2986,4.2986,4.2986,4.2986,0.0,4.2986,4.2986,4.2986,4.3351,4.3932,4.3932,4.4344,4.5262,4.7299,4.8489,4.9308,5.0698,5.0662,4.9994,4.9835,4.9344,4.873,4.8027,4.7578,4.7309,4.7309,4.7309,4.7309,4.7309,4.7309,4.7309,4.7309,4.707,4.686,4.686,4.686,4.686,4.686,4.686,4.6651,4.5963,4.5843,4.5633,4.4945,4.4796,4.4646,4.4347,4.3977,4.3888,4.4287,4.4007,4.4137,4.4796,4.4556,4.4077,4.3349,4.306,4.2761,4.2462,4.2432,4.2432,4.2432,4.2432,4.2252,4.1961,4.1961,4.1752,4.1422,4.1422,4.1422,2.3547,2.4224,2.5001,2.5963,2.7519,2.8825,2.8863,2.8172,2.7544,2.7821,2.7781,2.7882,2.8574,3.003,3.229,3.5708,3.7613,3.9145,4.0676,0.0,0.0,0.0,0.0,0.0,0.0,0.0,0.0,0.0,0.0,0.0,0.0,0.0,0.0,0.0,4.2986,4.2986,4.2986,4.2986,4.2986,4.2986,4.2986,4.2986,4.2986,4.2986,4.2986,4.2986,4.2986,4.3129,4.3406,4.3406,4.4042,4.5101,4.5101,4.5952,4.7378,4.8688,4.9921,5.0917,5.1105,5.1229,5.1109,5.0405,4.9912,4.9344,4.8536,4.7938,4.7489,4.7339,4.7309,4.7309,4.7309,4.7309,4.7309,4.7309,4.7309,4.7309,4.7309,4.7309,4.7309,4.7309,4.7309,4.71,4.6441,4.6441,4.6322,4.5633,4.5244,4.4915,4.4586,4.4107,4.3888,4.4287,4.4167,4.4347,4.5005,4.5065,4.4646,4.3589,4.3379,4.317,4.288,4.288,4.288,4.288,4.288,4.2641,4.2171,4.2171,4.1901,4.1422,4.1422,4.1474,2.4858,2.5134,2.5277,2.7419,2.6892,2.644,2.8436,2.8473,2.8348,2.9402,3.0382,3.0909,3.0507,3.2975,3.5859,3.8241,3.9597,4.0727,0.0,0.0,0.0,0.0,0.0,0.0,0.0,0.0,0.0,0.0,0.0,0.0,0.0,0.0,0.0,0.0,0.0,4.2986,4.2986,4.2986,4.2986,4.2986,4.2986,4.2986,4.2986,4.2986,4.2986,4.2986,4.2986,4.3628,4.4587,4.4587,4.5182,4.6162,4.6162,4.7201,4.8696,4.9063,5.0047,5.1182,5.1182,5.1229,5.1109,5.0405,5.0166,4.9897,4.8656,4.8267,4.8087,4.7489,4.7309,4.7309,4.7309,4.7309,4.7309,4.7309,4.7309,4.7309,4.7309,4.7309,4.7309,4.7309,4.7309,4.71,4.6441,4.683,4.701,4.6309,4.6741,4.6651,4.5394,4.5185,4.4945,4.4377,4.3738,4.3618,4.4317,4.4377,4.4347,4.4257,4.3618,4.2751,4.1564,4.1534,4.1534,4.1534,4.1534,4.1542,4.1444,4.1444,4.1482,4.1422,4.1422,4.1752,2.3753,2.4399,2.5327,2.757,2.7871,2.8247,3.0457,3.1612,3.2541,3.3671,3.3947,3.3878,3.3677,3.5253,3.7186,3.9069,4.03,0.0,0.0,0.0,0.0,0.0,0.0,0.0,0.0,0.0,0.0,0.0,0.0,0.0,0.0,0.0,0.0,0.0,0.0,4.2986,4.2986,4.2986,4.2986,4.2986,4.2986,4.2986,4.2986,4.2986,4.2986,4.2986,4.2986,4.3683,4.467,4.467,4.5767,4.7434,4.8524,4.9297,4.9912,5.0316,5.0745,5.1229,5.1229,5.1229,5.1169,5.0883,5.0524,5.0106,4.9643,4.8925,4.8237,4.7967,4.7608,4.7309,4.7309,4.7309,4.7309,4.7309,4.7309,4.7309,4.7309,4.7309,4.7309,4.7309,4.7309,4.7219,4.698,4.713,4.707,4.6369,4.6531,4.6352,4.5424,4.5304,4.5364,4.5544,4.5293,4.5125,4.4945,4.4915,4.4736,4.4347,4.3648,4.308,4.2611,4.2581,4.2581,4.2581,4.2581,4.2581,4.2581,4.2581,4.2581,4.2581,4.2581,4.2731,2.2995,2.3797,2.5084,2.7293,2.8524,2.988,3.2416,3.4048,3.5403,3.6885,3.6584,3.6135,3.6533,3.691,3.7789,0.0,4.0727,0.0,0.0,0.0,0.0,0.0,0.0,0.0,0.0,0.0,0.0,0.0,0.0,0.0,0.0,0.0,0.0,0.0,0.0,0.0,4.2986,4.2986,4.2986,4.2986,4.3351,4.3351,4.2986,4.2986,4.2986,4.3042,4.3406,4.4152,4.5235,4.5555,4.6867,4.8703,4.999,5.0501,5.0548,5.1041,5.1229,5.1229,5.1229,5.1229,5.1229,5.1229,5.0853,5.0435,5.0062,4.9314,4.8506,4.8087,4.7638,4.7309,4.7309,4.7309,4.7309,4.7309,4.7309,4.7309,4.7309,4.7309,4.7309,4.7309,4.7309,4.7309,4.7309,4.7309,4.716,4.6711,4.6621,4.6381,4.5693,4.5633,4.5723,4.5963,4.616,4.6052,4.5364,4.5304,4.5005,4.4347,4.3648,4.329,4.329,4.329,4.329,4.329,4.329,4.329,4.329,4.329,4.329,4.329,4.329,4.329,2.3095,2.3547,2.4556,2.6766,2.8574,3.0708,3.3997,3.5203,3.6232,3.8492,3.8015,3.7563,3.8668,3.7965,3.7939,4.0149,0.0,0.0,0.0,0.0,0.0,0.0,0.0,0.0,0.0,0.0,0.0,0.0,0.0,0.0,0.0,0.0,0.0,0.0,0.0,0.0,4.3042,4.3042,4.3042,4.3042,4.4206,4.4097,4.3042,4.3042,4.3042,4.3073,4.4206,4.5342,4.6424,4.7536,4.8703,4.9766,5.0279,5.0501,5.0548,5.1041,5.1229,5.1229,5.1229,5.1229,5.1229,5.1229,5.1229,5.096,4.9673,4.9299,4.903,4.7698,4.7309,4.7309,4.7309,4.7309,4.7309,4.7309,4.7309,4.7309,4.7309,4.7309,4.7309,4.7309,4.7309,4.7309,4.7309,4.7309,4.7309,4.7309,4.7309,4.707,4.6369,4.6279,4.6082,4.5364,4.5903,4.6052,4.5364,4.5304,4.5005,4.4377,4.3678,4.329,4.329,4.329,4.329,4.329,4.329,4.329,4.329,4.329,4.329,4.329,4.329,4.329,2.3095,2.4682,2.6666,2.8072,3.0859,3.3922,3.6458,3.7487,3.8567,4.0779,4.0601,3.9973,3.9521,3.9496,0.0,0.0,0.0,0.0,0.0,0.0,0.0,0.0,0.0,0.0,0.0,0.0,0.0,0.0,0.0,0.0,0.0,0.0,0.0,0.0,0.0,0.0,4.4206,4.4206,4.4561,4.5342,4.5661,4.5235,4.4206,4.4967,4.5342,4.5342,4.5714,4.658,4.7864,4.9001,4.9669,5.0038,5.0357,5.0567,5.0728,5.1088,5.1229,5.1229,5.1229,5.1229,5.1229,5.1229,5.1229,5.105,5.0212,4.9643,4.9149,4.8237,4.7668,4.7309,4.7309,4.7309,4.7309,4.7309,4.7309,4.7309,4.7309,4.7309,4.7309,4.7309,4.7309,4.7309,4.7309,4.7309,4.7309,4.7309,4.7309,4.7249,4.704,4.701,4.677,4.6082,4.6202,4.6052,4.5364,4.5304,4.5214,4.5005,4.4377,4.3768,4.3319,4.329,4.329,4.329,4.329,4.329,4.329,4.329,4.329,4.329,4.329,4.329,2.4023,2.5988,2.8298,2.9816,3.2298,3.5203,3.8291,3.9622,4.0654,4.2213,4.1882,4.1204,4.0752,4.0576,0.0,0.0,0.0,0.0,0.0,0.0,0.0,0.0,0.0,0.0,0.0,0.0,0.0,0.0,0.0,0.0,0.0,0.0,0.0,0.0,0.0,0.0,4.5342,4.5342,4.5661,4.6319,4.6764,4.666,4.6032,4.6242,4.6267,4.6319,4.6892,4.7864,4.912,4.9912,5.0231,5.0279,5.0519,5.068,5.0822,5.1105,5.1229,5.1229,5.1229,5.1229,5.1229,5.1229,5.1003,5.0674,5.0062,4.9404,4.8745,4.8087,4.7608,4.7309,4.7309,4.7309,4.7309,4.7309,4.7309,4.7309,4.7309,4.7309,4.7309,4.7309,4.7309,4.7309,4.7309,4.7309,4.7309,4.7309,4.7309,4.7309,4.7309,4.7309,4.716,4.6741,4.6711,4.6441,4.5753,4.5693,4.5574,4.5304,4.4915,4.4526,4.4137,4.3559,4.329,4.329,4.329,4.329,4.329,4.329,4.329,4.329,4.329,4.329,2.546,2.7293,2.9565,3.1763,3.3481,3.5739,3.9904,4.1752,4.2633,4.2916,4.2238,4.1739,4.2137,4.1379,0.0,0.0,0.0,0.0,0.0,0.0,0.0,0.0,0.0,0.0,0.0,0.0,0.0,0.0,0.0,0.0,0.0,0.0,0.0,0.0,0.0,0.0,4.6261,4.6261,4.6313,0.0,4.7499,4.7954,4.7954,4.7019,4.658,4.6684,4.8016,4.917,5.0135,5.0405,5.0548,5.0548,5.0728,5.0793,5.087,5.1105,5.1229,5.1229,5.1229,5.1229,5.1229,5.1229,5.0734,5.0076,4.9464,4.8805,4.8147,4.7489,4.7309,4.7309,4.7309,4.7309,4.7309,4.7309,4.7309,4.7309,4.7309,4.7309,4.7309,4.7309,4.7309,4.7309,4.7309,4.7309,4.7309,4.7309,4.7309,4.7309,4.7309,4.7309,4.7309,4.7309,4.7309,4.707,4.6471,4.6369,4.6142,4.5514,4.5424,4.5394,4.5394,4.4167,4.3469,4.3469,4.3469,4.3469,4.3469,4.3469,4.3469,4.3469,4.3469,4.3469,2.546,2.7871,3.0683,3.2441,3.6678,4.101,4.3187,4.4619,4.497,4.3326,4.3534,4.3633,4.2427,4.2308,0.0,0.0,0.0,0.0,0.0,0.0,0.0,0.0,0.0,0.0,0.0,0.0,0.0,0.0,0.0,0.0,0.0,0.0,0.0,0.0,0.0,4.5578,4.6138,4.6138,4.6609,0.0,4.7731,4.7827,4.7884,4.8591,4.9001,4.9001,4.9717,5.0086,5.0135,5.0537,5.0728,5.0728,5.0775,5.0917,5.1105,5.1182,5.1229,5.1229,5.1229,5.1229,5.1229,5.1229,5.0734,5.0076,4.9464,4.8805,4.8147,4.7489,4.7309,4.7309,4.7309,4.7309,4.7309,4.7309,4.7309,4.7309,4.7309,4.7309,4.7309,4.7309,4.7309,4.7309,4.7309,4.7309,4.7309,4.7309,4.7309,4.7309,4.7309,4.7309,4.7309,4.7309,4.7309,4.7249,4.71,4.71,4.704,4.689,4.6381,4.607,4.607,4.5304,4.4885,4.4885,4.4885,4.4885,4.4885,4.4885,4.4885,4.4885,4.4885,4.4885,2.5636,2.8273,3.1336,3.4299,3.864,4.2316,4.2866,4.4902,4.6149,4.4183,4.4315,4.4429,4.3547,0.0,0.0,0.0,0.0,0.0,0.0,0.0,0.0,0.0,0.0,0.0,0.0,0.0,0.0,0.0,0.0,0.0,0.0,0.0,0.0,0.0,4.5724,4.6132,4.6919,4.6919,4.7377,4.8217,4.7927,4.7782,4.7811,4.8478,4.8864,4.896,4.971,4.9999,5.0029,5.0704,5.1011,5.1011,5.1011,5.1058,5.1229,5.1229,5.1229,5.1229,5.1229,5.1229,5.1229,5.1229,5.0571,4.9703,4.9419,4.8805,4.8207,4.7878,4.7788,4.7788,4.7788,4.7549,4.7309,4.7309,4.7309,4.7309,4.7309,4.7309,4.7309,4.7309,4.7309,4.7309,4.7309,4.7309,4.7309,4.7309,4.7309,4.7309,4.7309,4.7309,4.7309,4.7309,4.7309,4.7309,4.7309,4.7309,4.7309,4.7309,4.698,4.68,4.68,4.6441,4.5963,4.5304,4.5304,4.5304,4.5304,4.5304,4.5304,4.5304,4.5304,4.5304,2.5544,2.8398,3.1955,3.6341,3.9767,4.1981,4.198,4.4423,4.6417,4.5418,4.5263,4.5128,0.0,0.0,0.0,0.0,0.0,0.0,0.0,0.0,0.0,0.0,0.0,0.0,0.0,0.0,0.0,0.0,0.0,0.0,0.0,0.0,4.5376,4.6192,4.624,4.6643,4.7462,4.7462,4.7724,4.8217,4.7695,4.7521,4.7608,4.7491,4.7689,4.8155,4.8992,4.9461,4.9799,5.0568,5.096,5.105,5.105,5.1109,5.1229,5.1229,5.1229,5.1229,5.1229,5.1229,5.1229,5.1229,5.0421,4.9434,4.9434,4.903,4.8446,4.8446,4.8446,4.8446,4.8446,4.7967,4.7489,4.7489,4.7399,4.7309,4.7309,4.7309,4.7309,4.7309,4.7309,4.7309,4.7309,4.7309,4.7309,4.7309,4.7309,4.7309,4.7309,4.7309,4.7309,4.7309,4.7309,4.7309,4.7309,4.7309,4.7309,4.7309,4.7309,4.7309,4.7309,4.7309,4.677,4.5663,4.5633,4.5633,4.5633,4.5633,4.5633,4.5633,4.5633,4.5633,2.4104,2.8072,3.303,3.7494,4.0017,4.2057,4.4276,4.4903,4.5443,4.7051,4.749,0.0,0.0,0.0,0.0,0.0,0.0,0.0,0.0,0.0,0.0,0.0,0.0,0.0,0.0,0.0,0.0,0.0,0.0,0.0,0.0,4.6823,4.7117,4.6738,4.6709,4.6541,4.6156,4.6127,4.6185,4.6272,4.6185,4.6417,4.694,4.6388,4.6874,4.8126,4.8475,4.8811,4.904,4.9403,4.9853,5.0315,5.0315,5.0674,5.1229,5.1229,5.1229,5.1229,5.1229,5.1229,5.1229,5.1229,5.072,5.0076,5.0076,4.9643,4.9179,4.9179,4.9179,4.9179,4.9179,4.8656,4.8147,4.8147,4.7728,4.7309,4.7309,4.7309,4.7309,4.7309,4.7309,4.7309,4.7309,4.7309,4.7309,4.7309,4.7309,4.7309,4.7309,4.7309,4.7309,4.7309,4.7309,4.7309,4.7309,4.7309,4.7309,4.7309,4.7309,4.7309,4.7309,4.7309,4.7219,4.704,4.704,4.704,4.704,4.704,4.704,4.704,4.704,4.704,2.5526,2.9325,3.3395,3.728,3.9706,4.1582,4.3389,4.4415,4.5358,4.6594,4.7395,0.0,0.0,0.0,0.0,0.0,0.0,0.0,0.0,0.0,0.0,0.0,0.0,0.0,0.0,0.0,0.0,0.0,0.0,0.0,4.5956,4.6449,4.6592,4.6301,4.6301,0.0,4.5895,4.5895,4.5895,4.5895,4.6243,4.6388,4.6301,4.6011,4.6411,4.7284,4.7772,4.8222,4.8611,4.9134,4.9434,4.9703,4.9703,5.0092,5.0614,5.0614,5.09,5.1229,5.1229,5.1229,5.1229,5.1229,5.0734,5.0196,5.0196,4.9986,4.9793,4.9793,4.9793,4.9793,4.9793,4.9314,4.888,4.888,4.8626,4.8416,4.8416,4.7818,4.7309,4.7309,4.7309,4.7309,4.7309,4.7309,4.7309,4.7309,4.7309,4.7309,4.7309,4.7309,4.7309,4.7309,4.7309,4.7309,4.7309,4.7309,4.7309,4.7309,4.7309,4.7309,4.7309,4.7309,4.7309,4.7309,4.7309,4.7309,4.7309,4.7309,4.7309,4.7309,4.7309,4.7309,2.6279,2.9264,3.2096,3.5973,3.8434,4.0394,4.214,4.3511,4.4721,0.0,0.0,0.0,0.0,0.0,0.0,0.0,0.0,0.0,0.0,0.0,0.0,0.0,0.0,0.0,0.0,0.0,0.0,0.0,0.0,0.0,4.585,4.5895,4.5895,4.5895,4.5895,4.5895,4.5895,4.5895,4.5982,4.6127,4.6446,4.6417,4.6127,4.5953,4.6164,4.6609,4.7155,4.7629,4.8087,4.8566,4.891,4.906,4.906,4.9404,5.0002,5.0136,5.0495,5.0943,5.1169,5.1229,5.1229,5.1229,5.0853,5.0435,5.0435,5.0435,5.0435,5.0435,5.0435,5.0435,5.0435,5.0002,4.9523,4.9523,4.9419,4.9299,4.9299,4.8506,4.7818,4.7818,4.7668,4.7549,4.7549,4.7429,4.7309,4.7309,4.7309,4.7309,4.7309,4.7309,4.7309,4.7309,4.7309,4.7309,4.7309,4.7309,4.7309,4.7309,4.7309,4.7309,4.7309,4.7309,4.7309,4.7309,4.7309,4.7309,4.7309,4.7309,4.7309,4.7309,4.7309,4.7309,2.4718,2.6289,2.8223,3.331,3.5977,3.8276,4.1653,4.2196,4.2755,0.0,0.0,0.0,0.0,0.0,0.0,0.0,0.0,0.0,0.0,0.0,0.0,0.0,0.0,0.0,0.0,0.0,0.0,0.0,0.0,0.0,4.5895,4.5895,4.5895,4.5895,4.5895,4.5895,4.5895,4.5895,4.6185,4.672,4.6214,4.6243,4.672,4.6156,4.6164,4.6609,4.6639,4.6903,4.7369,4.7399,4.7788,4.8327,4.8327,4.8745,4.9449,5.0002,5.0226,5.0315,5.099,5.1229,5.1229,5.1229,5.1199,5.1169,5.1169,5.1169,5.1169,5.1169,5.1169,5.1169,5.1169,5.0644,5.0136,5.0136,4.9733,4.9299,4.9299,4.9269,4.9209,4.9209,4.8656,4.8237,4.8237,4.7728,4.7309,4.7309,4.7309,4.7309,4.7309,4.7309,4.7309,4.7309,4.7309,4.7309,4.7309,4.7309,4.7309,4.7309,4.7309,4.7309,4.7309,4.7309,4.7309,4.7309,4.7309,4.7309,4.7309,4.7309,4.7309,4.7309,4.7309,4.7309,2.3848,2.6131,2.8711,3.1633,3.4331,3.6869,3.9162,4.0717,4.2195,0.0,0.0,0.0,0.0,0.0,0.0,0.0,0.0,0.0,0.0,0.0,0.0,0.0,0.0,0.0,0.0,0.0,0.0,0.0,0.0,0.0,4.5895,4.5895,4.5895,4.5895,4.5895,4.5895,4.5895,4.5895,4.6011,4.6214,4.5982,4.6072,4.6411,4.6178,4.6358,4.68,4.68,4.6975,4.7309,4.7309,4.7429,4.7668,4.7668,4.8057,4.876,4.9374,4.9883,5.0285,5.099,5.1229,5.1229,5.1229,5.1229,5.1229,5.1229,5.1229,5.1229,5.1229,5.1229,5.1229,5.1229,5.1003,5.0704,5.0285,4.9733,4.9299,4.9299,4.9299,4.9179,4.876,4.8446,4.8147,4.7728,4.7459,4.7309,4.7309,4.7309,4.7309,4.7309,4.7309,4.7309,4.7309,4.7309,4.7309,4.7309,4.7309,4.7309,4.7309,4.7309,4.7309,4.7309,4.7309,4.7309,4.7309,4.7309,4.7309,4.7309,4.7309,4.7309,4.7309,4.7309,4.7309,2.3212,2.541,2.8075,3.0651,3.2653,3.4831,3.811,3.9843,4.1311,0.0,0.0,0.0,0.0,0.0,0.0,0.0,0.0,0.0,0.0,0.0,0.0,0.0,0.0,0.0,0.0,0.0,0.0,0.0,0.0,0.0,4.5895,4.5895,4.5895,4.5895,4.5895,4.5895,4.5895,4.5895,4.5895,4.5895,4.5895,4.6001,4.6225,4.6225,4.6491,4.6931,4.6931,4.7062,4.7309,4.7309,4.7309,4.7309,4.7309,4.7698,4.8356,4.906,4.9673,5.0285,5.099,5.1229,5.1229,5.1229,5.1229,5.1229,5.1229,5.1229,5.1229,5.1229,5.105,5.0853,5.0853,5.072,5.0451,5.0002,4.9583,4.9299,4.9299,4.9299,4.9179,4.8686,4.8446,4.8147,4.7698,4.7459,4.7309,4.7309,4.7309,4.7309,4.7309,4.7309,4.7309,4.7309,4.7309,4.7309,4.7309,4.7309,4.7309,4.7309,4.7309,4.7309,4.7309,4.7309,4.7309,4.7309,4.7309,4.7309,4.7309,4.7309,4.7309,4.7309,4.7309,4.7309,0.0,0.0,0.0,3.0244,3.0916,3.2138,3.8376,0.0,3.9741,0.0,0.0,0.0,0.0,0.0,0.0,0.0,0.0,0.0,0.0,0.0,0.0,0.0,0.0,0.0,0.0,0.0,0.0,0.0,0.0,4.5895,4.5895,4.5895,4.5895,4.5895,4.5895,4.5895,4.5895,4.5895,4.5895,4.594,4.594,4.6001,4.6225,4.6225,4.6491,4.6931,4.6931,4.7062,4.7309,4.7309,4.7309,4.7309,4.7309,4.7698,4.8356,4.906,4.9673,5.0285,5.099,5.1229,5.1229,5.1229,5.1229,5.1229,5.1229,5.1229,5.1229,5.1199,5.0674,5.0196,5.0166,4.9733,4.9299,4.9299,4.9299,4.9299,4.9299,4.9299,4.9299,4.9269,4.876,4.8267,4.8267,4.7728,4.7309,4.7309,4.7309,4.7309,4.7309,4.7309,4.7309,4.7309,4.7309,4.7309,4.7309,4.7309,4.7309,4.7309,4.7309,4.7309,4.7309,4.7309,4.7309,4.7309,4.7309,4.7309,4.7309,4.7309,4.7309,4.7309,4.7309,4.7309,2.301,0.0,0.0,0.0,0.0,0.0,0.0,0.0,0.0,0.0,0.0,0.0,0.0,0.0,0.0,0.0,0.0,0.0,0.0,0.0,0.0,0.0,0.0,0.0,0.0,0.0,0.0,0.0,4.5895,4.5895,4.5895,4.5895,4.5895,4.5895,4.5895,4.5895,4.5895,4.5895,4.5956,4.6135,4.6135,4.6314,4.6712,4.6712,4.6887,4.7222,4.7222,4.7222,4.7309,4.7309,4.7309,4.7309,4.7309,4.7698,4.8356,4.906,4.9673,5.0285,5.099,5.1229,5.1229,5.1229,5.1229,5.1229,5.1229,5.1229,5.1109,5.0584,5.0315,5.0076,4.9643,4.9449,4.9299,4.9299,4.9299,4.9299,4.9299,4.9299,4.9179,4.8656,4.8416,4.8147,4.7668,4.7429,4.7309,4.7309,4.7309,4.7309,4.7309,4.7309,4.7309,4.7309,4.7309,4.7309,4.7309,4.7309,4.7309,4.7309,4.7309,4.7309,4.7309,4.7309,4.7309,4.7309,4.7309,4.7309,4.7309,4.7309,4.7309,4.7309,4.7309,4.7624,2.3983,2.5139,2.6562,2.6474,0.0,0.0,0.0,3.1671,0.0,0.0,0.0,0.0,0.0,0.0,0.0,0.0,0.0,0.0,0.0,0.0,0.0,0.0,0.0,0.0,0.0,0.0,0.0,0.0,4.5895,4.5895,4.5895,4.5895,4.5895,4.5895,4.5895,4.5895,4.5895,4.5895,4.5956,4.609,4.618,4.6403,4.68,4.6887,4.7062,4.7309,4.7608,4.7549,4.7339,4.7608,4.7549,4.7309,4.7309,4.7878,4.8745,4.9179,4.9853,5.0644,5.1079,5.1229,5.1229,5.1229,5.1229,5.1229,5.1229,5.102,5.0674,5.0315,4.9986,4.9673,4.9045,4.912,4.9299,4.9299,4.9299,4.9299,4.9299,4.9299,4.9209,4.882,4.873,4.8566,4.8177,4.8117,4.8117,4.8117,4.8117,4.8117,4.8117,4.7878,4.7728,4.7728,4.7459,4.7309,4.7309,4.7309,4.7309,4.7309,4.7309,4.7309,4.7309,4.7309,4.7309,4.7309,4.7309,4.7309,4.7309,4.7309,4.7352,4.7439,4.7439,4.7934,2.5546,2.6474,2.7898,2.8389,2.7372,0.0,3.1673,3.1874,0.0,0.0,0.0,0.0,0.0,0.0,0.0,0.0,0.0,0.0,0.0,0.0,0.0,0.0,0.0,0.0,0.0,0.0,4.5895,4.5895,4.5895,4.5895,4.5895,4.5895,4.5895,4.5895,4.5895,4.5895,4.5895,4.5895,4.594,4.5985,4.618,4.6403,4.6668,4.6844,4.7122,4.7429,4.7967,4.7878,4.7459,4.7967,4.7848,4.7309,4.7399,4.8177,4.9329,4.9389,5.0152,5.1229,5.1229,5.1229,5.1229,5.1229,5.1229,5.1229,5.1229,5.0704,5.0166,5.0016,4.9613,4.906,4.8446,4.8835,4.9419,4.9419,4.9479,4.9539,4.9539,4.9539,4.9539,4.9539,4.9419,4.9299,4.9299,4.9299,4.9299,4.9299,4.9299,4.9299,4.9299,4.879,4.8386,4.8386,4.7818,4.7429,4.7429,4.7339,4.7309,4.7309,4.7309,4.7309,4.7309,4.7309,4.7309,4.7309,4.7309,4.7352,4.7409,4.7352,4.7396,4.7581,4.7666,4.8313,2.7374,2.781,2.8274,2.7401,0.0,0.0,2.752,2.8331,2.9552,0.0,0.0,0.0,0.0,0.0,0.0,0.0,0.0,0.0,0.0,0.0,0.0,0.0,0.0,0.0,0.0,0.0,4.5895,4.5895,4.5895,4.5895,4.5895,4.5895,4.5895,4.5895,4.5895,4.5895,4.5895,4.5895,4.612,4.6476,4.6491,4.6756,4.7179,4.7222,4.7535,4.8087,4.7668,4.7728,4.8057,4.7668,4.7429,4.7369,4.7878,4.8566,4.9389,4.9853,5.0495,5.1229,5.1229,5.1229,5.1229,5.1229,5.1229,5.1229,5.1229,5.0704,4.9986,4.8955,4.8566,4.8446,4.8327,4.9164,4.9986,4.9986,5.0451,5.084,5.084,5.084,5.084,5.084,5.0002,4.9299,4.9299,4.9299,4.9299,4.9299,4.9299,4.9299,4.9299,4.9209,4.912,4.912,4.8476,4.8087,4.8087,4.7608,4.7309,4.7309,4.7309,4.7309,4.7309,4.7309,4.7309,4.7309,4.7309,4.7666,4.8324,4.7624,4.7309,4.7396,4.8168,4.9044,2.8739,2.8913,2.9493,2.8854,0.0,0.0,0.0,2.8652,2.9029,3.0277,0.0,0.0,0.0,0.0,0.0,0.0,0.0,0.0,0.0,0.0,0.0,0.0,0.0,0.0,0.0,0.0,4.4937,4.4937,4.5227,4.5372,4.5372,4.5721,4.5895,4.5895,4.5895,4.5895,4.5895,4.5895,4.603,4.6254,4.6521,4.6741,4.6961,4.7179,4.7668,4.8267,4.7938,4.7967,4.8267,4.7938,4.7608,4.7369,4.8027,4.8686,4.9389,5.0002,5.0614,5.1229,5.1229,5.1229,5.1229,5.1229,5.1229,5.1229,5.1229,5.0541,4.9494,4.8177,4.8267,4.882,4.882,4.9733,5.0674,5.0674,5.099,5.1229,5.1229,5.1229,5.1229,5.1229,5.069,5.0242,5.0242,5.0242,5.0242,5.0242,5.0242,5.0242,5.0242,4.9942,4.9763,4.9763,4.9164,4.882,4.882,4.8177,4.7788,4.7788,4.7489,4.7309,4.7309,4.7309,4.7309,4.7309,4.7752,4.8157,4.8615,4.8573,4.8615,4.8738,4.8913,4.9765,0.0,0.0,0.0,0.0,0.0,3.0248,0.0,0.0,0.0,3.0538,0.0,0.0,0.0,0.0,0.0,0.0,0.0,0.0,0.0,0.0,0.0,0.0,0.0,0.0,0.0,0.0,4.3602,4.395,4.4095,4.4356,4.485,4.5401,4.575,4.5895,4.5895,4.5895,4.5895,4.5895,4.594,4.5956,4.6358,4.6624,4.6697,4.7255,4.7848,4.8476,4.8327,4.8356,4.8446,4.8207,4.7788,4.7369,4.8177,4.8805,4.9419,5.0122,5.0734,5.1229,5.1229,5.1229,5.1229,5.1229,5.1139,5.102,5.087,5.0032,4.8865,4.7788,4.8356,4.9329,4.9404,5.0331,5.1229,5.1229,5.1229,5.1229,5.1229,5.1229,5.1229,5.1229,5.1229,5.1229,5.1229,5.1229,5.1229,5.1229,5.1229,5.1229,5.1229,5.0704,5.0375,5.0375,4.9853,4.9464,4.9464,4.8865,4.8476,4.8476,4.7967,4.7638,4.7489,4.7369,4.7309,4.7309,4.8187,4.8697,4.8831,4.9487,4.9915,5.0104,4.9797,5.0467,0.0,0.0,0.0,0.0,3.3441,0.0,0.0,0.0,3.0596,2.8536,0.0,0.0,0.0,0.0,0.0,0.0,0.0,0.0,0.0,0.0,0.0,0.0,0.0,0.0,0.0,0.0,0.0,4.3863,4.2469,4.2498,4.4763,4.4966,4.5285,4.5866,4.5895,4.5895,4.5895,4.5895,4.6001,4.618,4.6447,4.6668,4.6917,4.7776,4.8536,4.9179,4.8536,4.8626,4.912,4.7908,4.7369,4.7429,4.87,4.9239,4.9449,5.0661,5.1139,5.1229,5.1229,5.1229,5.1229,5.1229,5.0794,5.0196,4.9673,4.903,4.8356,4.8207,4.8686,4.9449,4.9972,5.0614,5.1229,5.1229,5.1229,5.1229,5.1229,5.1229,5.1229,5.1229,5.1229,5.1229,5.1229,5.1229,5.1229,5.1229,5.1229,5.1229,5.1229,5.1139,5.1109,5.1109,5.0465,5.0076,5.0076,4.9523,4.9209,4.9209,4.912,4.882,4.8207,4.7608,4.7309,4.7309,4.8187,4.8953,4.9647,4.9765,4.9805,4.9844,5.0855,5.1451,0.0,0.0,0.0,0.0,0.0,0.0,3.1205,0.0,3.019,0.0,0.0,0.0,0.0,0.0,0.0,0.0,0.0,0.0,0.0,0.0,0.0,0.0,0.0,0.0,0.0,0.0,0.0,0.0,0.0,4.1337,4.3166,4.4298,4.5024,4.5285,4.5692,4.5895,4.5895,4.5895,4.6001,4.6225,4.6447,4.6712,4.6931,4.788,4.8446,4.8686,4.8416,4.8446,4.8626,4.7698,4.7519,4.7967,4.894,4.9299,4.9479,5.075,5.1229,5.1229,5.1229,5.1229,5.1169,5.0734,5.0405,4.9986,4.9015,4.8775,4.882,4.8386,4.9045,4.9883,5.0106,5.0674,5.1229,5.1229,5.1229,5.1229,5.1229,5.1229,5.1229,5.1229,5.1229,5.1229,5.1229,5.1229,5.1229,5.1229,5.1229,5.1229,5.1229,5.1229,5.1229,5.1229,5.0913,5.0764,5.0764,5.0212,4.9823,4.9823,4.9464,4.9179,4.891,4.8596,4.8501,4.8596,4.9419,5.0096,5.0538,5.1065,5.129,5.1327,5.1521,5.1885,3.6286,0.0,0.0,0.0,0.0,0.0,0.0,0.0,0.0,0.0,0.0,0.0,0.0,0.0,0.0,0.0,0.0,0.0,0.0,0.0,0.0,0.0,0.0,0.0,0.0,0.0,0.0,0.0,0.0,0.0,4.1686,4.3282,4.4356,4.4879,4.5547,4.5895,4.5895,4.5895,4.6001,4.6225,4.6447,4.6712,4.6931,4.788,4.8297,4.8297,4.8297,4.8297,4.8237,4.7578,4.7698,4.8356,4.906,4.9419,4.9673,5.081,5.1229,5.1229,5.1229,5.1109,5.084,5.0182,4.9972,4.9793,4.8835,4.894,4.9239,4.8895,4.9494,5.0226,5.0405,5.0823,5.1229,5.1229,5.1229,5.1229,5.1229,5.1229,5.1229,5.1229,5.1229,5.1229,5.1229,5.1229,5.1229,5.1229,5.1229,5.1229,5.1229,5.1229,5.1229,5.1229,5.1229,5.1229,5.1229,5.0734,5.0465,5.0465,4.9883,4.9523,4.9523,4.9419,4.943,4.9793,5.0642,5.1216,5.1394,5.2277,5.2572,5.2373,5.2059,5.2241,0.0,0.0,0.0,3.5503,0.0,0.0,0.0,0.0,3.3009,0.0,0.0,0.0,0.0,0.0,0.0,2.9784,0.0,0.0,0.0,0.0,0.0,0.0,0.0,0.0,0.0,0.0,0.0,0.0,0.0,0.0,4.0873,4.1802,4.3021,4.4821,4.5547,4.5895,4.5895,4.5895,4.6001,4.6225,4.6447,4.6712,4.6931,4.788,4.8297,4.8297,4.8297,4.8297,4.8237,4.7578,4.7698,4.8356,4.906,4.9643,5.0255,5.0913,5.1229,5.1229,5.1229,5.0764,5.0106,4.9523,4.9329,4.9329,4.9299,4.9299,4.9449,4.9956,5.0166,5.0345,5.102,5.1199,5.1229,5.1229,5.1229,5.1229,5.1229,5.1229,5.1229,5.1229,5.1229,5.1229,5.1229,5.1229,5.1229,5.1229,5.1229,5.1229,5.1229,5.1229,5.1229,5.1229,5.1229,5.1229,5.1229,5.1199,5.1199,5.1199,5.0524,5.0166,5.0166,4.9613,4.9686,5.0556,5.1445,5.1957,5.2144,5.2967,5.3036,5.2409,5.2518,5.2694,0.0,0.0,4.1482,3.7825,0.0,0.0,0.0,0.0,0.0,0.0,0.0,0.0,0.0,0.0,0.0,0.0,0.0,0.0,0.0,0.0,0.0,0.0,0.0,0.0,0.0,0.0,0.0,0.0,0.0,0.0,0.0,4.1047,4.2557,4.3602,4.4676,4.543,4.5895,4.5895,4.6001,4.6225,4.6447,4.6948,4.7585,4.8089,4.8297,4.8297,4.8297,4.8027,4.7608,4.7399,4.7967,4.9,4.9209,4.9942,5.0853,5.1139,5.1229,5.1169,5.0674,5.0375,5.0076,4.9494,4.9553,4.9823,4.9449,4.9583,4.9942,5.0136,5.0495,5.0883,5.1169,5.1229,5.1229,5.1229,5.1229,5.1229,5.1229,5.1229,5.1229,5.1229,5.1229,5.1229,5.1229,5.1229,5.1229,5.1229,5.1229,5.1229,5.1229,5.1229,5.1229,5.1229,5.1229,5.1229,5.1229,5.1229,5.1229,5.1229,5.102,5.0853,5.0853,5.069,5.1075,5.2124,5.2419,5.2933,5.3719,5.3981,5.3765,5.3069,5.3105,5.3055,4.2673,4.2876,0.0,0.0,3.858,0.0,3.4254,0.0,0.0,0.0,0.0,0.0,0.0,0.0,0.0,0.0,0.0,0.0,0.0,0.0,0.0,0.0,0.0,0.0,0.0,0.0,3.1324,3.3303,0.0,0.0,0.0,0.0,4.1657,4.2963,4.424,4.5243,4.6001,4.594,4.609,4.6417,4.6535,4.7111,4.8045,4.7983,4.8057,4.8267,4.8027,4.7698,4.7309,4.7549,4.8297,4.9329,4.9523,5.0272,5.1229,5.1229,5.1079,5.0734,5.0122,4.9883,4.9823,4.9449,4.9703,5.0106,4.9733,5.0062,5.0554,5.0554,5.09,5.1229,5.1229,5.1229,5.1229,5.1229,5.1229,5.1229,5.1229,5.1229,5.1229,5.1229,5.1229,5.1229,5.1229,5.1229,5.1229,5.1229,5.1229,5.1229,5.1229,5.1229,5.1229,5.1229,5.1229,5.1229,5.1229,5.1229,5.1339,5.1681,5.1681,5.1865,5.2154,5.223,5.2701,5.3732,5.3742,5.4116,5.4887,5.4962,5.4601,5.3908,5.3715,5.3492]}]]